GFSNE_prec_precacc24_027.txt.gz
Total_Precipitation_Accumulation
0.00 0.00 0.00 0.00 0.00 0.00 0.00 0.00 0.00 0.00 0.00 0.00 0.00 0.00 0.00 0.00 0.00 0.00 0.00 0.00 0.00 0.00 0.00 0.00 0.00 0.01 0.01 0.02 0.04 0.07 0.07 0.07 0.06 0.08 0.14 0.16 0.18 0.22
0.00 0.00 0.00 0.00 0.00 0.00 0.00 0.00 0.00 0.00 0.00 0.00 0.00 0.00 0.00 0.00 0.00 0.00 0.00 0.00 0.00 0.00 0.01 0.01 0.02 0.02 0.02 0.02 0.02 0.02 0.03 0.04 0.07 0.11 0.15 0.17 0.21 0.23
0.00 0.00 0.00 0.00 0.00 0.00 0.00 0.00 0.00 0.00 0.00 0.00 0.00 0.00 0.00 0.00 0.00 0.00 0.00 0.01 0.02 0.02 0.02 0.01 0.01 0.00 0.00 0.01 0.03 0.06 0.06 0.08 0.12 0.16 0.21 0.28 0.34 0.36
0.00 0.00 0.00 0.00 0.00 0.00 0.00 0.00 0.00 0.00 0.00 0.01 0.00 0.00 0.00 0.00 0.00 0.00 0.01 0.02 0.01 0.00 0.00 0.00 0.00 0.00 0.00 0.02 0.05 0.09 0.12 0.15 0.19 0.22 0.24 0.24 0.25 0.29
0.00 0.00 0.00 0.00 0.00 0.00 0.00 0.00 0.00 0.00 0.01 0.02 0.00 0.00 0.00 0.03 0.04 0.01 0.00 0.00 0.00 0.00 0.00 0.00 0.00 0.01 0.02 0.03 0.07 0.09 0.11 0.11 0.10 0.09 0.09 0.11 0.12 0.15
0.00 0.00 0.00 0.00 0.00 0.00 0.00 0.00 0.00 0.00 0.00 0.02 0.11 0.12 0.12 0.07 0.03 0.01 0.00 0.00 0.00 0.00 0.00 0.00 0.01 0.01 0.02 0.02 0.02 0.01 0.01 0.01 0.02 0.05 0.08 0.09 0.09 0.08
0.00 0.00 0.00 0.00 0.00 0.00 0.01 0.01 0.01 0.03 0.16 0.31 0.28 0.22 0.10 0.02 0.00 0.00 0.01 0.02 0.02 0.01 0.00 0.00 0.00 0.00 0.00 0.00 0.00 0.01 0.02 0.06 0.09 0.11 0.14 0.14 0.15 0.14
0.00 0.00 0.00 0.00 0.00 0.00 0.01 0.02 0.05 0.21 0.30 0.37 0.29 0.10 0.01 0.00 0.01 0.05 0.15 0.13 0.07 0.00 0.01 0.01 0.00 0.00 0.00 0.00 0.01 0.03 0.04 0.04 0.04 0.08 0.11 0.12 0.12 0.14
0.00 0.00 0.00 0.00 0.00 0.00 0.01 0.06 0.17 0.23 0.21 0.12 0.03 0.00 0.01 0.05 0.21 0.20 0.09 0.08 0.04 0.01 0.04 0.06 0.00 0.01 0.01 0.01 0.00 0.01 0.02 0.04 0.05 0.07 0.10 0.11 0.11 0.10
0.00 0.00 0.00 0.00 0.01 0.03 0.07 0.19 0.13 0.08 0.01 0.00 0.00 0.02 0.06 0.08 0.06 0.07 0.06 0.07 0.03 0.00 0.02 0.10 0.01 0.00 0.00 0.00 0.00 0.01 0.01 0.07 0.13 0.16 0.19 0.19 0.17 0.15
0.00 0.00 0.02 0.02 0.01 0.08 0.13 0.19 0.06 0.00 0.00 0.01 0.07 0.04 0.01 0.00 0.01 0.11 0.16 0.15 0.08 0.01 0.00 0.03 0.02 0.01 0.00 0.00 0.00 0.01 0.04 0.07 0.05 0.06 0.07 0.09 0.10 0.11
0.00 0.00 0.01 0.02 0.04 0.18 0.12 0.03 0.00 0.00 0.07 0.06 0.01 0.00 0.00 0.00 0.01 0.03 0.17 0.43 0.18 0.13 0.00 0.16 0.10 0.06 0.25 0.02 0.00 0.01 0.00 0.00 0.02 0.03 0.04 0.06 0.08 0.12
0.01 0.00 0.00 0.04 0.14 0.11 0.03 0.00 0.01 0.03 0.03 0.00 0.00 0.00 0.00 0.00 0.00 0.01 0.07 0.41 0.58 0.34 0.01 0.38 0.41 0.07 0.20 0.08 0.00 0.00 0.00 0.00 0.03 0.07 0.14 0.21 0.22 0.27
0.01 0.00 0.03 0.11 0.07 0.00 0.00 0.01 0.02 0.02 0.00 0.00 0.00 0.00 0.01 0.01 0.01 0.01 0.02 0.06 0.18 0.43 0.16 0.27 0.64 0.26 0.38 0.19 0.03 0.00 0.00 0.01 0.18 0.34 0.48 0.49 0.47 0.39
0.02 0.05 0.07 0.02 0.00 0.00 0.00 0.01 0.01 0.00 0.01 0.05 0.04 0.02 0.02 0.02 0.02 0.03 0.02 0.01 0.02 0.04 0.08 0.15 0.36 0.30 0.33 0.29 0.15 0.03 0.13 0.09 0.26 0.56 0.45 0.39 0.43 0.48
0.03 0.08 0.01 0.00 0.00 0.00 0.00 0.00 0.00 0.00 0.04 0.09 0.07 0.03 0.02 0.03 0.04 0.06 0.11 0.04 0.11 0.02 0.02 0.05 0.17 0.30 0.26 0.09 0.20 0.15 0.16 0.35 0.24 0.32 0.42 0.34 0.33 0.45
0.03 0.00 0.00 0.00 0.00 0.00 0.00 0.00 0.00 0.00 0.04 0.04 0.07 0.07 0.04 0.03 0.03 0.03 0.12 0.15 0.16 0.11 0.07 0.02 0.02 0.06 0.07 0.14 0.16 0.13 0.22 0.25 0.38 0.56 0.55 0.41 0.44 0.68
0.00 0.00 0.00 0.00 0.00 0.00 0.00 0.01 0.01 0.02 0.04 0.06 0.05 0.06 0.10 0.09 0.10 0.05 0.07 0.15 0.19 0.12 0.13 0.09 0.07 0.04 0.03 0.06 0.17 0.32 0.33 0.35 0.48 0.58 0.60 0.62 0.60 0.72
0.00 0.00 0.01 0.01 0.00 0.00 0.01 0.04 0.05 0.03 0.06 0.08 0.09 0.12 0.16 0.10 0.07 0.07 0.07 0.09 0.09 0.10 0.13 0.15 0.12 0.16 0.16 0.09 0.09 0.38 0.55 0.48 0.51 0.49 0.55 0.63 0.79 0.88
0.00 0.01 0.01 0.00 0.01 0.03 0.05 0.08 0.08 0.04 0.04 0.06 0.13 0.12 0.13 0.15 0.10 0.10 0.09 0.14 0.15 0.13 0.09 0.09 0.08 0.19 0.35 0.34 0.28 0.39 0.47 0.60 0.57 0.65 0.77 0.64 0.80 0.68
0.01 0.01 0.00 0.01 0.03 0.05 0.07 0.08 0.09 0.11 0.14 0.16 0.10 0.12 0.13 0.20 0.11 0.09 0.11 0.10 0.13 0.11 0.09 0.08 0.09 0.17 0.21 0.10 0.14 0.19 0.34 0.42 0.48 0.67 0.65 0.41 0.44 0.27
0.01 0.00 0.00 0.01 0.05 0.09 0.10 0.08 0.08 0.04 0.07 0.08 0.10 0.13 0.13 0.17 0.20 0.14 0.10 0.13 0.09 0.12 0.12 0.03 0.01 0.03 0.07 0.09 0.12 0.16 0.17 0.17 0.20 0.17 0.35 0.67 0.73 0.88
0.01 0.01 0.01 0.03 0.07 0.09 0.08 0.06 0.06 0.05 0.08 0.15 0.14 0.15 0.16 0.19 0.13 0.13 0.11 0.12 0.13 0.10 0.04 0.03 0.01 0.00 0.02 0.06 0.07 0.08 0.08 0.09 0.11 0.12 0.31 0.48 0.75 0.97

GFSNE_prec_precacc24_033.txt.gz
Total_Precipitation_Accumulation
0.00 0.00 0.00 0.00 0.00 0.00 0.00 0.00 0.00 0.00 0.00 0.00 0.00 0.00 0.00 0.00 0.00 0.00 0.00 0.00 0.00 0.00 0.00 0.00 0.00 0.01 0.02 0.02 0.04 0.07 0.08 0.07 0.09 0.11 0.16 0.18 0.17 0.18
0.00 0.00 0.00 0.00 0.00 0.00 0.00 0.00 0.00 0.00 0.00 0.00 0.00 0.00 0.00 0.00 0.00 0.00 0.00 0.00 0.00 0.00 0.01 0.01 0.02 0.02 0.02 0.02 0.02 0.02 0.04 0.04 0.07 0.13 0.18 0.24 0.26 0.26
0.00 0.00 0.00 0.00 0.00 0.00 0.00 0.00 0.00 0.00 0.00 0.00 0.00 0.00 0.00 0.00 0.00 0.00 0.00 0.01 0.02 0.02 0.02 0.01 0.01 0.00 0.00 0.01 0.03 0.05 0.06 0.08 0.12 0.15 0.19 0.26 0.33 0.36
0.00 0.00 0.00 0.00 0.00 0.00 0.00 0.00 0.00 0.00 0.00 0.01 0.00 0.00 0.00 0.00 0.00 0.00 0.01 0.02 0.01 0.00 0.00 0.00 0.00 0.00 0.00 0.02 0.05 0.08 0.10 0.12 0.14 0.17 0.19 0.21 0.21 0.24
0.00 0.00 0.00 0.00 0.00 0.00 0.00 0.00 0.00 0.00 0.01 0.02 0.00 0.00 0.00 0.02 0.04 0.01 0.00 0.00 0.00 0.00 0.00 0.00 0.00 0.00 0.01 0.02 0.04 0.05 0.07 0.07 0.08 0.07 0.08 0.09 0.10 0.13
0.00 0.00 0.00 0.00 0.00 0.00 0.00 0.00 0.00 0.00 0.00 0.01 0.07 0.09 0.11 0.06 0.02 0.00 0.00 0.00 0.00 0.00 0.00 0.00 0.00 0.01 0.00 0.00 0.00 0.00 0.00 0.01 0.01 0.03 0.04 0.06 0.07 0.07
0.00 0.00 0.00 0.00 0.00 0.00 0.01 0.00 0.00 0.02 0.13 0.23 0.20 0.17 0.08 0.02 0.00 0.00 0.00 0.02 0.02 0.01 0.00 0.00 0.00 0.00 0.00 0.00 0.00 0.00 0.01 0.02 0.04 0.06 0.09 0.12 0.14 0.14
0.00 0.00 0.00 0.00 0.00 0.00 0.01 0.02 0.03 0.16 0.22 0.25 0.23 0.09 0.01 0.00 0.00 0.04 0.13 0.09 0.04 0.00 0.00 0.01 0.00 0.00 0.00 0.00 0.00 0.01 0.01 0.01 0.02 0.05 0.09 0.11 0.12 0.14
0.00 0.00 0.00 0.00 0.00 0.00 0.00 0.04 0.13 0.13 0.16 0.11 0.02 0.00 0.00 0.04 0.16 0.13 0.06 0.07 0.05 0.00 0.03 0.04 0.00 0.00 0.00 0.00 0.00 0.00 0.01 0.02 0.03 0.05 0.07 0.09 0.10 0.10
0.00 0.00 0.00 0.00 0.01 0.02 0.06 0.16 0.10 0.07 0.00 0.00 0.00 0.01 0.05 0.06 0.04 0.11 0.11 0.07 0.02 0.00 0.00 0.07 0.00 0.00 0.00 0.00 0.00 0.00 0.00 0.02 0.04 0.06 0.13 0.16 0.16 0.15
0.00 0.00 0.01 0.01 0.01 0.05 0.10 0.12 0.04 0.00 0.00 0.01 0.04 0.02 0.01 0.00 0.00 0.10 0.12 0.10 0.06 0.00 0.00 0.02 0.01 0.00 0.00 0.00 0.00 0.00 0.00 0.02 0.03 0.05 0.07 0.08 0.10 0.12
0.00 0.00 0.01 0.01 0.03 0.11 0.07 0.02 0.00 0.00 0.06 0.04 0.00 0.00 0.00 0.00 0.00 0.02 0.14 0.35 0.14 0.11 0.00 0.16 0.09 0.06 0.23 0.01 0.00 0.00 0.00 0.00 0.00 0.01 0.03 0.06 0.07 0.11
0.00 0.00 0.00 0.03 0.07 0.04 0.02 0.00 0.01 0.02 0.02 0.00 0.00 0.00 0.00 0.00 0.00 0.00 0.05 0.36 0.51 0.27 0.01 0.36 0.39 0.06 0.21 0.07 0.00 0.00 0.00 0.00 0.01 0.02 0.06 0.12 0.18 0.26
0.01 0.00 0.02 0.05 0.01 0.00 0.00 0.01 0.02 0.01 0.00 0.00 0.00 0.00 0.00 0.01 0.01 0.01 0.02 0.05 0.16 0.35 0.12 0.20 0.59 0.23 0.34 0.17 0.02 0.00 0.00 0.00 0.05 0.10 0.17 0.22 0.29 0.30
0.01 0.02 0.02 0.00 0.00 0.00 0.00 0.00 0.00 0.00 0.01 0.03 0.02 0.01 0.01 0.01 0.01 0.01 0.01 0.01 0.01 0.03 0.05 0.07 0.27 0.25 0.34 0.33 0.17 0.02 0.09 0.04 0.08 0.22 0.24 0.29 0.34 0.38
0.01 0.01 0.00 0.00 0.00 0.00 0.00 0.00 0.00 0.00 0.03 0.05 0.04 0.01 0.01 0.01 0.02 0.03 0.06 0.02 0.07 0.00 0.00 0.02 0.12 0.29 0.31 0.11 0.20 0.15 0.09 0.25 0.15 0.19 0.31 0.22 0.23 0.36
0.01 0.00 0.00 0.00 0.00 0.00 0.00 0.00 0.00 0.00 0.01 0.01 0.04 0.05 0.02 0.02 0.01 0.01 0.07 0.10 0.11 0.05 0.03 0.00 0.01 0.05 0.07 0.10 0.17 0.08 0.12 0.15 0.25 0.38 0.36 0.27 0.19 0.37
0.00 0.00 0.00 0.00 0.00 0.00 0.00 0.00 0.00 0.00 0.01 0.03 0.03 0.04 0.07 0.05 0.06 0.03 0.04 0.10 0.13 0.05 0.06 0.03 0.03 0.05 0.01 0.01 0.13 0.27 0.25 0.22 0.31 0.39 0.38 0.54 0.33 0.18
0.00 0.00 0.00 0.00 0.00 0.00 0.01 0.02 0.02 0.01 0.02 0.05 0.05 0.07 0.12 0.08 0.04 0.04 0.03 0.06 0.05 0.04 0.06 0.05 0.08 0.17 0.19 0.06 0.02 0.22 0.52 0.38 0.33 0.34 0.38 0.49 0.60 0.46
0.00 0.00 0.00 0.00 0.01 0.02 0.03 0.04 0.04 0.02 0.02 0.04 0.10 0.12 0.13 0.15 0.08 0.06 0.06 0.11 0.14 0.11 0.05 0.02 0.04 0.21 0.45 0.38 0.27 0.16 0.25 0.50 0.58 0.61 0.61 0.53 0.58 0.40
0.00 0.00 0.00 0.01 0.02 0.03 0.03 0.04 0.05 0.08 0.12 0.15 0.10 0.12 0.13 0.21 0.10 0.04 0.07 0.07 0.11 0.10 0.07 0.03 0.05 0.14 0.18 0.09 0.10 0.07 0.11 0.20 0.41 0.73 0.70 0.46 0.36 0.19
0.00 0.00 0.00 0.01 0.03 0.04 0.05 0.05 0.06 0.03 0.07 0.08 0.10 0.13 0.14 0.16 0.20 0.14 0.10 0.14 0.08 0.08 0.11 0.03 0.01 0.03 0.04 0.09 0.08 0.07 0.07 0.07 0.10 0.11 0.32 0.77 0.94 1.02
0.01 0.01 0.00 0.02 0.03 0.04 0.05 0.05 0.05 0.05 0.08 0.15 0.13 0.14 0.16 0.17 0.12 0.14 0.11 0.11 0.13 0.12 0.06 0.03 0.01 0.00 0.01 0.05 0.07 0.06 0.04 0.05 0.09 0.11 0.26 0.45 0.75 1.01

GFSNE_prec_precacc24_036.txt.gz
Total_Precipitation_Accumulation
0.00 0.00 0.00 0.00 0.00 0.00 0.00 0.00 0.00 0.00 0.00 0.00 0.00 0.00 0.00 0.00 0.00 0.00 0.00 0.00 0.00 0.00 0.00 0.00 0.00 0.00 0.01 0.01 0.03 0.06 0.07 0.07 0.10 0.12 0.17 0.19 0.20 0.22
0.00 0.00 0.00 0.00 0.00 0.00 0.00 0.00 0.00 0.00 0.00 0.00 0.00 0.00 0.00 0.00 0.00 0.00 0.00 0.00 0.00 0.00 0.01 0.01 0.02 0.01 0.01 0.01 0.01 0.02 0.04 0.05 0.08 0.14 0.21 0.27 0.29 0.29
0.00 0.00 0.00 0.00 0.00 0.00 0.00 0.00 0.00 0.00 0.00 0.00 0.00 0.00 0.00 0.00 0.00 0.00 0.00 0.01 0.02 0.02 0.02 0.01 0.01 0.00 0.00 0.01 0.03 0.05 0.06 0.07 0.11 0.15 0.20 0.28 0.35 0.36
0.00 0.00 0.00 0.00 0.00 0.00 0.00 0.00 0.00 0.00 0.00 0.01 0.00 0.00 0.00 0.00 0.00 0.00 0.01 0.02 0.01 0.00 0.00 0.00 0.00 0.00 0.00 0.02 0.05 0.06 0.07 0.10 0.13 0.15 0.17 0.18 0.18 0.21
0.00 0.00 0.00 0.00 0.00 0.00 0.00 0.00 0.00 0.00 0.01 0.01 0.00 0.00 0.00 0.01 0.03 0.01 0.00 0.00 0.00 0.00 0.00 0.00 0.00 0.00 0.00 0.01 0.02 0.04 0.06 0.07 0.07 0.06 0.08 0.08 0.09 0.12
0.01 0.01 0.00 0.00 0.00 0.00 0.00 0.00 0.00 0.00 0.00 0.01 0.07 0.07 0.05 0.04 0.02 0.00 0.00 0.00 0.00 0.00 0.00 0.00 0.00 0.00 0.00 0.00 0.00 0.00 0.00 0.00 0.01 0.01 0.03 0.04 0.05 0.06
0.02 0.00 0.00 0.00 0.00 0.00 0.00 0.00 0.00 0.02 0.10 0.18 0.14 0.11 0.07 0.02 0.00 0.00 0.00 0.01 0.01 0.00 0.00 0.00 0.00 0.00 0.00 0.00 0.00 0.00 0.00 0.01 0.02 0.03 0.06 0.09 0.11 0.13
0.00 0.00 0.00 0.00 0.00 0.00 0.00 0.01 0.02 0.15 0.20 0.18 0.15 0.06 0.01 0.00 0.00 0.03 0.07 0.05 0.04 0.00 0.00 0.01 0.00 0.00 0.00 0.00 0.00 0.00 0.01 0.01 0.02 0.04 0.07 0.09 0.11 0.13
0.00 0.00 0.00 0.00 0.00 0.00 0.00 0.03 0.12 0.11 0.09 0.06 0.02 0.00 0.00 0.02 0.11 0.09 0.06 0.09 0.06 0.00 0.02 0.04 0.00 0.00 0.00 0.00 0.00 0.00 0.00 0.01 0.02 0.03 0.06 0.08 0.09 0.09
0.00 0.00 0.00 0.00 0.00 0.01 0.06 0.15 0.06 0.02 0.00 0.00 0.00 0.01 0.03 0.04 0.04 0.15 0.13 0.07 0.02 0.00 0.00 0.06 0.00 0.00 0.00 0.00 0.00 0.00 0.00 0.01 0.02 0.03 0.06 0.08 0.10 0.12
0.00 0.00 0.01 0.01 0.01 0.04 0.07 0.04 0.01 0.00 0.00 0.00 0.03 0.02 0.01 0.01 0.00 0.08 0.08 0.08 0.05 0.00 0.00 0.01 0.01 0.00 0.00 0.00 0.00 0.00 0.00 0.01 0.01 0.03 0.04 0.06 0.07 0.10
0.00 0.00 0.00 0.01 0.02 0.07 0.03 0.01 0.00 0.00 0.05 0.03 0.00 0.00 0.00 0.00 0.00 0.01 0.10 0.30 0.12 0.11 0.00 0.13 0.07 0.05 0.21 0.01 0.00 0.00 0.00 0.00 0.00 0.00 0.01 0.04 0.06 0.11
0.00 0.00 0.00 0.02 0.03 0.02 0.02 0.00 0.01 0.02 0.02 0.00 0.00 0.00 0.00 0.00 0.00 0.00 0.03 0.29 0.44 0.24 0.00 0.32 0.37 0.05 0.20 0.07 0.00 0.00 0.00 0.00 0.01 0.00 0.03 0.08 0.15 0.23
0.00 0.00 0.00 0.02 0.01 0.00 0.00 0.01 0.02 0.01 0.00 0.00 0.00 0.00 0.00 0.00 0.00 0.00 0.01 0.03 0.12 0.29 0.10 0.16 0.55 0.19 0.32 0.17 0.02 0.00 0.00 0.00 0.03 0.05 0.07 0.12 0.20 0.26
0.01 0.01 0.01 0.00 0.00 0.00 0.00 0.00 0.00 0.00 0.00 0.02 0.01 0.01 0.01 0.01 0.01 0.01 0.01 0.00 0.01 0.02 0.03 0.03 0.22 0.21 0.31 0.32 0.18 0.03 0.07 0.03 0.02 0.10 0.16 0.20 0.26 0.31
0.00 0.00 0.00 0.00 0.00 0.00 0.00 0.00 0.00 0.00 0.01 0.03 0.02 0.01 0.00 0.00 0.01 0.01 0.04 0.02 0.06 0.00 0.00 0.01 0.07 0.24 0.31 0.12 0.21 0.15 0.06 0.17 0.10 0.13 0.24 0.17 0.19 0.33
0.01 0.00 0.00 0.00 0.00 0.00 0.00 0.00 0.00 0.00 0.01 0.01 0.03 0.04 0.02 0.01 0.01 0.00 0.04 0.08 0.10 0.04 0.01 0.00 0.00 0.03 0.07 0.10 0.17 0.06 0.07 0.10 0.17 0.28 0.30 0.22 0.16 0.31
0.00 0.00 0.00 0.00 0.00 0.00 0.00 0.00 0.00 0.00 0.01 0.03 0.03 0.03 0.06 0.04 0.05 0.02 0.02 0.07 0.10 0.03 0.03 0.02 0.02 0.05 0.01 0.00 0.09 0.21 0.20 0.16 0.19 0.26 0.27 0.46 0.27 0.11
0.00 0.00 0.00 0.00 0.00 0.00 0.01 0.02 0.01 0.01 0.02 0.05 0.05 0.06 0.11 0.08 0.03 0.03 0.02 0.04 0.03 0.02 0.03 0.03 0.07 0.18 0.21 0.05 0.01 0.13 0.46 0.33 0.22 0.25 0.28 0.42 0.49 0.31
0.00 0.00 0.00 0.00 0.01 0.01 0.02 0.03 0.03 0.02 0.02 0.03 0.09 0.11 0.12 0.14 0.07 0.06 0.05 0.10 0.13 0.10 0.04 0.01 0.04 0.21 0.48 0.41 0.30 0.07 0.14 0.43 0.56 0.56 0.49 0.44 0.45 0.31
0.00 0.00 0.00 0.00 0.01 0.02 0.02 0.03 0.04 0.07 0.11 0.15 0.09 0.11 0.11 0.20 0.10 0.04 0.06 0.05 0.10 0.09 0.07 0.02 0.03 0.11 0.16 0.11 0.10 0.03 0.05 0.13 0.34 0.71 0.69 0.47 0.28 0.12
0.00 0.00 0.00 0.00 0.02 0.03 0.04 0.04 0.05 0.03 0.06 0.07 0.09 0.12 0.13 0.16 0.19 0.13 0.09 0.14 0.08 0.07 0.09 0.03 0.01 0.02 0.05 0.13 0.09 0.05 0.05 0.05 0.09 0.08 0.27 0.79 0.97 1.01
0.01 0.01 0.00 0.01 0.03 0.04 0.05 0.05 0.05 0.04 0.08 0.14 0.12 0.14 0.15 0.17 0.10 0.11 0.10 0.10 0.13 0.13 0.07 0.04 0.01 0.00 0.01 0.06 0.08 0.06 0.04 0.05 0.09 0.11 0.19 0.39 0.65 0.88

GFSNE_prec_precacc24_042.txt.gz
Total_Precipitation_Accumulation
0.01 0.01 0.01 0.01 0.00 0.00 0.00 0.00 0.00 0.00 0.00 0.00 0.00 0.00 0.00 0.00 0.00 0.00 0.00 0.00 0.00 0.00 0.00 0.00 0.00 0.00 0.01 0.01 0.02 0.05 0.06 0.05 0.07 0.09 0.14 0.17 0.19 0.22
0.01 0.01 0.01 0.01 0.01 0.01 0.00 0.00 0.00 0.00 0.00 0.00 0.00 0.00 0.00 0.00 0.00 0.00 0.00 0.00 0.00 0.00 0.00 0.00 0.01 0.01 0.00 0.01 0.01 0.01 0.02 0.03 0.05 0.10 0.18 0.25 0.28 0.30
0.03 0.03 0.04 0.03 0.03 0.03 0.03 0.02 0.01 0.00 0.00 0.00 0.00 0.00 0.00 0.00 0.00 0.00 0.00 0.00 0.00 0.00 0.01 0.01 0.00 0.00 0.00 0.01 0.01 0.01 0.02 0.04 0.08 0.13 0.17 0.25 0.31 0.34
0.10 0.11 0.11 0.11 0.09 0.07 0.05 0.04 0.02 0.01 0.00 0.00 0.00 0.00 0.00 0.00 0.00 0.00 0.00 0.00 0.00 0.00 0.00 0.00 0.00 0.00 0.00 0.00 0.01 0.02 0.03 0.06 0.07 0.09 0.11 0.12 0.12 0.15
0.04 0.04 0.05 0.05 0.08 0.09 0.09 0.05 0.02 0.00 0.00 0.00 0.00 0.00 0.00 0.01 0.00 0.00 0.00 0.00 0.00 0.00 0.00 0.00 0.00 0.00 0.00 0.00 0.01 0.01 0.02 0.03 0.03 0.03 0.04 0.05 0.06 0.08
0.07 0.08 0.12 0.16 0.16 0.13 0.07 0.03 0.01 0.00 0.00 0.00 0.04 0.04 0.02 0.01 0.00 0.00 0.00 0.00 0.00 0.00 0.00 0.00 0.00 0.00 0.00 0.00 0.00 0.00 0.00 0.00 0.01 0.01 0.02 0.04 0.05 0.06
0.33 0.31 0.25 0.17 0.09 0.05 0.02 0.01 0.00 0.01 0.04 0.10 0.08 0.03 0.02 0.01 0.00 0.00 0.00 0.00 0.00 0.00 0.00 0.00 0.00 0.00 0.00 0.00 0.00 0.00 0.00 0.01 0.01 0.02 0.04 0.05 0.07 0.08
0.20 0.12 0.07 0.04 0.02 0.01 0.00 0.00 0.01 0.07 0.11 0.07 0.06 0.04 0.01 0.00 0.00 0.01 0.02 0.04 0.04 0.00 0.00 0.00 0.00 0.00 0.00 0.00 0.00 0.00 0.00 0.01 0.01 0.02 0.04 0.06 0.08 0.10
0.09 0.08 0.05 0.02 0.00 0.00 0.00 0.01 0.04 0.05 0.04 0.04 0.02 0.00 0.00 0.00 0.05 0.06 0.05 0.09 0.06 0.00 0.01 0.01 0.00 0.00 0.00 0.00 0.00 0.00 0.00 0.00 0.01 0.02 0.03 0.04 0.06 0.07
0.03 0.02 0.01 0.00 0.00 0.00 0.01 0.05 0.03 0.01 0.00 0.00 0.00 0.00 0.01 0.03 0.05 0.18 0.16 0.05 0.01 0.00 0.00 0.02 0.00 0.00 0.00 0.00 0.00 0.00 0.00 0.00 0.01 0.02 0.04 0.04 0.04 0.05
0.00 0.00 0.00 0.00 0.00 0.01 0.03 0.03 0.01 0.00 0.00 0.00 0.01 0.01 0.01 0.01 0.00 0.01 0.02 0.04 0.03 0.00 0.00 0.00 0.00 0.00 0.00 0.00 0.00 0.00 0.00 0.00 0.01 0.01 0.02 0.04 0.04 0.05
0.00 0.00 0.00 0.00 0.01 0.03 0.03 0.01 0.00 0.00 0.02 0.02 0.00 0.00 0.00 0.00 0.00 0.00 0.03 0.18 0.09 0.10 0.00 0.08 0.05 0.04 0.14 0.01 0.00 0.00 0.00 0.00 0.00 0.00 0.01 0.02 0.04 0.07
0.00 0.00 0.00 0.00 0.02 0.02 0.02 0.00 0.00 0.01 0.01 0.00 0.00 0.00 0.00 0.00 0.00 0.00 0.01 0.16 0.30 0.18 0.00 0.24 0.31 0.04 0.18 0.06 0.00 0.00 0.00 0.00 0.01 0.00 0.00 0.02 0.05 0.12
0.00 0.00 0.00 0.01 0.01 0.00 0.00 0.00 0.01 0.01 0.00 0.00 0.00 0.00 0.00 0.00 0.00 0.00 0.00 0.01 0.05 0.15 0.03 0.09 0.48 0.14 0.28 0.16 0.01 0.00 0.00 0.00 0.01 0.02 0.01 0.02 0.03 0.06
0.00 0.00 0.01 0.00 0.00 0.00 0.00 0.00 0.00 0.00 0.00 0.00 0.01 0.00 0.00 0.00 0.00 0.00 0.00 0.00 0.00 0.00 0.00 0.00 0.16 0.16 0.27 0.26 0.14 0.02 0.03 0.02 0.00 0.02 0.06 0.07 0.08 0.08
0.00 0.00 0.00 0.00 0.00 0.00 0.00 0.00 0.00 0.00 0.00 0.01 0.01 0.00 0.00 0.00 0.00 0.00 0.02 0.01 0.04 0.00 0.00 0.00 0.01 0.14 0.26 0.10 0.14 0.10 0.01 0.06 0.04 0.08 0.13 0.08 0.06 0.11
0.01 0.00 0.00 0.00 0.00 0.00 0.00 0.00 0.00 0.00 0.00 0.00 0.02 0.03 0.01 0.01 0.01 0.00 0.02 0.06 0.09 0.02 0.00 0.00 0.00 0.01 0.03 0.06 0.18 0.03 0.00 0.02 0.05 0.14 0.20 0.17 0.07 0.13
0.00 0.00 0.00 0.00 0.00 0.00 0.00 0.00 0.00 0.00 0.01 0.03 0.03 0.03 0.05 0.03 0.04 0.02 0.02 0.06 0.07 0.02 0.01 0.00 0.01 0.05 0.01 0.00 0.07 0.15 0.13 0.02 0.03 0.11 0.19 0.40 0.18 0.03
0.00 0.00 0.00 0.00 0.00 0.00 0.00 0.01 0.01 0.00 0.01 0.04 0.04 0.03 0.07 0.08 0.03 0.03 0.02 0.04 0.03 0.01 0.01 0.01 0.07 0.22 0.26 0.04 0.00 0.03 0.43 0.29 0.10 0.13 0.17 0.25 0.28 0.15
0.00 0.00 0.00 0.00 0.00 0.00 0.01 0.02 0.02 0.01 0.02 0.02 0.06 0.09 0.11 0.14 0.06 0.06 0.04 0.09 0.12 0.08 0.04 0.00 0.03 0.24 0.54 0.42 0.29 0.02 0.04 0.36 0.51 0.40 0.23 0.16 0.15 0.09
0.00 0.00 0.00 0.00 0.00 0.01 0.02 0.03 0.03 0.04 0.09 0.12 0.07 0.08 0.09 0.18 0.10 0.04 0.05 0.04 0.09 0.09 0.08 0.01 0.00 0.05 0.14 0.14 0.10 0.01 0.00 0.03 0.22 0.65 0.60 0.42 0.12 0.04
0.00 0.00 0.00 0.00 0.01 0.03 0.04 0.03 0.04 0.02 0.05 0.06 0.07 0.10 0.11 0.14 0.17 0.13 0.08 0.12 0.06 0.05 0.09 0.03 0.00 0.02 0.07 0.21 0.13 0.04 0.01 0.01 0.00 0.01 0.15 0.66 0.92 0.89
0.00 0.00 0.00 0.00 0.02 0.03 0.05 0.04 0.04 0.03 0.06 0.10 0.08 0.10 0.13 0.15 0.10 0.10 0.08 0.07 0.12 0.16 0.08 0.05 0.01 0.00 0.02 0.11 0.15 0.11 0.05 0.03 0.02 0.03 0.03 0.11 0.32 0.56

GFSNE_prec_precacc24_045.txt.gz
Total_Precipitation_Accumulation
0.02 0.02 0.02 0.02 0.02 0.02 0.01 0.01 0.00 0.00 0.00 0.00 0.00 0.00 0.00 0.00 0.00 0.00 0.00 0.00 0.00 0.00 0.00 0.00 0.00 0.00 0.00 0.00 0.01 0.03 0.04 0.04 0.06 0.08 0.13 0.16 0.17 0.20
0.02 0.01 0.01 0.02 0.02 0.02 0.01 0.01 0.01 0.00 0.00 0.00 0.00 0.00 0.00 0.00 0.00 0.00 0.00 0.00 0.00 0.00 0.00 0.00 0.00 0.00 0.00 0.00 0.01 0.01 0.02 0.02 0.04 0.08 0.16 0.22 0.25 0.27
0.03 0.03 0.04 0.05 0.05 0.05 0.06 0.06 0.06 0.05 0.05 0.03 0.03 0.03 0.04 0.02 0.01 0.00 0.00 0.00 0.00 0.00 0.00 0.00 0.00 0.00 0.00 0.01 0.00 0.00 0.01 0.02 0.04 0.08 0.12 0.20 0.27 0.32
0.11 0.13 0.14 0.14 0.13 0.12 0.09 0.09 0.09 0.10 0.09 0.04 0.01 0.02 0.03 0.01 0.00 0.00 0.00 0.00 0.00 0.00 0.00 0.00 0.00 0.00 0.00 0.00 0.01 0.00 0.01 0.03 0.04 0.07 0.09 0.10 0.10 0.13
0.07 0.08 0.09 0.11 0.15 0.18 0.19 0.17 0.15 0.10 0.06 0.03 0.01 0.01 0.01 0.01 0.00 0.00 0.00 0.00 0.00 0.00 0.00 0.00 0.00 0.00 0.00 0.00 0.01 0.00 0.01 0.01 0.01 0.01 0.02 0.03 0.03 0.05
0.14 0.17 0.21 0.26 0.29 0.26 0.20 0.13 0.08 0.04 0.03 0.02 0.02 0.02 0.01 0.01 0.00 0.00 0.00 0.00 0.00 0.00 0.00 0.00 0.00 0.00 0.00 0.00 0.00 0.00 0.00 0.00 0.01 0.01 0.02 0.03 0.04 0.05
0.43 0.42 0.36 0.28 0.20 0.13 0.08 0.05 0.03 0.02 0.02 0.04 0.05 0.03 0.02 0.01 0.00 0.00 0.00 0.00 0.00 0.00 0.00 0.00 0.00 0.00 0.00 0.00 0.00 0.00 0.00 0.00 0.01 0.02 0.03 0.04 0.06 0.08
0.25 0.18 0.13 0.10 0.08 0.07 0.05 0.03 0.02 0.02 0.06 0.07 0.06 0.04 0.01 0.00 0.00 0.00 0.01 0.03 0.04 0.00 0.00 0.00 0.00 0.00 0.00 0.00 0.00 0.00 0.00 0.00 0.01 0.02 0.03 0.04 0.06 0.08
0.16 0.14 0.10 0.06 0.04 0.02 0.01 0.00 0.01 0.04 0.04 0.04 0.02 0.00 0.00 0.00 0.02 0.04 0.04 0.09 0.06 0.00 0.00 0.00 0.00 0.00 0.00 0.00 0.00 0.00 0.00 0.00 0.01 0.02 0.02 0.03 0.04 0.06
0.08 0.05 0.03 0.01 0.00 0.00 0.01 0.02 0.02 0.01 0.00 0.00 0.00 0.00 0.00 0.01 0.05 0.18 0.16 0.04 0.00 0.00 0.00 0.01 0.00 0.00 0.00 0.00 0.00 0.00 0.00 0.00 0.00 0.01 0.03 0.03 0.03 0.04
0.03 0.01 0.00 0.00 0.00 0.00 0.02 0.03 0.01 0.00 0.00 0.00 0.00 0.01 0.01 0.01 0.00 0.00 0.01 0.03 0.03 0.00 0.00 0.00 0.00 0.00 0.00 0.00 0.00 0.00 0.00 0.00 0.00 0.01 0.02 0.03 0.04 0.04
0.00 0.00 0.00 0.00 0.00 0.01 0.02 0.01 0.00 0.00 0.00 0.01 0.00 0.00 0.00 0.00 0.00 0.00 0.01 0.14 0.08 0.09 0.00 0.06 0.04 0.03 0.11 0.00 0.00 0.00 0.00 0.00 0.00 0.00 0.00 0.01 0.03 0.06
0.00 0.00 0.00 0.00 0.01 0.02 0.01 0.00 0.00 0.01 0.01 0.00 0.00 0.00 0.00 0.00 0.00 0.00 0.00 0.12 0.24 0.15 0.00 0.20 0.29 0.04 0.16 0.05 0.00 0.00 0.00 0.00 0.00 0.00 0.00 0.00 0.02 0.09
0.00 0.00 0.00 0.01 0.01 0.00 0.00 0.00 0.00 0.00 0.00 0.00 0.00 0.00 0.00 0.00 0.00 0.00 0.00 0.01 0.04 0.09 0.01 0.07 0.46 0.12 0.25 0.15 0.01 0.00 0.00 0.00 0.00 0.01 0.01 0.01 0.02 0.03
0.00 0.00 0.00 0.00 0.00 0.00 0.00 0.00 0.00 0.00 0.00 0.00 0.00 0.00 0.00 0.00 0.00 0.00 0.00 0.00 0.00 0.00 0.00 0.00 0.14 0.14 0.25 0.22 0.10 0.02 0.00 0.00 0.00 0.00 0.04 0.05 0.07 0.06
0.00 0.00 0.00 0.00 0.00 0.00 0.00 0.00 0.00 0.00 0.00 0.00 0.00 0.00 0.00 0.00 0.00 0.00 0.02 0.01 0.04 0.00 0.00 0.00 0.00 0.11 0.24 0.09 0.11 0.09 0.00 0.02 0.01 0.02 0.04 0.04 0.04 0.07
0.01 0.00 0.00 0.00 0.00 0.00 0.00 0.00 0.00 0.00 0.00 0.00 0.02 0.03 0.01 0.01 0.01 0.00 0.02 0.06 0.09 0.02 0.00 0.00 0.00 0.00 0.03 0.06 0.19 0.04 0.00 0.00 0.01 0.05 0.13 0.13 0.03 0.06
0.00 0.00 0.00 0.00 0.00 0.00 0.00 0.00 0.00 0.00 0.01 0.02 0.02 0.02 0.04 0.02 0.03 0.02 0.02 0.06 0.07 0.02 0.01 0.00 0.01 0.05 0.02 0.00 0.07 0.14 0.12 0.01 0.01 0.06 0.12 0.32 0.12 0.00
0.00 0.00 0.00 0.00 0.00 0.00 0.00 0.00 0.01 0.00 0.01 0.04 0.04 0.03 0.06 0.07 0.03 0.02 0.02 0.04 0.03 0.01 0.00 0.01 0.07 0.22 0.28 0.05 0.00 0.02 0.42 0.29 0.08 0.05 0.05 0.16 0.19 0.08
0.00 0.00 0.00 0.00 0.00 0.00 0.01 0.01 0.02 0.01 0.02 0.02 0.05 0.07 0.10 0.13 0.06 0.05 0.04 0.08 0.11 0.08 0.05 0.00 0.03 0.23 0.55 0.40 0.28 0.02 0.03 0.34 0.49 0.32 0.08 0.07 0.06 0.04
0.00 0.00 0.00 0.00 0.00 0.01 0.02 0.02 0.03 0.04 0.07 0.10 0.06 0.06 0.08 0.17 0.09 0.03 0.04 0.04 0.08 0.09 0.08 0.01 0.00 0.05 0.13 0.16 0.12 0.01 0.00 0.01 0.22 0.62 0.56 0.44 0.10 0.03
0.00 0.00 0.00 0.00 0.01 0.03 0.03 0.03 0.04 0.02 0.04 0.05 0.06 0.08 0.10 0.13 0.16 0.11 0.07 0.11 0.05 0.05 0.08 0.03 0.00 0.02 0.08 0.25 0.14 0.03 0.00 0.00 0.00 0.01 0.16 0.65 0.89 0.83
0.00 0.00 0.00 0.00 0.01 0.03 0.04 0.04 0.03 0.03 0.05 0.08 0.07 0.09 0.11 0.14 0.09 0.09 0.07 0.06 0.10 0.16 0.09 0.06 0.01 0.01 0.02 0.12 0.17 0.12 0.04 0.01 0.01 0.02 0.01 0.07 0.20 0.38

GFSNE_prec_precacc24_048.txt.gz
Total_Precipitation_Accumulation
0.07 0.04 0.03 0.03 0.03 0.02 0.02 0.01 0.01 0.01 0.02 0.02 0.01 0.00 0.00 0.00 0.00 0.00 0.00 0.00 0.00 0.00 0.00 0.00 0.00 0.00 0.00 0.00 0.00 0.00 0.01 0.02 0.04 0.06 0.11 0.15 0.16 0.19
0.07 0.04 0.03 0.02 0.03 0.03 0.02 0.02 0.02 0.03 0.04 0.03 0.03 0.03 0.02 0.02 0.03 0.03 0.01 0.00 0.00 0.00 0.00 0.00 0.00 0.00 0.00 0.00 0.00 0.00 0.01 0.02 0.03 0.07 0.15 0.21 0.24 0.26
0.06 0.06 0.07 0.08 0.09 0.09 0.07 0.06 0.08 0.10 0.13 0.11 0.10 0.11 0.10 0.07 0.05 0.03 0.01 0.00 0.00 0.00 0.00 0.00 0.00 0.00 0.00 0.00 0.00 0.00 0.01 0.01 0.03 0.05 0.09 0.16 0.23 0.28
0.12 0.14 0.16 0.16 0.15 0.15 0.15 0.16 0.19 0.21 0.20 0.15 0.12 0.12 0.10 0.06 0.03 0.01 0.00 0.00 0.00 0.00 0.00 0.00 0.00 0.00 0.00 0.00 0.01 0.00 0.01 0.02 0.03 0.05 0.07 0.08 0.09 0.11
0.08 0.10 0.14 0.18 0.26 0.31 0.32 0.30 0.30 0.25 0.16 0.10 0.06 0.04 0.02 0.01 0.00 0.00 0.00 0.00 0.00 0.00 0.00 0.00 0.00 0.00 0.00 0.00 0.01 0.00 0.01 0.01 0.01 0.01 0.01 0.01 0.02 0.03
0.15 0.20 0.27 0.35 0.39 0.39 0.35 0.31 0.22 0.12 0.07 0.04 0.02 0.01 0.01 0.01 0.00 0.00 0.00 0.00 0.00 0.00 0.00 0.00 0.00 0.00 0.00 0.00 0.00 0.00 0.00 0.00 0.00 0.01 0.02 0.02 0.03 0.04
0.46 0.47 0.43 0.38 0.31 0.24 0.18 0.12 0.08 0.06 0.04 0.03 0.02 0.02 0.02 0.01 0.00 0.00 0.00 0.00 0.00 0.00 0.00 0.00 0.00 0.00 0.00 0.00 0.00 0.00 0.00 0.00 0.01 0.01 0.02 0.04 0.05 0.07
0.32 0.26 0.21 0.19 0.13 0.10 0.06 0.03 0.02 0.01 0.02 0.03 0.04 0.04 0.01 0.00 0.00 0.00 0.00 0.02 0.03 0.00 0.00 0.00 0.00 0.00 0.00 0.00 0.00 0.00 0.00 0.00 0.01 0.02 0.02 0.03 0.05 0.07
0.21 0.18 0.14 0.09 0.05 0.03 0.01 0.00 0.00 0.01 0.02 0.03 0.01 0.00 0.00 0.00 0.00 0.02 0.04 0.08 0.05 0.00 0.00 0.00 0.00 0.00 0.00 0.00 0.00 0.00 0.00 0.00 0.00 0.01 0.02 0.02 0.03 0.05
0.09 0.06 0.03 0.01 0.00 0.00 0.00 0.00 0.01 0.00 0.00 0.00 0.00 0.00 0.00 0.00 0.03 0.17 0.15 0.04 0.00 0.00 0.00 0.01 0.00 0.00 0.00 0.00 0.00 0.00 0.00 0.00 0.00 0.00 0.02 0.02 0.02 0.04
0.03 0.01 0.00 0.00 0.00 0.00 0.01 0.01 0.00 0.00 0.00 0.00 0.00 0.00 0.01 0.01 0.00 0.00 0.00 0.02 0.02 0.00 0.00 0.00 0.00 0.00 0.00 0.00 0.00 0.00 0.00 0.00 0.00 0.00 0.00 0.01 0.02 0.03
0.00 0.00 0.00 0.00 0.00 0.00 0.02 0.01 0.00 0.00 0.00 0.00 0.00 0.00 0.00 0.00 0.00 0.00 0.01 0.10 0.07 0.08 0.00 0.05 0.03 0.03 0.09 0.00 0.00 0.00 0.00 0.00 0.00 0.00 0.00 0.00 0.01 0.03
0.00 0.00 0.00 0.00 0.01 0.02 0.01 0.00 0.00 0.00 0.00 0.00 0.00 0.00 0.00 0.00 0.00 0.00 0.00 0.08 0.19 0.13 0.00 0.18 0.26 0.04 0.15 0.04 0.00 0.00 0.00 0.00 0.00 0.00 0.00 0.00 0.00 0.05
0.00 0.00 0.00 0.01 0.01 0.00 0.00 0.00 0.00 0.00 0.00 0.00 0.00 0.00 0.00 0.00 0.00 0.00 0.00 0.00 0.02 0.06 0.01 0.06 0.42 0.10 0.23 0.14 0.01 0.00 0.00 0.00 0.00 0.00 0.00 0.00 0.01 0.02
0.00 0.00 0.00 0.00 0.00 0.00 0.00 0.00 0.00 0.00 0.00 0.00 0.00 0.00 0.00 0.00 0.00 0.00 0.00 0.00 0.00 0.00 0.00 0.00 0.12 0.12 0.22 0.20 0.09 0.02 0.00 0.00 0.00 0.00 0.01 0.01 0.02 0.03
0.00 0.00 0.00 0.00 0.00 0.00 0.00 0.00 0.00 0.00 0.00 0.00 0.00 0.00 0.00 0.00 0.00 0.00 0.02 0.01 0.04 0.00 0.00 0.00 0.00 0.09 0.21 0.09 0.11 0.09 0.00 0.01 0.00 0.01 0.01 0.01 0.00 0.02
0.01 0.00 0.00 0.00 0.00 0.00 0.00 0.00 0.00 0.00 0.00 0.00 0.02 0.02 0.01 0.01 0.00 0.00 0.01 0.05 0.09 0.02 0.00 0.00 0.00 0.00 0.03 0.07 0.20 0.04 0.00 0.00 0.00 0.01 0.05 0.09 0.00 0.01
0.00 0.00 0.00 0.00 0.00 0.00 0.00 0.00 0.00 0.00 0.00 0.02 0.02 0.02 0.04 0.02 0.02 0.01 0.02 0.05 0.06 0.02 0.01 0.00 0.01 0.05 0.02 0.00 0.07 0.14 0.12 0.01 0.00 0.01 0.05 0.25 0.11 0.00
0.00 0.00 0.00 0.00 0.00 0.00 0.00 0.00 0.00 0.00 0.01 0.03 0.03 0.02 0.05 0.06 0.02 0.02 0.02 0.03 0.03 0.01 0.00 0.00 0.07 0.22 0.29 0.05 0.00 0.02 0.40 0.27 0.06 0.04 0.01 0.05 0.11 0.03
0.00 0.00 0.00 0.00 0.00 0.00 0.01 0.01 0.01 0.01 0.02 0.02 0.04 0.06 0.08 0.11 0.05 0.04 0.04 0.07 0.10 0.08 0.05 0.00 0.03 0.20 0.53 0.38 0.28 0.02 0.02 0.27 0.44 0.30 0.04 0.02 0.02 0.01
0.00 0.00 0.00 0.00 0.00 0.01 0.01 0.02 0.02 0.03 0.06 0.08 0.04 0.05 0.07 0.15 0.09 0.03 0.04 0.03 0.07 0.08 0.07 0.01 0.00 0.04 0.13 0.17 0.14 0.01 0.00 0.01 0.20 0.59 0.52 0.43 0.09 0.02
0.00 0.00 0.00 0.00 0.01 0.02 0.03 0.03 0.03 0.01 0.03 0.04 0.05 0.07 0.08 0.11 0.13 0.10 0.06 0.09 0.05 0.04 0.07 0.03 0.00 0.03 0.09 0.27 0.16 0.03 0.00 0.00 0.00 0.01 0.16 0.64 0.83 0.75
0.00 0.00 0.00 0.00 0.01 0.02 0.04 0.03 0.03 0.02 0.04 0.06 0.06 0.07 0.09 0.12 0.07 0.07 0.06 0.05 0.09 0.15 0.09 0.07 0.02 0.02 0.04 0.13 0.17 0.13 0.04 0.01 0.01 0.01 0.01 0.04 0.11 0.23

GFSNE_prec_precacc24_051.txt.gz
Total_Precipitation_Accumulation
0.12 0.10 0.08 0.07 0.07 0.06 0.06 0.07 0.08 0.04 0.03 0.03 0.02 0.00 0.00 0.00 0.00 0.00 0.00 0.00 0.00 0.00 0.00 0.00 0.00 0.00 0.00 0.00 0.00 0.00 0.01 0.01 0.04 0.05 0.09 0.14 0.15 0.17
0.11 0.09 0.07 0.06 0.06 0.05 0.05 0.06 0.08 0.10 0.14 0.12 0.10 0.05 0.03 0.04 0.05 0.06 0.02 0.02 0.00 0.00 0.00 0.00 0.00 0.00 0.00 0.00 0.00 0.00 0.01 0.02 0.03 0.05 0.11 0.18 0.21 0.24
0.10 0.10 0.10 0.11 0.12 0.12 0.13 0.15 0.16 0.18 0.22 0.16 0.16 0.17 0.18 0.16 0.14 0.10 0.04 0.01 0.00 0.00 0.00 0.00 0.00 0.00 0.00 0.00 0.00 0.00 0.00 0.01 0.02 0.04 0.06 0.13 0.19 0.23
0.15 0.16 0.16 0.17 0.16 0.16 0.19 0.23 0.31 0.36 0.38 0.37 0.32 0.29 0.22 0.18 0.11 0.03 0.00 0.00 0.00 0.00 0.00 0.00 0.00 0.00 0.00 0.00 0.01 0.00 0.01 0.02 0.03 0.04 0.05 0.06 0.07 0.08
0.09 0.12 0.15 0.19 0.27 0.33 0.36 0.39 0.42 0.39 0.32 0.26 0.20 0.15 0.10 0.05 0.01 0.00 0.00 0.00 0.00 0.00 0.00 0.00 0.00 0.00 0.00 0.00 0.01 0.00 0.00 0.00 0.01 0.00 0.00 0.01 0.01 0.02
0.16 0.21 0.28 0.36 0.41 0.42 0.39 0.35 0.27 0.18 0.12 0.08 0.04 0.02 0.01 0.01 0.00 0.00 0.00 0.00 0.00 0.00 0.00 0.00 0.00 0.00 0.00 0.00 0.00 0.00 0.00 0.00 0.00 0.01 0.02 0.02 0.03 0.04
0.47 0.47 0.44 0.41 0.36 0.29 0.21 0.15 0.11 0.09 0.06 0.04 0.01 0.00 0.01 0.01 0.00 0.00 0.00 0.00 0.00 0.00 0.00 0.00 0.00 0.00 0.00 0.00 0.00 0.00 0.00 0.00 0.01 0.01 0.02 0.03 0.04 0.06
0.32 0.28 0.25 0.25 0.19 0.15 0.11 0.07 0.04 0.01 0.01 0.00 0.02 0.02 0.01 0.00 0.00 0.00 0.00 0.00 0.02 0.00 0.00 0.00 0.00 0.00 0.00 0.00 0.00 0.00 0.00 0.00 0.01 0.01 0.02 0.03 0.04 0.06
0.24 0.22 0.16 0.11 0.06 0.04 0.01 0.00 0.00 0.00 0.01 0.01 0.01 0.00 0.00 0.00 0.00 0.01 0.03 0.07 0.05 0.00 0.00 0.00 0.00 0.00 0.00 0.00 0.00 0.00 0.00 0.00 0.00 0.01 0.02 0.02 0.03 0.04
0.10 0.06 0.03 0.01 0.00 0.00 0.00 0.00 0.00 0.00 0.00 0.00 0.00 0.00 0.00 0.00 0.02 0.15 0.15 0.04 0.00 0.00 0.00 0.00 0.00 0.00 0.00 0.00 0.00 0.00 0.00 0.00 0.00 0.00 0.01 0.01 0.01 0.02
0.03 0.01 0.00 0.00 0.00 0.00 0.00 0.00 0.00 0.00 0.00 0.00 0.00 0.00 0.01 0.01 0.00 0.00 0.00 0.01 0.02 0.00 0.00 0.00 0.00 0.00 0.00 0.00 0.00 0.00 0.00 0.00 0.00 0.00 0.00 0.00 0.01 0.02
0.00 0.00 0.00 0.00 0.00 0.00 0.01 0.01 0.00 0.00 0.00 0.00 0.00 0.00 0.00 0.00 0.00 0.00 0.00 0.06 0.06 0.07 0.00 0.04 0.02 0.02 0.08 0.00 0.00 0.00 0.00 0.00 0.00 0.00 0.00 0.00 0.00 0.00
0.00 0.00 0.00 0.00 0.01 0.01 0.01 0.00 0.00 0.00 0.00 0.00 0.00 0.00 0.00 0.00 0.00 0.00 0.00 0.04 0.14 0.11 0.00 0.17 0.23 0.03 0.14 0.04 0.00 0.00 0.00 0.00 0.00 0.00 0.00 0.00 0.00 0.01
0.00 0.00 0.00 0.01 0.01 0.00 0.00 0.00 0.00 0.00 0.00 0.00 0.00 0.00 0.00 0.00 0.00 0.00 0.00 0.00 0.01 0.05 0.00 0.06 0.37 0.08 0.20 0.13 0.01 0.00 0.00 0.00 0.00 0.00 0.00 0.00 0.00 0.00
0.00 0.00 0.00 0.00 0.00 0.00 0.00 0.00 0.00 0.00 0.00 0.00 0.00 0.00 0.00 0.00 0.00 0.00 0.00 0.00 0.00 0.00 0.00 0.00 0.11 0.10 0.20 0.18 0.08 0.02 0.00 0.00 0.00 0.00 0.00 0.00 0.00 0.00
0.00 0.00 0.00 0.00 0.00 0.00 0.00 0.00 0.00 0.00 0.00 0.00 0.00 0.00 0.00 0.00 0.00 0.00 0.01 0.01 0.03 0.00 0.00 0.00 0.00 0.08 0.18 0.08 0.11 0.09 0.00 0.02 0.00 0.00 0.00 0.00 0.00 0.00
0.01 0.00 0.00 0.00 0.00 0.00 0.00 0.00 0.00 0.00 0.00 0.00 0.01 0.02 0.01 0.00 0.00 0.00 0.01 0.05 0.08 0.02 0.00 0.00 0.00 0.01 0.03 0.06 0.18 0.04 0.00 0.00 0.00 0.00 0.03 0.07 0.00 0.00
0.00 0.00 0.00 0.00 0.00 0.00 0.00 0.00 0.00 0.00 0.00 0.01 0.02 0.02 0.03 0.02 0.02 0.01 0.02 0.05 0.05 0.02 0.01 0.00 0.00 0.05 0.02 0.00 0.07 0.14 0.12 0.01 0.00 0.01 0.04 0.20 0.09 0.00
0.00 0.00 0.00 0.00 0.00 0.00 0.00 0.00 0.00 0.00 0.00 0.03 0.03 0.02 0.04 0.05 0.03 0.02 0.02 0.04 0.03 0.01 0.00 0.00 0.06 0.21 0.28 0.06 0.00 0.02 0.38 0.26 0.05 0.04 0.01 0.03 0.06 0.01
0.00 0.00 0.00 0.00 0.00 0.00 0.00 0.01 0.01 0.01 0.02 0.02 0.04 0.05 0.07 0.10 0.05 0.04 0.03 0.07 0.10 0.07 0.04 0.00 0.03 0.18 0.49 0.36 0.28 0.02 0.02 0.24 0.38 0.26 0.03 0.02 0.02 0.00
0.00 0.00 0.00 0.00 0.00 0.00 0.01 0.02 0.02 0.03 0.05 0.06 0.03 0.04 0.05 0.13 0.08 0.03 0.04 0.03 0.06 0.07 0.06 0.01 0.00 0.04 0.11 0.17 0.15 0.01 0.00 0.01 0.18 0.53 0.48 0.41 0.08 0.02
0.00 0.00 0.00 0.00 0.01 0.01 0.02 0.02 0.03 0.01 0.02 0.03 0.04 0.05 0.07 0.09 0.11 0.09 0.06 0.08 0.04 0.03 0.06 0.02 0.00 0.03 0.11 0.28 0.16 0.03 0.00 0.00 0.00 0.01 0.15 0.59 0.77 0.67
0.00 0.00 0.00 0.00 0.01 0.01 0.03 0.02 0.02 0.02 0.03 0.05 0.05 0.05 0.07 0.09 0.05 0.07 0.05 0.04 0.08 0.13 0.08 0.07 0.02 0.03 0.05 0.14 0.17 0.13 0.04 0.01 0.01 0.01 0.01 0.03 0.07 0.14

GFSNE_prec_precacc24_057.txt.gz
Total_Precipitation_Accumulation
0.30 0.32 0.35 0.25 0.21 0.20 0.18 0.18 0.23 0.29 0.26 0.25 0.25 0.24 0.22 0.23 0.24 0.20 0.22 0.22 0.18 0.18 0.15 0.10 0.05 0.01 0.00 0.00 0.00 0.00 0.00 0.01 0.01 0.02 0.03 0.04 0.07 0.10
0.23 0.25 0.25 0.22 0.24 0.25 0.22 0.21 0.21 0.31 0.42 0.37 0.36 0.38 0.40 0.41 0.41 0.37 0.29 0.26 0.19 0.11 0.05 0.03 0.02 0.01 0.01 0.00 0.00 0.00 0.00 0.01 0.01 0.02 0.05 0.08 0.10 0.14
0.18 0.20 0.22 0.24 0.26 0.29 0.35 0.42 0.53 0.64 0.64 0.60 0.58 0.58 0.58 0.54 0.43 0.29 0.15 0.08 0.04 0.03 0.01 0.01 0.00 0.00 0.00 0.00 0.00 0.00 0.00 0.00 0.01 0.02 0.04 0.07 0.10 0.15
0.18 0.22 0.23 0.22 0.23 0.27 0.36 0.49 0.66 0.83 0.96 0.96 0.81 0.61 0.47 0.33 0.18 0.08 0.03 0.01 0.00 0.00 0.00 0.00 0.00 0.00 0.00 0.00 0.00 0.00 0.01 0.01 0.02 0.02 0.03 0.04 0.05 0.06
0.13 0.17 0.20 0.23 0.30 0.35 0.39 0.42 0.45 0.42 0.37 0.30 0.23 0.17 0.12 0.06 0.02 0.00 0.00 0.00 0.00 0.00 0.00 0.00 0.00 0.00 0.00 0.00 0.01 0.00 0.00 0.00 0.00 0.00 0.00 0.00 0.01 0.01
0.17 0.22 0.29 0.37 0.42 0.43 0.41 0.36 0.28 0.19 0.15 0.11 0.07 0.05 0.03 0.01 0.00 0.00 0.00 0.00 0.00 0.00 0.00 0.00 0.00 0.00 0.00 0.00 0.00 0.00 0.00 0.00 0.00 0.01 0.01 0.01 0.02 0.02
0.48 0.48 0.45 0.43 0.37 0.30 0.23 0.17 0.12 0.10 0.08 0.05 0.02 0.00 0.00 0.00 0.00 0.00 0.00 0.00 0.00 0.00 0.00 0.00 0.00 0.00 0.00 0.00 0.00 0.00 0.00 0.00 0.00 0.01 0.02 0.02 0.03 0.05
0.35 0.31 0.30 0.32 0.24 0.19 0.14 0.09 0.05 0.03 0.01 0.00 0.00 0.00 0.00 0.00 0.00 0.00 0.00 0.00 0.01 0.00 0.00 0.00 0.00 0.00 0.00 0.00 0.00 0.00 0.00 0.00 0.00 0.01 0.02 0.02 0.03 0.05
0.33 0.29 0.22 0.14 0.09 0.06 0.03 0.00 0.00 0.00 0.00 0.00 0.00 0.00 0.00 0.00 0.00 0.00 0.01 0.04 0.03 0.00 0.00 0.00 0.00 0.00 0.00 0.00 0.00 0.00 0.00 0.00 0.00 0.01 0.01 0.01 0.02 0.03
0.24 0.12 0.05 0.01 0.00 0.00 0.00 0.00 0.00 0.00 0.00 0.00 0.00 0.00 0.00 0.00 0.02 0.08 0.09 0.02 0.00 0.00 0.00 0.00 0.00 0.00 0.00 0.00 0.00 0.00 0.00 0.00 0.00 0.00 0.01 0.01 0.01 0.02
0.03 0.01 0.00 0.00 0.00 0.00 0.00 0.00 0.00 0.00 0.00 0.00 0.00 0.00 0.00 0.00 0.00 0.00 0.00 0.01 0.01 0.00 0.00 0.00 0.00 0.00 0.00 0.00 0.00 0.00 0.00 0.00 0.00 0.00 0.00 0.00 0.01 0.01
0.00 0.00 0.00 0.00 0.00 0.00 0.00 0.00 0.00 0.00 0.00 0.00 0.00 0.00 0.00 0.00 0.00 0.00 0.00 0.02 0.03 0.05 0.00 0.01 0.01 0.01 0.05 0.00 0.00 0.00 0.00 0.00 0.00 0.00 0.00 0.00 0.00 0.00
0.00 0.00 0.00 0.00 0.01 0.01 0.00 0.00 0.00 0.00 0.00 0.00 0.00 0.00 0.00 0.00 0.00 0.00 0.00 0.01 0.06 0.07 0.00 0.12 0.14 0.02 0.09 0.02 0.00 0.00 0.00 0.00 0.00 0.00 0.00 0.00 0.00 0.01
0.00 0.00 0.00 0.01 0.00 0.00 0.00 0.00 0.00 0.00 0.00 0.00 0.00 0.00 0.00 0.00 0.00 0.00 0.00 0.00 0.01 0.03 0.00 0.05 0.26 0.04 0.14 0.10 0.01 0.00 0.00 0.00 0.00 0.00 0.00 0.00 0.00 0.00
0.00 0.00 0.00 0.00 0.00 0.00 0.00 0.00 0.00 0.00 0.00 0.00 0.00 0.00 0.00 0.00 0.00 0.00 0.00 0.00 0.00 0.00 0.00 0.00 0.08 0.06 0.16 0.15 0.07 0.01 0.00 0.00 0.00 0.00 0.00 0.00 0.00 0.00
0.00 0.00 0.00 0.00 0.00 0.00 0.00 0.00 0.00 0.00 0.00 0.00 0.00 0.00 0.00 0.00 0.00 0.00 0.01 0.01 0.02 0.00 0.00 0.00 0.00 0.06 0.14 0.07 0.10 0.08 0.00 0.01 0.00 0.00 0.00 0.00 0.00 0.00
0.01 0.00 0.00 0.00 0.00 0.00 0.00 0.00 0.00 0.00 0.00 0.00 0.00 0.00 0.00 0.00 0.00 0.00 0.01 0.03 0.05 0.01 0.00 0.00 0.00 0.01 0.03 0.06 0.14 0.03 0.00 0.00 0.00 0.00 0.02 0.04 0.00 0.00
0.00 0.00 0.00 0.00 0.00 0.00 0.00 0.00 0.00 0.00 0.00 0.00 0.01 0.01 0.02 0.01 0.02 0.01 0.01 0.04 0.04 0.01 0.01 0.00 0.01 0.04 0.02 0.00 0.04 0.08 0.08 0.01 0.00 0.01 0.03 0.15 0.06 0.00
0.00 0.00 0.00 0.00 0.00 0.00 0.00 0.00 0.00 0.00 0.00 0.01 0.02 0.02 0.03 0.03 0.02 0.02 0.01 0.03 0.03 0.01 0.00 0.00 0.05 0.16 0.23 0.06 0.00 0.02 0.28 0.21 0.04 0.03 0.01 0.01 0.03 0.00
0.00 0.00 0.00 0.00 0.00 0.00 0.00 0.01 0.01 0.01 0.01 0.01 0.02 0.03 0.04 0.07 0.04 0.03 0.03 0.05 0.07 0.05 0.03 0.00 0.02 0.11 0.35 0.26 0.24 0.03 0.01 0.19 0.27 0.19 0.03 0.02 0.01 0.00
0.00 0.00 0.00 0.00 0.00 0.00 0.01 0.01 0.01 0.01 0.03 0.03 0.02 0.03 0.03 0.09 0.06 0.03 0.03 0.03 0.05 0.07 0.06 0.01 0.00 0.01 0.07 0.16 0.15 0.01 0.00 0.01 0.15 0.42 0.37 0.31 0.06 0.01
0.00 0.00 0.00 0.00 0.00 0.01 0.01 0.01 0.01 0.01 0.01 0.01 0.02 0.03 0.04 0.07 0.07 0.05 0.04 0.06 0.03 0.02 0.04 0.01 0.00 0.02 0.09 0.26 0.14 0.03 0.00 0.00 0.00 0.01 0.13 0.45 0.52 0.44
0.00 0.00 0.00 0.00 0.01 0.01 0.01 0.01 0.02 0.01 0.01 0.02 0.02 0.03 0.04 0.06 0.03 0.04 0.04 0.04 0.06 0.08 0.05 0.05 0.02 0.03 0.05 0.12 0.14 0.11 0.04 0.01 0.00 0.01 0.00 0.01 0.01 0.03

GFSNE_prec_precacc24_060.txt.gz
Total_Precipitation_Accumulation
0.30 0.32 0.36 0.26 0.24 0.24 0.27 0.38 0.54 0.64 0.51 0.44 0.42 0.35 0.27 0.28 0.29 0.28 0.34 0.41 0.41 0.40 0.36 0.32 0.29 0.23 0.16 0.09 0.05 0.03 0.01 0.00 0.00 0.00 0.01 0.02 0.03 0.05
0.23 0.25 0.26 0.23 0.25 0.28 0.29 0.41 0.57 0.72 0.79 0.60 0.53 0.50 0.49 0.49 0.51 0.48 0.44 0.46 0.38 0.27 0.18 0.15 0.12 0.06 0.03 0.02 0.02 0.01 0.00 0.00 0.00 0.01 0.02 0.03 0.05 0.09
0.18 0.20 0.23 0.24 0.27 0.30 0.38 0.47 0.60 0.73 0.87 0.85 0.81 0.78 0.75 0.70 0.64 0.49 0.35 0.20 0.10 0.07 0.04 0.03 0.03 0.03 0.02 0.01 0.00 0.00 0.00 0.00 0.00 0.01 0.03 0.04 0.06 0.10
0.19 0.23 0.24 0.23 0.24 0.28 0.37 0.49 0.67 0.85 1.01 1.06 1.03 0.94 0.77 0.57 0.37 0.18 0.07 0.02 0.00 0.02 0.03 0.02 0.02 0.01 0.00 0.00 0.00 0.00 0.00 0.01 0.01 0.02 0.03 0.04 0.05 0.05
0.14 0.17 0.21 0.24 0.31 0.36 0.39 0.42 0.45 0.43 0.38 0.32 0.26 0.21 0.17 0.12 0.05 0.02 0.01 0.00 0.00 0.01 0.01 0.00 0.00 0.00 0.00 0.00 0.01 0.00 0.00 0.00 0.01 0.00 0.00 0.00 0.00 0.00
0.16 0.22 0.29 0.37 0.42 0.43 0.41 0.36 0.28 0.20 0.15 0.11 0.08 0.06 0.04 0.02 0.01 0.00 0.00 0.00 0.00 0.00 0.00 0.00 0.00 0.00 0.00 0.00 0.00 0.00 0.00 0.00 0.00 0.01 0.01 0.01 0.01 0.01
0.46 0.48 0.46 0.43 0.38 0.30 0.23 0.17 0.12 0.11 0.08 0.05 0.02 0.01 0.01 0.00 0.00 0.00 0.00 0.00 0.00 0.00 0.00 0.00 0.00 0.00 0.00 0.00 0.00 0.00 0.00 0.00 0.00 0.01 0.01 0.01 0.02 0.04
0.35 0.31 0.30 0.33 0.25 0.20 0.15 0.09 0.06 0.03 0.01 0.00 0.00 0.00 0.00 0.00 0.00 0.00 0.00 0.00 0.01 0.00 0.00 0.00 0.00 0.00 0.00 0.00 0.00 0.00 0.00 0.00 0.00 0.01 0.01 0.02 0.03 0.04
0.33 0.29 0.22 0.14 0.09 0.06 0.03 0.01 0.00 0.00 0.00 0.00 0.00 0.00 0.00 0.00 0.00 0.00 0.00 0.02 0.02 0.00 0.00 0.00 0.00 0.00 0.00 0.00 0.00 0.00 0.00 0.00 0.00 0.00 0.01 0.01 0.02 0.03
0.24 0.12 0.05 0.01 0.00 0.00 0.00 0.00 0.00 0.00 0.00 0.00 0.00 0.00 0.00 0.00 0.01 0.04 0.06 0.02 0.00 0.00 0.00 0.00 0.00 0.00 0.00 0.00 0.00 0.00 0.00 0.00 0.00 0.00 0.01 0.01 0.01 0.01
0.03 0.01 0.00 0.00 0.00 0.00 0.00 0.00 0.00 0.00 0.00 0.00 0.00 0.00 0.00 0.00 0.00 0.00 0.00 0.00 0.01 0.00 0.00 0.00 0.00 0.00 0.00 0.00 0.00 0.00 0.00 0.00 0.00 0.00 0.00 0.00 0.01 0.01
0.00 0.00 0.00 0.00 0.00 0.00 0.00 0.00 0.00 0.00 0.00 0.00 0.00 0.00 0.00 0.00 0.00 0.00 0.00 0.01 0.02 0.03 0.00 0.01 0.00 0.01 0.03 0.00 0.00 0.00 0.00 0.00 0.00 0.00 0.00 0.00 0.00 0.00
0.00 0.00 0.00 0.00 0.00 0.01 0.00 0.00 0.00 0.00 0.00 0.00 0.00 0.00 0.00 0.00 0.00 0.00 0.00 0.01 0.04 0.05 0.00 0.09 0.10 0.02 0.07 0.02 0.00 0.00 0.00 0.00 0.00 0.00 0.00 0.00 0.00 0.01
0.00 0.00 0.00 0.00 0.00 0.00 0.00 0.00 0.00 0.00 0.00 0.00 0.00 0.00 0.00 0.00 0.00 0.00 0.00 0.00 0.01 0.02 0.00 0.04 0.21 0.03 0.12 0.09 0.01 0.00 0.00 0.00 0.00 0.00 0.00 0.00 0.00 0.00
0.00 0.00 0.00 0.00 0.00 0.00 0.00 0.00 0.00 0.00 0.00 0.00 0.00 0.00 0.00 0.00 0.00 0.00 0.00 0.00 0.00 0.00 0.00 0.00 0.07 0.06 0.14 0.13 0.06 0.01 0.00 0.00 0.00 0.00 0.00 0.00 0.00 0.00
0.00 0.00 0.00 0.00 0.00 0.00 0.00 0.00 0.00 0.00 0.00 0.00 0.00 0.00 0.00 0.00 0.00 0.00 0.00 0.00 0.01 0.00 0.00 0.00 0.00 0.06 0.13 0.06 0.09 0.07 0.00 0.01 0.00 0.00 0.00 0.00 0.00 0.00
0.00 0.00 0.00 0.00 0.00 0.00 0.00 0.00 0.00 0.00 0.00 0.00 0.00 0.00 0.00 0.00 0.00 0.00 0.01 0.02 0.04 0.01 0.00 0.00 0.00 0.01 0.04 0.06 0.14 0.03 0.00 0.00 0.00 0.00 0.02 0.03 0.00 0.00
0.00 0.00 0.00 0.00 0.00 0.00 0.00 0.00 0.00 0.00 0.00 0.00 0.01 0.01 0.01 0.01 0.01 0.01 0.01 0.03 0.04 0.01 0.01 0.00 0.01 0.03 0.02 0.00 0.03 0.06 0.06 0.01 0.00 0.01 0.03 0.13 0.05 0.00
0.00 0.00 0.00 0.00 0.00 0.00 0.00 0.00 0.00 0.00 0.00 0.01 0.01 0.01 0.03 0.03 0.02 0.02 0.01 0.02 0.02 0.01 0.01 0.00 0.04 0.14 0.21 0.06 0.00 0.02 0.21 0.16 0.04 0.03 0.01 0.01 0.02 0.00
0.00 0.00 0.00 0.00 0.00 0.00 0.00 0.01 0.01 0.01 0.01 0.01 0.01 0.02 0.04 0.06 0.04 0.03 0.02 0.05 0.05 0.04 0.03 0.00 0.02 0.09 0.29 0.21 0.19 0.02 0.01 0.15 0.21 0.14 0.02 0.01 0.01 0.00
0.00 0.00 0.00 0.00 0.00 0.00 0.01 0.01 0.01 0.01 0.02 0.03 0.02 0.02 0.03 0.07 0.05 0.02 0.03 0.03 0.05 0.06 0.06 0.01 0.00 0.01 0.05 0.15 0.15 0.01 0.00 0.01 0.13 0.33 0.28 0.24 0.05 0.01
0.00 0.00 0.00 0.00 0.00 0.01 0.01 0.01 0.01 0.01 0.01 0.01 0.01 0.02 0.03 0.05 0.06 0.04 0.03 0.05 0.03 0.02 0.03 0.01 0.00 0.02 0.09 0.23 0.13 0.02 0.00 0.00 0.00 0.01 0.09 0.33 0.37 0.31
0.00 0.00 0.00 0.00 0.00 0.01 0.01 0.01 0.01 0.01 0.01 0.01 0.02 0.02 0.03 0.05 0.03 0.04 0.04 0.04 0.06 0.07 0.04 0.05 0.02 0.03 0.06 0.12 0.14 0.10 0.03 0.00 0.00 0.00 0.00 0.00 0.01 0.02

GFSNE_prec_precacc24_066.txt.gz
Total_Precipitation_Accumulation
0.30 0.31 0.35 0.25 0.25 0.25 0.28 0.39 0.59 0.70 0.54 0.46 0.48 0.48 0.46 0.46 0.50 0.53 0.58 0.74 0.81 0.80 0.78 0.76 0.71 0.58 0.43 0.32 0.23 0.17 0.16 0.14 0.12 0.11 0.11 0.11 0.09 0.08
0.22 0.25 0.25 0.22 0.24 0.28 0.30 0.43 0.59 0.76 0.81 0.61 0.54 0.55 0.60 0.66 0.73 0.68 0.67 0.78 0.78 0.79 0.70 0.60 0.49 0.33 0.21 0.14 0.08 0.06 0.06 0.06 0.06 0.06 0.05 0.05 0.05 0.05
0.15 0.17 0.19 0.21 0.24 0.28 0.36 0.46 0.60 0.74 0.88 0.86 0.81 0.79 0.80 0.80 0.73 0.57 0.50 0.39 0.35 0.37 0.31 0.22 0.15 0.11 0.09 0.08 0.07 0.06 0.04 0.02 0.01 0.01 0.01 0.02 0.03 0.05
0.09 0.11 0.13 0.12 0.16 0.22 0.33 0.47 0.65 0.84 1.01 1.06 1.03 0.94 0.79 0.61 0.43 0.26 0.16 0.09 0.06 0.11 0.09 0.07 0.07 0.07 0.04 0.04 0.03 0.02 0.00 0.00 0.00 0.01 0.02 0.02 0.03 0.04
0.09 0.13 0.16 0.19 0.24 0.27 0.31 0.37 0.43 0.43 0.38 0.32 0.26 0.22 0.20 0.16 0.09 0.05 0.03 0.02 0.02 0.05 0.05 0.03 0.03 0.02 0.01 0.00 0.00 0.00 0.00 0.00 0.00 0.00 0.00 0.00 0.00 0.00
0.10 0.15 0.18 0.22 0.27 0.30 0.34 0.33 0.27 0.20 0.15 0.11 0.08 0.06 0.04 0.02 0.01 0.01 0.02 0.01 0.01 0.00 0.01 0.00 0.00 0.00 0.00 0.00 0.00 0.00 0.00 0.00 0.00 0.00 0.01 0.00 0.00 0.00
0.15 0.17 0.20 0.27 0.29 0.26 0.21 0.16 0.12 0.11 0.08 0.05 0.02 0.01 0.01 0.01 0.01 0.01 0.01 0.00 0.00 0.00 0.00 0.00 0.00 0.00 0.00 0.00 0.00 0.00 0.00 0.00 0.00 0.00 0.01 0.01 0.01 0.02
0.15 0.18 0.23 0.29 0.23 0.19 0.15 0.09 0.06 0.03 0.01 0.00 0.00 0.00 0.00 0.00 0.00 0.00 0.00 0.00 0.00 0.00 0.00 0.00 0.00 0.00 0.00 0.00 0.00 0.00 0.00 0.00 0.00 0.00 0.01 0.01 0.02 0.02
0.23 0.21 0.16 0.12 0.09 0.06 0.03 0.01 0.00 0.00 0.00 0.00 0.00 0.00 0.00 0.00 0.00 0.00 0.00 0.00 0.00 0.00 0.00 0.00 0.00 0.00 0.00 0.00 0.00 0.00 0.00 0.00 0.00 0.00 0.01 0.01 0.01 0.01
0.21 0.10 0.04 0.01 0.00 0.00 0.00 0.00 0.00 0.00 0.00 0.00 0.00 0.00 0.00 0.00 0.00 0.00 0.00 0.00 0.00 0.00 0.00 0.00 0.00 0.00 0.00 0.00 0.00 0.00 0.00 0.00 0.00 0.00 0.00 0.01 0.00 0.01
0.03 0.01 0.00 0.00 0.00 0.00 0.00 0.00 0.00 0.00 0.00 0.00 0.00 0.00 0.00 0.00 0.00 0.00 0.00 0.00 0.00 0.00 0.00 0.00 0.00 0.00 0.00 0.00 0.00 0.00 0.00 0.00 0.00 0.00 0.00 0.00 0.00 0.01
0.00 0.00 0.00 0.00 0.00 0.00 0.00 0.00 0.00 0.00 0.00 0.00 0.00 0.00 0.00 0.00 0.00 0.00 0.00 0.00 0.01 0.01 0.00 0.01 0.00 0.00 0.02 0.00 0.00 0.00 0.00 0.00 0.00 0.00 0.00 0.00 0.00 0.00
0.00 0.00 0.00 0.00 0.00 0.00 0.00 0.00 0.00 0.00 0.00 0.00 0.00 0.00 0.00 0.00 0.00 0.00 0.00 0.00 0.01 0.01 0.00 0.05 0.04 0.01 0.04 0.01 0.00 0.00 0.00 0.00 0.00 0.00 0.00 0.00 0.00 0.01
0.00 0.00 0.00 0.00 0.00 0.00 0.00 0.00 0.00 0.00 0.00 0.00 0.00 0.00 0.00 0.00 0.00 0.00 0.00 0.00 0.00 0.01 0.00 0.03 0.11 0.02 0.07 0.06 0.01 0.00 0.00 0.00 0.00 0.00 0.00 0.00 0.00 0.00
0.00 0.00 0.00 0.00 0.00 0.00 0.00 0.00 0.00 0.00 0.00 0.00 0.00 0.00 0.00 0.00 0.00 0.00 0.00 0.00 0.00 0.00 0.00 0.00 0.04 0.04 0.10 0.10 0.04 0.01 0.00 0.00 0.00 0.00 0.00 0.00 0.00 0.00
0.00 0.00 0.00 0.00 0.00 0.00 0.00 0.00 0.00 0.00 0.00 0.00 0.00 0.00 0.00 0.00 0.00 0.00 0.00 0.00 0.01 0.00 0.00 0.00 0.00 0.06 0.11 0.05 0.07 0.05 0.00 0.01 0.00 0.00 0.00 0.00 0.00 0.00
0.00 0.00 0.00 0.00 0.00 0.00 0.00 0.00 0.00 0.00 0.00 0.00 0.00 0.00 0.00 0.00 0.00 0.00 0.01 0.01 0.03 0.01 0.00 0.00 0.00 0.01 0.03 0.04 0.08 0.02 0.00 0.00 0.00 0.00 0.02 0.02 0.00 0.00
0.00 0.00 0.00 0.00 0.00 0.00 0.00 0.00 0.00 0.00 0.00 0.00 0.01 0.01 0.01 0.01 0.01 0.01 0.01 0.02 0.03 0.01 0.01 0.00 0.01 0.03 0.02 0.00 0.01 0.01 0.02 0.01 0.00 0.00 0.01 0.08 0.02 0.00
0.00 0.00 0.00 0.00 0.00 0.00 0.00 0.00 0.00 0.00 0.00 0.01 0.01 0.01 0.02 0.02 0.02 0.02 0.01 0.02 0.02 0.01 0.01 0.00 0.01 0.08 0.16 0.05 0.00 0.00 0.05 0.04 0.01 0.01 0.00 0.01 0.01 0.00
0.00 0.00 0.00 0.00 0.00 0.00 0.00 0.00 0.00 0.00 0.01 0.01 0.01 0.01 0.02 0.04 0.03 0.02 0.02 0.03 0.03 0.02 0.02 0.00 0.01 0.03 0.17 0.10 0.12 0.02 0.00 0.04 0.05 0.04 0.00 0.00 0.00 0.00
0.00 0.00 0.00 0.00 0.00 0.00 0.00 0.00 0.00 0.00 0.01 0.02 0.01 0.02 0.02 0.04 0.04 0.02 0.02 0.02 0.03 0.05 0.04 0.00 0.00 0.01 0.07 0.16 0.15 0.01 0.00 0.00 0.05 0.13 0.09 0.09 0.02 0.00
0.00 0.00 0.00 0.00 0.00 0.00 0.00 0.00 0.00 0.00 0.01 0.01 0.01 0.01 0.02 0.04 0.04 0.02 0.02 0.03 0.02 0.02 0.02 0.00 0.00 0.02 0.08 0.19 0.10 0.01 0.00 0.00 0.00 0.00 0.05 0.17 0.19 0.13
0.00 0.00 0.00 0.00 0.00 0.00 0.00 0.00 0.01 0.00 0.00 0.01 0.01 0.01 0.02 0.04 0.02 0.03 0.04 0.04 0.04 0.05 0.03 0.04 0.02 0.03 0.06 0.07 0.07 0.04 0.01 0.00 0.00 0.00 0.00 0.00 0.01 0.01

GFSNE_prec_precacc24_072.txt.gz
Total_Precipitation_Accumulation
0.23 0.28 0.34 0.24 0.22 0.23 0.26 0.38 0.58 0.69 0.53 0.44 0.47 0.48 0.46 0.46 0.50 0.53 0.58 0.74 0.82 0.82 0.84 0.93 1.03 1.09 0.86 0.86 0.77 0.58 0.52 0.34 0.25 0.28 0.24 0.21 0.18 0.18
0.16 0.21 0.23 0.20 0.22 0.25 0.28 0.41 0.58 0.73 0.78 0.58 0.51 0.52 0.58 0.63 0.70 0.65 0.67 0.79 0.79 0.81 0.76 0.69 0.67 0.57 0.42 0.40 0.39 0.31 0.21 0.16 0.13 0.16 0.18 0.18 0.16 0.12
0.12 0.15 0.15 0.16 0.19 0.22 0.31 0.42 0.53 0.64 0.75 0.75 0.72 0.69 0.71 0.73 0.68 0.55 0.49 0.39 0.36 0.39 0.36 0.30 0.23 0.23 0.21 0.20 0.18 0.16 0.12 0.09 0.08 0.07 0.06 0.05 0.05 0.04
0.07 0.08 0.09 0.07 0.10 0.14 0.23 0.34 0.48 0.64 0.81 0.91 0.92 0.83 0.70 0.55 0.40 0.25 0.16 0.09 0.06 0.12 0.10 0.08 0.08 0.09 0.07 0.06 0.05 0.04 0.02 0.02 0.01 0.02 0.02 0.02 0.02 0.01
0.06 0.07 0.07 0.06 0.06 0.05 0.07 0.13 0.15 0.18 0.23 0.22 0.20 0.18 0.18 0.15 0.08 0.05 0.03 0.02 0.02 0.05 0.05 0.03 0.03 0.02 0.01 0.01 0.00 0.00 0.00 0.00 0.00 0.00 0.00 0.00 0.00 0.00
0.02 0.03 0.02 0.03 0.04 0.04 0.05 0.05 0.06 0.08 0.08 0.07 0.07 0.06 0.03 0.02 0.01 0.01 0.02 0.01 0.01 0.00 0.01 0.00 0.00 0.00 0.00 0.00 0.00 0.00 0.00 0.00 0.00 0.00 0.00 0.00 0.00 0.00
0.02 0.02 0.03 0.06 0.07 0.06 0.05 0.04 0.04 0.05 0.04 0.03 0.01 0.01 0.01 0.01 0.01 0.01 0.01 0.00 0.00 0.00 0.00 0.00 0.00 0.00 0.00 0.00 0.00 0.00 0.00 0.00 0.00 0.00 0.00 0.00 0.00 0.01
0.03 0.05 0.09 0.14 0.12 0.11 0.09 0.06 0.04 0.02 0.01 0.00 0.00 0.00 0.00 0.00 0.00 0.00 0.00 0.00 0.00 0.00 0.00 0.00 0.00 0.00 0.00 0.00 0.00 0.00 0.00 0.00 0.00 0.00 0.00 0.00 0.01 0.00
0.12 0.11 0.08 0.05 0.04 0.03 0.02 0.00 0.00 0.00 0.00 0.00 0.00 0.00 0.00 0.00 0.00 0.00 0.00 0.00 0.00 0.00 0.00 0.00 0.00 0.00 0.00 0.00 0.00 0.00 0.00 0.00 0.00 0.00 0.00 0.01 0.01 0.00
0.15 0.06 0.02 0.00 0.00 0.00 0.00 0.00 0.00 0.00 0.00 0.00 0.00 0.00 0.00 0.00 0.00 0.00 0.00 0.00 0.00 0.00 0.00 0.00 0.00 0.00 0.00 0.00 0.00 0.00 0.00 0.00 0.00 0.00 0.00 0.00 0.00 0.00
0.00 0.00 0.00 0.00 0.00 0.00 0.00 0.00 0.00 0.00 0.00 0.00 0.00 0.00 0.00 0.00 0.00 0.00 0.00 0.00 0.00 0.00 0.00 0.00 0.00 0.00 0.00 0.00 0.00 0.00 0.00 0.00 0.00 0.00 0.00 0.00 0.00 0.00
0.00 0.00 0.00 0.00 0.00 0.00 0.00 0.00 0.00 0.00 0.00 0.00 0.00 0.00 0.00 0.00 0.00 0.00 0.00 0.00 0.00 0.00 0.00 0.00 0.00 0.00 0.01 0.00 0.00 0.00 0.00 0.00 0.00 0.00 0.00 0.00 0.00 0.00
0.00 0.00 0.00 0.00 0.00 0.00 0.00 0.00 0.00 0.00 0.00 0.00 0.00 0.00 0.00 0.00 0.00 0.00 0.00 0.00 0.00 0.00 0.00 0.01 0.01 0.01 0.02 0.00 0.00 0.00 0.00 0.00 0.00 0.00 0.00 0.00 0.00 0.00
0.00 0.00 0.00 0.00 0.00 0.00 0.00 0.00 0.00 0.00 0.00 0.00 0.00 0.00 0.00 0.00 0.00 0.00 0.00 0.00 0.00 0.00 0.00 0.01 0.06 0.02 0.04 0.04 0.01 0.00 0.00 0.00 0.00 0.00 0.00 0.00 0.00 0.00
0.00 0.00 0.00 0.00 0.00 0.00 0.00 0.00 0.00 0.00 0.00 0.00 0.00 0.00 0.00 0.00 0.00 0.00 0.00 0.00 0.00 0.00 0.00 0.00 0.03 0.04 0.08 0.08 0.04 0.00 0.00 0.00 0.00 0.00 0.00 0.00 0.00 0.00
0.00 0.00 0.00 0.00 0.00 0.00 0.00 0.00 0.00 0.00 0.00 0.00 0.00 0.00 0.00 0.00 0.00 0.00 0.00 0.00 0.01 0.00 0.00 0.00 0.00 0.04 0.09 0.05 0.06 0.04 0.00 0.01 0.00 0.00 0.00 0.00 0.00 0.00
0.00 0.00 0.00 0.00 0.00 0.00 0.00 0.00 0.00 0.00 0.00 0.00 0.00 0.00 0.00 0.00 0.00 0.00 0.01 0.01 0.03 0.01 0.00 0.00 0.00 0.00 0.03 0.03 0.06 0.01 0.00 0.00 0.00 0.00 0.01 0.02 0.00 0.00
0.00 0.00 0.00 0.00 0.00 0.00 0.00 0.00 0.00 0.00 0.00 0.00 0.00 0.01 0.01 0.01 0.01 0.01 0.01 0.02 0.03 0.01 0.00 0.00 0.00 0.02 0.01 0.00 0.00 0.01 0.01 0.01 0.00 0.00 0.00 0.04 0.01 0.00
0.00 0.00 0.00 0.00 0.00 0.00 0.00 0.00 0.00 0.00 0.00 0.00 0.01 0.01 0.01 0.01 0.01 0.01 0.01 0.02 0.02 0.01 0.00 0.00 0.01 0.05 0.10 0.04 0.00 0.00 0.00 0.00 0.00 0.00 0.00 0.01 0.00 0.00
0.00 0.00 0.00 0.00 0.00 0.00 0.00 0.00 0.00 0.00 0.00 0.00 0.01 0.01 0.01 0.02 0.03 0.02 0.01 0.02 0.02 0.01 0.01 0.00 0.01 0.03 0.12 0.07 0.08 0.01 0.00 0.00 0.00 0.00 0.00 0.00 0.00 0.00
0.00 0.00 0.00 0.00 0.00 0.00 0.00 0.00 0.00 0.00 0.01 0.01 0.01 0.01 0.01 0.02 0.03 0.01 0.01 0.02 0.02 0.04 0.03 0.00 0.00 0.01 0.08 0.16 0.14 0.01 0.00 0.00 0.00 0.01 0.01 0.03 0.02 0.00
0.00 0.00 0.00 0.00 0.00 0.00 0.00 0.00 0.00 0.00 0.00 0.00 0.00 0.01 0.01 0.02 0.03 0.02 0.01 0.03 0.02 0.02 0.02 0.00 0.00 0.01 0.07 0.15 0.07 0.00 0.00 0.00 0.00 0.00 0.00 0.03 0.06 0.06
0.00 0.00 0.00 0.00 0.00 0.00 0.00 0.00 0.00 0.00 0.00 0.00 0.00 0.01 0.01 0.03 0.02 0.04 0.04 0.04 0.04 0.04 0.02 0.02 0.01 0.02 0.05 0.05 0.05 0.03 0.00 0.00 0.00 0.00 0.00 0.00 0.00 0.00

GFSNE_prec_precacc24_075.txt.gz
Total_Precipitation_Accumulation
0.19 0.23 0.29 0.20 0.19 0.20 0.22 0.32 0.52 0.67 0.52 0.43 0.46 0.48 0.46 0.45 0.50 0.53 0.58 0.74 0.82 0.83 0.84 0.93 1.03 1.09 0.87 0.89 0.85 0.92 1.10 0.62 0.36 0.33 0.27 0.24 0.21 0.20
0.12 0.16 0.19 0.17 0.19 0.23 0.26 0.37 0.52 0.66 0.68 0.48 0.45 0.50 0.57 0.62 0.68 0.63 0.65 0.77 0.79 0.81 0.77 0.71 0.68 0.57 0.43 0.44 0.50 0.43 0.31 0.27 0.24 0.19 0.21 0.21 0.19 0.15
0.08 0.11 0.13 0.14 0.16 0.19 0.26 0.33 0.45 0.56 0.66 0.69 0.66 0.62 0.63 0.64 0.59 0.47 0.46 0.38 0.36 0.40 0.37 0.31 0.24 0.23 0.21 0.20 0.19 0.19 0.19 0.17 0.14 0.10 0.08 0.06 0.05 0.04
0.04 0.06 0.08 0.06 0.08 0.12 0.19 0.27 0.37 0.48 0.63 0.69 0.71 0.65 0.57 0.43 0.32 0.22 0.15 0.09 0.06 0.12 0.10 0.08 0.08 0.09 0.07 0.06 0.05 0.04 0.03 0.03 0.03 0.03 0.03 0.02 0.01 0.01
0.05 0.06 0.06 0.05 0.05 0.03 0.03 0.03 0.03 0.04 0.06 0.06 0.06 0.07 0.10 0.11 0.07 0.05 0.03 0.02 0.02 0.05 0.05 0.03 0.03 0.02 0.01 0.01 0.00 0.00 0.00 0.00 0.00 0.00 0.00 0.00 0.00 0.00
0.01 0.01 0.02 0.02 0.02 0.02 0.02 0.01 0.01 0.02 0.03 0.03 0.04 0.04 0.03 0.01 0.01 0.01 0.02 0.01 0.01 0.00 0.01 0.00 0.00 0.00 0.00 0.00 0.00 0.00 0.00 0.00 0.00 0.00 0.00 0.00 0.00 0.00
0.01 0.01 0.01 0.02 0.03 0.02 0.02 0.01 0.02 0.02 0.02 0.01 0.01 0.01 0.01 0.01 0.01 0.01 0.01 0.00 0.00 0.00 0.00 0.00 0.00 0.00 0.00 0.00 0.00 0.00 0.00 0.00 0.00 0.00 0.00 0.00 0.00 0.00
0.03 0.03 0.06 0.08 0.06 0.06 0.04 0.02 0.02 0.01 0.00 0.00 0.00 0.00 0.00 0.00 0.00 0.00 0.00 0.00 0.00 0.00 0.00 0.00 0.00 0.00 0.00 0.00 0.00 0.00 0.00 0.00 0.00 0.00 0.00 0.00 0.00 0.00
0.09 0.07 0.05 0.03 0.03 0.03 0.01 0.00 0.00 0.00 0.00 0.00 0.00 0.00 0.00 0.00 0.00 0.00 0.00 0.00 0.00 0.00 0.00 0.00 0.00 0.00 0.00 0.00 0.00 0.00 0.00 0.00 0.00 0.00 0.00 0.00 0.00 0.00
0.14 0.06 0.01 0.00 0.00 0.00 0.00 0.00 0.00 0.00 0.00 0.00 0.00 0.00 0.00 0.00 0.00 0.00 0.00 0.00 0.00 0.00 0.00 0.00 0.00 0.00 0.00 0.00 0.00 0.00 0.00 0.00 0.00 0.00 0.00 0.00 0.00 0.00
0.00 0.00 0.00 0.00 0.00 0.00 0.00 0.00 0.00 0.00 0.00 0.00 0.00 0.00 0.00 0.00 0.00 0.00 0.00 0.00 0.00 0.00 0.00 0.00 0.00 0.00 0.00 0.00 0.00 0.00 0.00 0.00 0.00 0.00 0.00 0.00 0.00 0.00
0.00 0.00 0.00 0.00 0.00 0.00 0.00 0.00 0.00 0.00 0.00 0.00 0.00 0.00 0.00 0.00 0.00 0.00 0.00 0.00 0.00 0.00 0.00 0.00 0.00 0.00 0.00 0.00 0.00 0.00 0.00 0.00 0.00 0.00 0.00 0.00 0.00 0.00
0.00 0.00 0.00 0.00 0.00 0.00 0.00 0.00 0.00 0.00 0.00 0.00 0.00 0.00 0.00 0.00 0.00 0.00 0.00 0.00 0.00 0.00 0.00 0.01 0.01 0.01 0.01 0.00 0.00 0.00 0.00 0.00 0.00 0.00 0.00 0.00 0.00 0.00
0.00 0.00 0.00 0.00 0.00 0.00 0.00 0.00 0.00 0.00 0.00 0.00 0.00 0.00 0.00 0.00 0.00 0.00 0.00 0.00 0.00 0.00 0.00 0.01 0.05 0.02 0.04 0.04 0.01 0.00 0.00 0.00 0.00 0.00 0.00 0.00 0.00 0.00
0.00 0.00 0.00 0.00 0.00 0.00 0.00 0.00 0.00 0.00 0.00 0.00 0.00 0.00 0.00 0.00 0.00 0.00 0.00 0.00 0.00 0.00 0.00 0.00 0.03 0.04 0.08 0.07 0.03 0.00 0.00 0.00 0.00 0.00 0.00 0.00 0.00 0.00
0.00 0.00 0.00 0.00 0.00 0.00 0.00 0.00 0.00 0.00 0.00 0.00 0.00 0.00 0.00 0.00 0.00 0.00 0.00 0.00 0.00 0.00 0.00 0.00 0.00 0.04 0.08 0.04 0.05 0.03 0.00 0.01 0.00 0.00 0.00 0.00 0.00 0.00
0.00 0.00 0.00 0.00 0.00 0.00 0.00 0.00 0.00 0.00 0.00 0.00 0.00 0.00 0.00 0.00 0.00 0.00 0.01 0.01 0.02 0.01 0.00 0.00 0.00 0.00 0.02 0.03 0.05 0.01 0.00 0.00 0.00 0.00 0.01 0.01 0.00 0.00
0.00 0.00 0.00 0.00 0.00 0.00 0.00 0.00 0.00 0.00 0.00 0.00 0.00 0.00 0.00 0.00 0.01 0.00 0.01 0.02 0.02 0.01 0.00 0.00 0.00 0.01 0.01 0.00 0.00 0.00 0.01 0.00 0.00 0.00 0.00 0.03 0.01 0.00
0.00 0.00 0.00 0.00 0.00 0.00 0.00 0.00 0.00 0.00 0.00 0.00 0.00 0.01 0.01 0.01 0.01 0.01 0.01 0.01 0.01 0.01 0.00 0.00 0.01 0.04 0.08 0.03 0.00 0.00 0.00 0.00 0.00 0.00 0.00 0.00 0.00 0.00
0.00 0.00 0.00 0.00 0.00 0.00 0.00 0.00 0.00 0.00 0.00 0.00 0.00 0.00 0.01 0.02 0.02 0.01 0.01 0.01 0.01 0.01 0.01 0.00 0.01 0.03 0.11 0.05 0.06 0.01 0.00 0.00 0.00 0.00 0.00 0.00 0.00 0.00
0.00 0.00 0.00 0.00 0.00 0.00 0.00 0.00 0.00 0.00 0.00 0.01 0.01 0.01 0.01 0.01 0.02 0.01 0.01 0.01 0.02 0.03 0.03 0.00 0.00 0.02 0.09 0.16 0.13 0.01 0.00 0.00 0.00 0.00 0.00 0.02 0.02 0.00
0.00 0.00 0.00 0.00 0.00 0.00 0.00 0.00 0.00 0.00 0.00 0.00 0.00 0.00 0.01 0.01 0.02 0.01 0.01 0.02 0.02 0.02 0.02 0.00 0.00 0.01 0.05 0.13 0.06 0.00 0.00 0.00 0.00 0.00 0.00 0.01 0.02 0.03
0.00 0.00 0.00 0.00 0.00 0.00 0.00 0.00 0.00 0.00 0.00 0.00 0.00 0.00 0.01 0.02 0.01 0.03 0.03 0.03 0.04 0.04 0.02 0.02 0.01 0.01 0.04 0.04 0.04 0.03 0.01 0.00 0.00 0.00 0.00 0.00 0.00 0.00

GFSNE_prec_precacc24_078.txt.gz
Total_Precipitation_Accumulation
0.11 0.14 0.22 0.18 0.18 0.17 0.20 0.29 0.41 0.47 0.31 0.23 0.31 0.37 0.38 0.39 0.43 0.47 0.53 0.73 0.82 0.83 0.86 0.94 1.03 1.09 0.87 0.89 0.86 0.93 1.11 0.81 0.94 0.66 0.37 0.27 0.23 0.21
0.05 0.08 0.11 0.13 0.15 0.19 0.22 0.32 0.43 0.48 0.43 0.26 0.26 0.34 0.43 0.49 0.57 0.55 0.62 0.74 0.77 0.81 0.77 0.71 0.68 0.58 0.43 0.44 0.51 0.47 0.35 0.30 0.35 0.43 0.37 0.29 0.24 0.18
0.01 0.02 0.04 0.07 0.11 0.16 0.20 0.26 0.33 0.39 0.42 0.39 0.37 0.39 0.41 0.45 0.45 0.38 0.40 0.33 0.33 0.38 0.36 0.31 0.24 0.23 0.22 0.20 0.19 0.20 0.21 0.22 0.19 0.20 0.21 0.19 0.16 0.11
0.01 0.03 0.04 0.03 0.05 0.08 0.12 0.18 0.25 0.34 0.47 0.59 0.63 0.58 0.48 0.37 0.28 0.19 0.13 0.08 0.06 0.12 0.10 0.08 0.09 0.09 0.07 0.06 0.05 0.04 0.03 0.04 0.05 0.06 0.07 0.06 0.05 0.05
0.02 0.03 0.04 0.03 0.03 0.02 0.01 0.02 0.02 0.03 0.04 0.04 0.05 0.06 0.08 0.10 0.06 0.05 0.03 0.02 0.02 0.05 0.05 0.03 0.03 0.02 0.01 0.01 0.00 0.00 0.00 0.00 0.00 0.00 0.00 0.00 0.00 0.00
0.00 0.01 0.01 0.01 0.01 0.00 0.00 0.00 0.00 0.01 0.01 0.01 0.02 0.02 0.01 0.01 0.01 0.01 0.02 0.01 0.01 0.00 0.01 0.00 0.00 0.00 0.00 0.00 0.00 0.00 0.00 0.00 0.00 0.00 0.00 0.00 0.00 0.00
0.01 0.01 0.01 0.01 0.01 0.01 0.00 0.00 0.00 0.00 0.01 0.00 0.00 0.00 0.01 0.01 0.01 0.01 0.01 0.00 0.00 0.00 0.00 0.00 0.00 0.00 0.00 0.00 0.00 0.00 0.00 0.00 0.00 0.00 0.00 0.00 0.00 0.00
0.01 0.00 0.02 0.05 0.04 0.03 0.02 0.01 0.01 0.00 0.00 0.00 0.00 0.00 0.00 0.00 0.00 0.00 0.00 0.00 0.00 0.00 0.00 0.00 0.00 0.00 0.00 0.00 0.00 0.00 0.00 0.00 0.00 0.00 0.00 0.00 0.00 0.00
0.03 0.04 0.03 0.01 0.02 0.02 0.01 0.00 0.00 0.00 0.00 0.00 0.00 0.00 0.00 0.00 0.00 0.00 0.00 0.00 0.00 0.00 0.00 0.00 0.00 0.00 0.00 0.00 0.00 0.00 0.00 0.00 0.00 0.00 0.00 0.00 0.00 0.00
0.02 0.03 0.01 0.00 0.00 0.00 0.00 0.00 0.00 0.00 0.00 0.00 0.00 0.00 0.00 0.00 0.00 0.00 0.00 0.00 0.00 0.00 0.00 0.00 0.00 0.00 0.00 0.00 0.00 0.00 0.00 0.00 0.00 0.00 0.00 0.00 0.00 0.00
0.00 0.00 0.00 0.00 0.00 0.00 0.00 0.00 0.00 0.00 0.00 0.00 0.00 0.00 0.00 0.00 0.00 0.00 0.00 0.00 0.00 0.00 0.00 0.00 0.00 0.00 0.00 0.00 0.00 0.00 0.00 0.00 0.00 0.00 0.00 0.00 0.00 0.00
0.00 0.00 0.00 0.00 0.00 0.00 0.00 0.00 0.00 0.00 0.00 0.00 0.00 0.00 0.00 0.00 0.00 0.00 0.00 0.00 0.00 0.00 0.00 0.00 0.00 0.00 0.00 0.00 0.00 0.00 0.00 0.00 0.00 0.00 0.00 0.00 0.00 0.00
0.00 0.00 0.00 0.00 0.00 0.00 0.00 0.00 0.00 0.00 0.00 0.00 0.00 0.00 0.00 0.00 0.00 0.00 0.00 0.00 0.00 0.00 0.00 0.01 0.01 0.00 0.01 0.00 0.00 0.00 0.00 0.00 0.00 0.00 0.00 0.00 0.00 0.00
0.00 0.00 0.00 0.00 0.00 0.00 0.00 0.00 0.00 0.00 0.00 0.00 0.00 0.00 0.00 0.00 0.00 0.00 0.00 0.00 0.00 0.00 0.00 0.01 0.04 0.02 0.04 0.03 0.00 0.00 0.00 0.00 0.00 0.00 0.00 0.00 0.00 0.00
0.00 0.00 0.00 0.00 0.00 0.00 0.00 0.00 0.00 0.00 0.00 0.00 0.00 0.00 0.00 0.00 0.00 0.00 0.00 0.00 0.00 0.00 0.00 0.00 0.02 0.03 0.06 0.05 0.02 0.00 0.00 0.00 0.00 0.00 0.00 0.00 0.00 0.00
0.00 0.00 0.00 0.00 0.00 0.00 0.00 0.00 0.00 0.00 0.00 0.00 0.00 0.00 0.00 0.00 0.00 0.00 0.00 0.00 0.01 0.00 0.00 0.00 0.00 0.03 0.06 0.03 0.04 0.02 0.00 0.01 0.00 0.00 0.00 0.00 0.00 0.00
0.00 0.00 0.00 0.00 0.00 0.00 0.00 0.00 0.00 0.00 0.00 0.00 0.00 0.00 0.00 0.00 0.00 0.00 0.01 0.01 0.02 0.00 0.00 0.00 0.00 0.00 0.01 0.02 0.04 0.00 0.00 0.00 0.00 0.00 0.00 0.01 0.00 0.00
0.00 0.00 0.00 0.00 0.00 0.00 0.00 0.00 0.00 0.00 0.00 0.00 0.00 0.00 0.00 0.00 0.00 0.00 0.01 0.02 0.02 0.00 0.00 0.00 0.00 0.01 0.01 0.00 0.00 0.00 0.00 0.00 0.00 0.00 0.00 0.02 0.01 0.00
0.00 0.00 0.00 0.00 0.00 0.00 0.00 0.00 0.00 0.00 0.00 0.00 0.00 0.00 0.01 0.01 0.01 0.01 0.00 0.01 0.01 0.00 0.00 0.00 0.00 0.03 0.06 0.02 0.00 0.00 0.00 0.00 0.00 0.00 0.00 0.00 0.00 0.00
0.00 0.00 0.00 0.00 0.00 0.00 0.00 0.00 0.00 0.00 0.00 0.00 0.00 0.00 0.01 0.01 0.01 0.01 0.00 0.01 0.01 0.01 0.01 0.00 0.01 0.02 0.09 0.04 0.05 0.00 0.00 0.00 0.00 0.00 0.00 0.00 0.00 0.00
0.00 0.00 0.00 0.00 0.00 0.00 0.00 0.00 0.00 0.00 0.00 0.00 0.00 0.00 0.00 0.01 0.01 0.01 0.01 0.01 0.01 0.02 0.02 0.00 0.00 0.02 0.11 0.18 0.13 0.01 0.00 0.00 0.00 0.00 0.00 0.02 0.02 0.00
0.00 0.00 0.00 0.00 0.00 0.00 0.00 0.00 0.00 0.00 0.00 0.00 0.00 0.00 0.00 0.00 0.01 0.00 0.00 0.01 0.01 0.01 0.01 0.00 0.00 0.01 0.05 0.13 0.05 0.00 0.00 0.00 0.00 0.00 0.00 0.01 0.02 0.03
0.00 0.00 0.00 0.00 0.00 0.00 0.00 0.00 0.00 0.00 0.00 0.00 0.00 0.00 0.00 0.01 0.01 0.02 0.02 0.03 0.03 0.04 0.02 0.02 0.01 0.01 0.04 0.04 0.04 0.02 0.00 0.00 0.00 0.00 0.00 0.00 0.00 0.00

GFSNE_prec_precacc24_084.txt.gz
Total_Precipitation_Accumulation
0.00 0.00 0.01 0.01 0.02 0.03 0.03 0.03 0.07 0.08 0.04 0.02 0.06 0.13 0.19 0.18 0.22 0.25 0.24 0.34 0.42 0.45 0.51 0.63 0.76 0.88 0.72 0.81 0.82 0.91 1.11 0.82 1.00 0.79 0.54 0.39 0.38 0.46
0.00 0.00 0.00 0.00 0.00 0.01 0.01 0.02 0.03 0.04 0.03 0.00 0.02 0.05 0.11 0.17 0.22 0.20 0.24 0.33 0.42 0.56 0.61 0.58 0.57 0.52 0.41 0.43 0.50 0.47 0.36 0.32 0.39 0.57 0.65 0.57 0.53 0.55
0.00 0.00 0.00 0.00 0.00 0.01 0.01 0.01 0.01 0.01 0.01 0.00 0.00 0.01 0.05 0.10 0.09 0.09 0.15 0.19 0.26 0.33 0.33 0.28 0.21 0.21 0.19 0.19 0.19 0.20 0.22 0.24 0.22 0.27 0.45 0.64 0.45 0.23
0.00 0.00 0.00 0.00 0.00 0.01 0.01 0.01 0.00 0.00 0.00 0.00 0.00 0.00 0.02 0.04 0.06 0.08 0.09 0.07 0.06 0.10 0.07 0.06 0.07 0.08 0.07 0.06 0.05 0.04 0.03 0.04 0.07 0.09 0.12 0.17 0.17 0.11
0.00 0.00 0.00 0.00 0.00 0.00 0.00 0.00 0.00 0.00 0.00 0.00 0.00 0.01 0.03 0.04 0.04 0.03 0.02 0.02 0.02 0.04 0.04 0.03 0.03 0.02 0.01 0.01 0.00 0.00 0.00 0.00 0.00 0.00 0.01 0.02 0.02 0.02
0.00 0.00 0.00 0.00 0.00 0.00 0.00 0.00 0.00 0.00 0.00 0.00 0.00 0.00 0.00 0.00 0.00 0.01 0.01 0.01 0.01 0.00 0.01 0.00 0.00 0.00 0.00 0.00 0.00 0.00 0.00 0.00 0.00 0.00 0.00 0.00 0.00 0.00
0.00 0.00 0.00 0.00 0.01 0.00 0.00 0.00 0.00 0.00 0.00 0.00 0.00 0.00 0.00 0.00 0.00 0.00 0.01 0.00 0.00 0.00 0.00 0.00 0.00 0.00 0.00 0.00 0.00 0.00 0.00 0.00 0.00 0.00 0.00 0.00 0.00 0.00
0.00 0.00 0.00 0.00 0.00 0.00 0.00 0.00 0.00 0.00 0.00 0.00 0.00 0.00 0.00 0.00 0.00 0.00 0.00 0.00 0.00 0.00 0.00 0.00 0.00 0.00 0.00 0.00 0.00 0.00 0.00 0.00 0.00 0.00 0.00 0.00 0.00 0.00
0.00 0.00 0.00 0.00 0.00 0.00 0.00 0.00 0.00 0.00 0.00 0.00 0.00 0.00 0.00 0.00 0.00 0.00 0.00 0.00 0.00 0.00 0.00 0.00 0.00 0.00 0.00 0.00 0.00 0.00 0.00 0.00 0.00 0.00 0.00 0.00 0.00 0.00
0.00 0.00 0.00 0.00 0.00 0.00 0.00 0.00 0.00 0.00 0.00 0.00 0.00 0.00 0.00 0.00 0.00 0.00 0.00 0.00 0.00 0.00 0.00 0.00 0.00 0.00 0.00 0.00 0.00 0.00 0.00 0.00 0.00 0.00 0.00 0.00 0.00 0.00
0.00 0.00 0.00 0.00 0.00 0.00 0.00 0.00 0.00 0.00 0.00 0.00 0.00 0.00 0.00 0.00 0.00 0.00 0.00 0.00 0.00 0.00 0.00 0.00 0.00 0.00 0.00 0.00 0.00 0.00 0.00 0.00 0.00 0.00 0.00 0.00 0.00 0.00
0.00 0.00 0.00 0.00 0.00 0.00 0.00 0.00 0.00 0.00 0.00 0.00 0.00 0.00 0.00 0.00 0.00 0.00 0.00 0.00 0.00 0.00 0.00 0.00 0.00 0.00 0.00 0.00 0.00 0.00 0.00 0.00 0.00 0.00 0.00 0.00 0.00 0.00
0.00 0.00 0.00 0.00 0.00 0.00 0.00 0.00 0.00 0.00 0.00 0.00 0.00 0.00 0.00 0.00 0.00 0.00 0.00 0.00 0.00 0.00 0.00 0.01 0.00 0.00 0.00 0.00 0.00 0.00 0.00 0.00 0.00 0.00 0.00 0.00 0.00 0.00
0.00 0.00 0.00 0.00 0.00 0.00 0.00 0.00 0.00 0.00 0.00 0.00 0.00 0.00 0.00 0.00 0.00 0.00 0.00 0.00 0.00 0.00 0.00 0.01 0.03 0.01 0.02 0.01 0.00 0.00 0.00 0.00 0.00 0.00 0.00 0.00 0.00 0.00
0.00 0.00 0.00 0.00 0.00 0.00 0.00 0.00 0.00 0.00 0.00 0.00 0.00 0.00 0.00 0.00 0.00 0.00 0.00 0.00 0.00 0.00 0.00 0.00 0.01 0.02 0.04 0.03 0.01 0.00 0.00 0.00 0.00 0.00 0.00 0.00 0.00 0.00
0.00 0.00 0.00 0.00 0.00 0.00 0.00 0.00 0.00 0.00 0.00 0.00 0.00 0.00 0.00 0.00 0.00 0.00 0.00 0.00 0.00 0.00 0.00 0.00 0.00 0.01 0.03 0.02 0.02 0.01 0.00 0.00 0.00 0.00 0.00 0.00 0.00 0.00
0.00 0.00 0.00 0.00 0.00 0.00 0.00 0.00 0.00 0.00 0.00 0.00 0.00 0.00 0.00 0.00 0.00 0.00 0.00 0.00 0.01 0.00 0.00 0.00 0.00 0.00 0.00 0.01 0.02 0.00 0.00 0.00 0.00 0.00 0.00 0.01 0.00 0.00
0.00 0.00 0.00 0.00 0.00 0.00 0.00 0.00 0.00 0.00 0.00 0.00 0.00 0.00 0.00 0.00 0.00 0.00 0.01 0.01 0.01 0.00 0.00 0.00 0.00 0.00 0.00 0.00 0.00 0.00 0.00 0.00 0.00 0.00 0.00 0.01 0.00 0.00
0.00 0.00 0.00 0.00 0.00 0.00 0.00 0.00 0.00 0.00 0.00 0.00 0.00 0.00 0.00 0.00 0.00 0.00 0.00 0.00 0.00 0.00 0.00 0.00 0.00 0.01 0.04 0.01 0.00 0.00 0.00 0.00 0.00 0.00 0.00 0.00 0.00 0.00
0.00 0.00 0.00 0.00 0.00 0.00 0.00 0.00 0.00 0.00 0.00 0.00 0.00 0.00 0.00 0.00 0.00 0.00 0.00 0.00 0.00 0.00 0.00 0.00 0.01 0.01 0.06 0.02 0.03 0.00 0.00 0.00 0.00 0.00 0.00 0.00 0.00 0.00
0.00 0.00 0.00 0.00 0.00 0.00 0.00 0.00 0.00 0.00 0.00 0.00 0.00 0.00 0.00 0.00 0.00 0.00 0.00 0.00 0.00 0.00 0.01 0.00 0.00 0.02 0.11 0.17 0.11 0.01 0.00 0.00 0.00 0.00 0.00 0.03 0.02 0.00
0.00 0.00 0.00 0.00 0.00 0.00 0.00 0.00 0.00 0.00 0.00 0.00 0.00 0.00 0.00 0.00 0.00 0.00 0.00 0.00 0.00 0.01 0.01 0.00 0.00 0.01 0.05 0.12 0.04 0.00 0.00 0.00 0.00 0.00 0.00 0.01 0.02 0.02
0.00 0.00 0.00 0.00 0.00 0.01 0.01 0.00 0.00 0.00 0.00 0.00 0.00 0.00 0.00 0.00 0.01 0.01 0.01 0.01 0.02 0.02 0.01 0.01 0.00 0.01 0.03 0.04 0.03 0.02 0.00 0.00 0.00 0.00 0.00 0.00 0.00 0.00

GFSNE_prec_precacc24_087.txt.gz
Total_Precipitation_Accumulation
0.00 0.00 0.01 0.01 0.01 0.02 0.03 0.02 0.04 0.04 0.03 0.00 0.00 0.00 0.00 0.00 0.00 0.00 0.00 0.07 0.19 0.28 0.34 0.45 0.61 0.77 0.62 0.71 0.73 0.82 1.03 0.76 0.95 0.75 0.52 0.41 0.46 0.58
0.00 0.00 0.00 0.00 0.00 0.01 0.01 0.01 0.01 0.02 0.02 0.00 0.00 0.01 0.00 0.00 0.00 0.00 0.01 0.06 0.17 0.31 0.39 0.43 0.50 0.47 0.36 0.40 0.48 0.44 0.33 0.30 0.38 0.57 0.64 0.60 0.61 0.68
0.00 0.00 0.00 0.00 0.00 0.00 0.00 0.01 0.01 0.00 0.01 0.00 0.00 0.00 0.00 0.01 0.02 0.01 0.01 0.03 0.12 0.22 0.25 0.23 0.18 0.18 0.16 0.16 0.16 0.17 0.21 0.24 0.22 0.28 0.47 0.72 0.54 0.26
0.00 0.00 0.00 0.00 0.00 0.00 0.00 0.00 0.00 0.00 0.00 0.00 0.00 0.00 0.00 0.00 0.02 0.01 0.01 0.01 0.02 0.05 0.04 0.04 0.04 0.05 0.04 0.04 0.04 0.04 0.03 0.04 0.07 0.10 0.15 0.23 0.29 0.18
0.00 0.00 0.00 0.00 0.00 0.00 0.00 0.00 0.00 0.00 0.00 0.00 0.00 0.00 0.00 0.00 0.00 0.00 0.01 0.00 0.00 0.01 0.02 0.01 0.01 0.01 0.01 0.01 0.00 0.00 0.00 0.00 0.00 0.01 0.03 0.05 0.06 0.10
0.00 0.00 0.00 0.00 0.00 0.00 0.00 0.00 0.00 0.00 0.00 0.00 0.00 0.00 0.00 0.00 0.00 0.00 0.00 0.00 0.00 0.00 0.01 0.00 0.00 0.00 0.00 0.00 0.00 0.00 0.00 0.00 0.00 0.00 0.00 0.00 0.00 0.01
0.00 0.00 0.00 0.00 0.00 0.00 0.00 0.00 0.00 0.00 0.00 0.00 0.00 0.00 0.00 0.00 0.00 0.00 0.00 0.00 0.00 0.00 0.00 0.00 0.00 0.00 0.00 0.00 0.00 0.00 0.00 0.00 0.00 0.00 0.00 0.00 0.00 0.00
0.00 0.00 0.00 0.00 0.00 0.00 0.00 0.00 0.00 0.00 0.00 0.00 0.00 0.00 0.00 0.00 0.00 0.00 0.00 0.00 0.00 0.00 0.00 0.00 0.00 0.00 0.00 0.00 0.00 0.00 0.00 0.00 0.00 0.00 0.00 0.00 0.00 0.00
0.00 0.00 0.00 0.00 0.00 0.00 0.00 0.00 0.00 0.00 0.00 0.00 0.00 0.00 0.00 0.00 0.00 0.00 0.00 0.00 0.00 0.00 0.00 0.00 0.00 0.00 0.00 0.00 0.00 0.00 0.00 0.00 0.00 0.00 0.00 0.00 0.00 0.00
0.00 0.00 0.00 0.00 0.00 0.00 0.00 0.00 0.00 0.00 0.00 0.00 0.00 0.00 0.00 0.00 0.00 0.00 0.00 0.00 0.00 0.00 0.00 0.00 0.00 0.00 0.00 0.00 0.00 0.00 0.00 0.00 0.00 0.00 0.00 0.00 0.00 0.00
0.00 0.00 0.00 0.00 0.00 0.00 0.00 0.00 0.00 0.00 0.00 0.00 0.00 0.00 0.00 0.00 0.00 0.00 0.00 0.00 0.00 0.00 0.00 0.00 0.00 0.00 0.00 0.00 0.00 0.00 0.00 0.00 0.00 0.00 0.00 0.00 0.00 0.00
0.00 0.00 0.00 0.00 0.00 0.00 0.00 0.00 0.00 0.00 0.00 0.00 0.00 0.00 0.00 0.00 0.00 0.00 0.00 0.00 0.00 0.00 0.00 0.00 0.00 0.00 0.00 0.00 0.00 0.00 0.00 0.00 0.00 0.00 0.00 0.00 0.00 0.00
0.00 0.00 0.00 0.00 0.00 0.00 0.00 0.00 0.00 0.00 0.00 0.00 0.00 0.00 0.00 0.00 0.00 0.00 0.00 0.00 0.00 0.00 0.00 0.01 0.00 0.00 0.00 0.00 0.00 0.00 0.00 0.00 0.00 0.00 0.00 0.00 0.00 0.00
0.00 0.00 0.00 0.00 0.00 0.00 0.00 0.00 0.00 0.00 0.00 0.00 0.00 0.00 0.00 0.00 0.00 0.00 0.00 0.00 0.00 0.00 0.00 0.00 0.02 0.01 0.02 0.01 0.00 0.00 0.00 0.00 0.00 0.00 0.00 0.00 0.00 0.00
0.00 0.00 0.00 0.00 0.00 0.00 0.00 0.00 0.00 0.00 0.00 0.00 0.00 0.00 0.00 0.00 0.00 0.00 0.00 0.00 0.00 0.00 0.00 0.00 0.01 0.01 0.02 0.03 0.01 0.00 0.00 0.00 0.00 0.00 0.00 0.00 0.00 0.00
0.00 0.00 0.00 0.00 0.00 0.00 0.00 0.00 0.00 0.00 0.00 0.00 0.00 0.00 0.00 0.00 0.00 0.00 0.00 0.00 0.00 0.00 0.00 0.00 0.00 0.01 0.01 0.01 0.01 0.01 0.00 0.00 0.00 0.00 0.00 0.00 0.00 0.00
0.00 0.00 0.00 0.00 0.00 0.00 0.00 0.00 0.00 0.00 0.00 0.00 0.00 0.00 0.00 0.00 0.00 0.00 0.00 0.00 0.01 0.00 0.00 0.00 0.00 0.00 0.00 0.00 0.01 0.00 0.00 0.00 0.00 0.00 0.00 0.00 0.00 0.00
0.00 0.00 0.00 0.00 0.00 0.00 0.00 0.00 0.00 0.00 0.00 0.00 0.00 0.00 0.00 0.00 0.00 0.00 0.00 0.01 0.01 0.00 0.00 0.00 0.00 0.00 0.00 0.00 0.00 0.00 0.00 0.00 0.00 0.00 0.00 0.01 0.00 0.00
0.00 0.00 0.00 0.00 0.00 0.00 0.00 0.00 0.00 0.00 0.00 0.00 0.00 0.00 0.00 0.00 0.00 0.00 0.00 0.00 0.00 0.00 0.00 0.00 0.00 0.01 0.02 0.01 0.00 0.00 0.00 0.00 0.00 0.00 0.00 0.00 0.00 0.00
0.00 0.00 0.00 0.00 0.00 0.00 0.00 0.00 0.00 0.00 0.00 0.00 0.00 0.00 0.00 0.00 0.00 0.00 0.00 0.00 0.00 0.00 0.00 0.00 0.01 0.01 0.05 0.02 0.02 0.00 0.00 0.00 0.00 0.00 0.00 0.00 0.00 0.00
0.00 0.00 0.00 0.00 0.00 0.00 0.00 0.00 0.00 0.00 0.00 0.00 0.00 0.00 0.00 0.00 0.00 0.00 0.00 0.00 0.00 0.00 0.01 0.00 0.00 0.01 0.09 0.14 0.09 0.01 0.00 0.00 0.00 0.00 0.00 0.03 0.01 0.00
0.00 0.00 0.00 0.00 0.00 0.00 0.00 0.00 0.00 0.00 0.00 0.00 0.00 0.00 0.00 0.00 0.00 0.00 0.00 0.00 0.00 0.01 0.01 0.00 0.00 0.00 0.03 0.09 0.03 0.00 0.00 0.00 0.00 0.00 0.00 0.01 0.02 0.02
0.00 0.00 0.00 0.00 0.00 0.01 0.02 0.02 0.01 0.01 0.00 0.00 0.00 0.00 0.00 0.01 0.01 0.02 0.01 0.01 0.02 0.02 0.01 0.02 0.01 0.01 0.03 0.03 0.03 0.02 0.00 0.00 0.00 0.00 0.00 0.00 0.00 0.00

GFSNE_prec_precacc24_090.txt.gz
Total_Precipitation_Accumulation
0.00 0.00 0.00 0.01 0.01 0.02 0.03 0.02 0.04 0.04 0.02 0.01 0.00 0.00 0.00 0.00 0.00 0.00 0.00 0.01 0.02 0.05 0.10 0.19 0.35 0.55 0.46 0.59 0.65 0.78 0.98 0.70 0.89 0.69 0.44 0.31 0.39 0.58
0.00 0.00 0.00 0.00 0.00 0.01 0.01 0.01 0.01 0.02 0.03 0.00 0.00 0.01 0.01 0.00 0.01 0.00 0.00 0.01 0.01 0.04 0.09 0.13 0.20 0.27 0.24 0.32 0.45 0.42 0.31 0.27 0.34 0.53 0.61 0.56 0.59 0.74
0.00 0.00 0.00 0.00 0.00 0.00 0.00 0.00 0.01 0.01 0.01 0.01 0.00 0.01 0.01 0.00 0.00 0.00 0.00 0.00 0.00 0.03 0.06 0.09 0.09 0.12 0.13 0.13 0.13 0.14 0.18 0.22 0.22 0.29 0.47 0.72 0.56 0.29
0.00 0.00 0.00 0.00 0.00 0.00 0.00 0.00 0.00 0.00 0.00 0.00 0.00 0.01 0.00 0.00 0.00 0.00 0.00 0.00 0.00 0.01 0.01 0.01 0.01 0.02 0.03 0.02 0.02 0.02 0.03 0.04 0.08 0.12 0.18 0.26 0.33 0.20
0.00 0.00 0.00 0.00 0.00 0.00 0.00 0.00 0.00 0.00 0.00 0.00 0.00 0.00 0.00 0.00 0.00 0.00 0.00 0.00 0.00 0.00 0.00 0.00 0.00 0.00 0.00 0.00 0.00 0.00 0.00 0.00 0.00 0.01 0.07 0.09 0.09 0.13
0.00 0.00 0.00 0.00 0.00 0.00 0.00 0.00 0.00 0.00 0.00 0.01 0.01 0.01 0.00 0.00 0.00 0.00 0.00 0.00 0.00 0.00 0.00 0.00 0.00 0.00 0.00 0.00 0.00 0.00 0.00 0.00 0.00 0.00 0.00 0.01 0.02 0.02
0.00 0.00 0.00 0.00 0.00 0.00 0.00 0.00 0.00 0.00 0.00 0.00 0.00 0.00 0.00 0.00 0.00 0.00 0.00 0.00 0.00 0.00 0.00 0.00 0.00 0.00 0.00 0.00 0.00 0.00 0.00 0.00 0.00 0.00 0.00 0.00 0.00 0.00
0.00 0.00 0.00 0.00 0.00 0.00 0.00 0.00 0.00 0.00 0.00 0.00 0.00 0.00 0.00 0.00 0.00 0.00 0.00 0.00 0.00 0.00 0.00 0.00 0.00 0.00 0.00 0.00 0.00 0.00 0.00 0.00 0.00 0.00 0.00 0.00 0.00 0.00
0.00 0.00 0.00 0.00 0.00 0.00 0.00 0.00 0.00 0.00 0.00 0.00 0.00 0.00 0.00 0.00 0.00 0.00 0.00 0.00 0.00 0.00 0.00 0.00 0.00 0.00 0.00 0.00 0.00 0.00 0.00 0.00 0.00 0.00 0.00 0.00 0.00 0.00
0.00 0.00 0.00 0.00 0.00 0.00 0.00 0.00 0.00 0.00 0.00 0.00 0.00 0.00 0.00 0.00 0.00 0.00 0.00 0.00 0.00 0.00 0.00 0.00 0.00 0.00 0.00 0.00 0.00 0.00 0.00 0.00 0.00 0.00 0.00 0.00 0.00 0.00
0.00 0.00 0.00 0.00 0.00 0.00 0.00 0.00 0.00 0.00 0.00 0.00 0.00 0.00 0.00 0.00 0.00 0.00 0.00 0.00 0.00 0.00 0.00 0.00 0.00 0.00 0.00 0.00 0.00 0.00 0.00 0.00 0.00 0.00 0.00 0.00 0.00 0.00
0.00 0.00 0.00 0.00 0.00 0.00 0.00 0.00 0.00 0.00 0.00 0.00 0.00 0.00 0.00 0.00 0.00 0.00 0.00 0.00 0.00 0.00 0.00 0.00 0.00 0.00 0.00 0.00 0.00 0.00 0.00 0.00 0.00 0.00 0.00 0.00 0.00 0.00
0.00 0.00 0.00 0.00 0.00 0.00 0.00 0.00 0.00 0.00 0.00 0.00 0.00 0.00 0.00 0.00 0.00 0.00 0.00 0.00 0.00 0.00 0.00 0.00 0.00 0.00 0.00 0.00 0.00 0.00 0.00 0.00 0.00 0.00 0.00 0.00 0.00 0.00
0.00 0.00 0.00 0.00 0.00 0.00 0.00 0.00 0.00 0.00 0.00 0.00 0.00 0.00 0.00 0.00 0.00 0.00 0.00 0.00 0.00 0.00 0.00 0.00 0.01 0.01 0.01 0.01 0.00 0.00 0.00 0.00 0.00 0.00 0.00 0.00 0.00 0.00
0.00 0.00 0.00 0.00 0.00 0.00 0.00 0.00 0.00 0.00 0.00 0.00 0.00 0.00 0.00 0.00 0.00 0.00 0.00 0.00 0.00 0.00 0.00 0.00 0.01 0.01 0.02 0.02 0.01 0.00 0.00 0.00 0.00 0.00 0.00 0.00 0.00 0.00
0.00 0.00 0.00 0.00 0.00 0.00 0.00 0.00 0.00 0.00 0.00 0.00 0.00 0.00 0.00 0.00 0.00 0.00 0.00 0.00 0.00 0.00 0.00 0.00 0.00 0.00 0.00 0.01 0.01 0.01 0.00 0.00 0.00 0.00 0.00 0.00 0.00 0.00
0.00 0.00 0.00 0.00 0.00 0.00 0.00 0.00 0.00 0.00 0.00 0.00 0.00 0.00 0.00 0.00 0.00 0.00 0.00 0.00 0.00 0.00 0.00 0.00 0.00 0.00 0.00 0.00 0.01 0.00 0.00 0.00 0.00 0.00 0.00 0.00 0.00 0.00
0.00 0.00 0.00 0.00 0.00 0.00 0.00 0.00 0.00 0.00 0.00 0.00 0.00 0.00 0.00 0.00 0.00 0.00 0.00 0.00 0.00 0.00 0.00 0.00 0.00 0.00 0.00 0.00 0.00 0.00 0.00 0.00 0.00 0.00 0.00 0.01 0.00 0.00
0.00 0.01 0.00 0.00 0.00 0.00 0.00 0.00 0.00 0.00 0.00 0.00 0.00 0.00 0.00 0.00 0.00 0.00 0.00 0.00 0.00 0.00 0.00 0.00 0.00 0.01 0.02 0.01 0.00 0.00 0.00 0.00 0.00 0.00 0.00 0.00 0.00 0.00
0.00 0.00 0.00 0.00 0.00 0.00 0.00 0.00 0.00 0.00 0.00 0.00 0.00 0.00 0.00 0.00 0.00 0.00 0.00 0.00 0.00 0.00 0.00 0.00 0.00 0.01 0.02 0.01 0.01 0.00 0.00 0.00 0.00 0.00 0.00 0.00 0.00 0.00
0.00 0.00 0.00 0.00 0.00 0.00 0.00 0.00 0.00 0.00 0.00 0.00 0.00 0.00 0.00 0.00 0.00 0.00 0.00 0.00 0.00 0.00 0.00 0.00 0.00 0.01 0.06 0.11 0.08 0.01 0.00 0.00 0.00 0.00 0.00 0.02 0.01 0.00
0.00 0.00 0.00 0.00 0.00 0.00 0.00 0.00 0.00 0.00 0.00 0.00 0.00 0.00 0.00 0.00 0.00 0.00 0.00 0.00 0.00 0.00 0.00 0.00 0.00 0.01 0.03 0.07 0.02 0.00 0.00 0.00 0.00 0.00 0.00 0.01 0.02 0.02
0.00 0.00 0.00 0.00 0.00 0.01 0.02 0.02 0.02 0.01 0.00 0.01 0.00 0.00 0.00 0.01 0.01 0.02 0.01 0.01 0.01 0.01 0.01 0.01 0.01 0.03 0.03 0.03 0.03 0.02 0.00 0.00 0.00 0.00 0.00 0.00 0.00 0.00

GFSNE_prec_precacc24_093.txt.gz
Total_Precipitation_Accumulation
0.00 0.00 0.00 0.01 0.01 0.02 0.03 0.02 0.04 0.04 0.02 0.00 0.00 0.00 0.00 0.00 0.01 0.00 0.00 0.01 0.02 0.03 0.04 0.05 0.03 0.14 0.30 0.46 0.50 0.60 0.81 0.61 0.84 0.66 0.42 0.28 0.34 0.52
0.00 0.00 0.00 0.00 0.00 0.01 0.01 0.01 0.01 0.02 0.03 0.00 0.00 0.01 0.01 0.00 0.01 0.00 0.00 0.01 0.01 0.03 0.04 0.04 0.04 0.06 0.06 0.11 0.25 0.28 0.22 0.21 0.30 0.49 0.54 0.48 0.52 0.69
0.00 0.00 0.00 0.00 0.00 0.00 0.00 0.00 0.00 0.01 0.01 0.01 0.00 0.01 0.01 0.01 0.00 0.00 0.00 0.00 0.00 0.01 0.01 0.02 0.02 0.02 0.03 0.04 0.05 0.08 0.13 0.17 0.17 0.26 0.46 0.70 0.55 0.28
0.00 0.00 0.00 0.00 0.00 0.00 0.00 0.00 0.00 0.00 0.00 0.00 0.00 0.01 0.00 0.01 0.00 0.01 0.00 0.00 0.00 0.00 0.00 0.00 0.00 0.00 0.00 0.00 0.00 0.01 0.02 0.03 0.07 0.13 0.18 0.28 0.37 0.22
0.00 0.00 0.00 0.00 0.00 0.00 0.00 0.00 0.00 0.00 0.00 0.00 0.00 0.00 0.00 0.00 0.00 0.00 0.00 0.00 0.00 0.00 0.00 0.00 0.00 0.00 0.00 0.00 0.00 0.00 0.00 0.00 0.00 0.03 0.10 0.11 0.13 0.18
0.00 0.00 0.00 0.00 0.00 0.00 0.00 0.00 0.00 0.00 0.00 0.01 0.01 0.01 0.01 0.00 0.00 0.00 0.00 0.00 0.00 0.00 0.00 0.00 0.00 0.00 0.00 0.00 0.00 0.00 0.00 0.00 0.00 0.00 0.01 0.03 0.05 0.04
0.00 0.00 0.00 0.00 0.00 0.00 0.00 0.00 0.00 0.00 0.00 0.00 0.00 0.00 0.00 0.00 0.00 0.00 0.00 0.00 0.00 0.00 0.00 0.00 0.00 0.00 0.00 0.00 0.00 0.00 0.00 0.00 0.00 0.00 0.00 0.00 0.01 0.02
0.00 0.00 0.00 0.00 0.00 0.00 0.00 0.00 0.00 0.00 0.00 0.00 0.00 0.00 0.00 0.00 0.00 0.00 0.00 0.00 0.00 0.00 0.00 0.00 0.00 0.00 0.00 0.00 0.00 0.00 0.00 0.00 0.00 0.00 0.00 0.00 0.00 0.00
0.00 0.00 0.00 0.00 0.00 0.00 0.00 0.00 0.00 0.00 0.00 0.00 0.00 0.00 0.00 0.00 0.00 0.00 0.00 0.00 0.00 0.00 0.00 0.00 0.00 0.00 0.00 0.00 0.00 0.00 0.00 0.00 0.00 0.00 0.00 0.00 0.00 0.00
0.00 0.00 0.00 0.00 0.00 0.00 0.00 0.00 0.00 0.00 0.00 0.00 0.00 0.00 0.00 0.00 0.00 0.00 0.00 0.00 0.00 0.00 0.00 0.00 0.00 0.00 0.00 0.00 0.00 0.00 0.00 0.00 0.00 0.00 0.00 0.00 0.00 0.00
0.00 0.00 0.00 0.00 0.00 0.00 0.00 0.00 0.00 0.00 0.00 0.00 0.00 0.00 0.00 0.00 0.00 0.00 0.00 0.00 0.00 0.00 0.00 0.00 0.00 0.00 0.00 0.00 0.00 0.00 0.00 0.00 0.00 0.00 0.00 0.00 0.00 0.00
0.00 0.00 0.00 0.00 0.00 0.00 0.00 0.00 0.00 0.00 0.00 0.00 0.00 0.00 0.00 0.00 0.00 0.00 0.00 0.00 0.00 0.00 0.00 0.00 0.00 0.00 0.00 0.00 0.00 0.00 0.00 0.00 0.00 0.00 0.00 0.00 0.00 0.00
0.00 0.00 0.00 0.00 0.00 0.00 0.00 0.00 0.00 0.00 0.00 0.00 0.00 0.00 0.00 0.00 0.00 0.00 0.00 0.00 0.00 0.00 0.00 0.00 0.00 0.00 0.00 0.00 0.00 0.00 0.00 0.00 0.00 0.00 0.00 0.00 0.00 0.00
0.00 0.00 0.00 0.00 0.00 0.00 0.00 0.00 0.00 0.00 0.00 0.00 0.00 0.00 0.00 0.00 0.00 0.00 0.00 0.00 0.00 0.00 0.00 0.00 0.01 0.01 0.01 0.01 0.00 0.00 0.00 0.00 0.00 0.00 0.00 0.00 0.00 0.00
0.00 0.00 0.00 0.00 0.00 0.00 0.00 0.00 0.00 0.00 0.00 0.00 0.00 0.00 0.00 0.00 0.00 0.00 0.00 0.00 0.00 0.00 0.00 0.00 0.00 0.00 0.01 0.01 0.01 0.00 0.00 0.00 0.00 0.00 0.00 0.00 0.00 0.00
0.00 0.00 0.00 0.00 0.00 0.00 0.00 0.00 0.00 0.00 0.00 0.00 0.00 0.00 0.00 0.00 0.00 0.00 0.00 0.00 0.00 0.00 0.00 0.00 0.00 0.00 0.00 0.00 0.01 0.01 0.00 0.00 0.00 0.00 0.00 0.00 0.00 0.00
0.00 0.00 0.00 0.00 0.00 0.00 0.00 0.00 0.00 0.00 0.00 0.00 0.00 0.00 0.00 0.00 0.00 0.00 0.00 0.00 0.00 0.00 0.00 0.00 0.00 0.00 0.00 0.00 0.01 0.00 0.00 0.00 0.00 0.00 0.00 0.00 0.00 0.00
0.00 0.00 0.00 0.00 0.00 0.00 0.00 0.00 0.00 0.00 0.00 0.00 0.00 0.00 0.00 0.00 0.00 0.00 0.00 0.00 0.00 0.00 0.00 0.00 0.00 0.00 0.00 0.00 0.00 0.00 0.00 0.00 0.00 0.00 0.00 0.01 0.00 0.00
0.00 0.01 0.00 0.00 0.00 0.00 0.00 0.00 0.00 0.00 0.00 0.00 0.00 0.00 0.00 0.00 0.00 0.00 0.00 0.00 0.00 0.00 0.00 0.00 0.00 0.00 0.01 0.01 0.00 0.00 0.00 0.00 0.00 0.00 0.00 0.00 0.00 0.00
0.00 0.01 0.00 0.00 0.00 0.00 0.00 0.00 0.00 0.00 0.00 0.00 0.00 0.00 0.00 0.00 0.00 0.00 0.00 0.00 0.00 0.00 0.00 0.00 0.00 0.00 0.01 0.01 0.01 0.00 0.00 0.00 0.00 0.00 0.00 0.00 0.00 0.00
0.00 0.00 0.00 0.00 0.00 0.00 0.00 0.00 0.00 0.00 0.00 0.00 0.00 0.00 0.00 0.00 0.00 0.00 0.00 0.00 0.00 0.00 0.00 0.00 0.00 0.01 0.05 0.09 0.06 0.01 0.00 0.00 0.00 0.00 0.00 0.02 0.01 0.00
0.00 0.00 0.00 0.00 0.00 0.00 0.00 0.00 0.00 0.00 0.00 0.00 0.00 0.00 0.00 0.00 0.00 0.00 0.00 0.00 0.00 0.00 0.00 0.00 0.00 0.01 0.02 0.05 0.02 0.00 0.00 0.00 0.00 0.00 0.00 0.01 0.02 0.02
0.00 0.01 0.00 0.00 0.00 0.01 0.02 0.02 0.02 0.01 0.00 0.01 0.00 0.00 0.00 0.01 0.01 0.02 0.01 0.01 0.01 0.01 0.01 0.01 0.01 0.03 0.03 0.03 0.03 0.01 0.00 0.00 0.00 0.00 0.00 0.00 0.00 0.00

GFSNE_prec_precacc24_099.txt.gz
Total_Precipitation_Accumulation
0.00 0.00 0.00 0.01 0.01 0.01 0.02 0.02 0.04 0.03 0.02 0.00 0.00 0.00 0.00 0.00 0.01 0.00 0.00 0.02 0.02 0.03 0.04 0.03 0.03 0.03 0.02 0.03 0.04 0.04 0.05 0.23 0.66 0.50 0.31 0.20 0.27 0.47
0.00 0.00 0.00 0.00 0.00 0.01 0.01 0.01 0.01 0.02 0.03 0.00 0.00 0.01 0.01 0.00 0.02 0.00 0.00 0.01 0.00 0.02 0.02 0.02 0.02 0.03 0.02 0.02 0.04 0.06 0.07 0.08 0.17 0.42 0.46 0.40 0.44 0.62
0.00 0.00 0.00 0.00 0.00 0.00 0.00 0.00 0.00 0.02 0.03 0.01 0.00 0.01 0.01 0.01 0.00 0.00 0.00 0.00 0.00 0.01 0.00 0.01 0.00 0.01 0.00 0.00 0.00 0.00 0.03 0.08 0.10 0.21 0.42 0.68 0.52 0.25
0.00 0.00 0.00 0.00 0.00 0.00 0.00 0.00 0.00 0.00 0.01 0.01 0.00 0.01 0.00 0.01 0.00 0.01 0.00 0.00 0.00 0.02 0.00 0.00 0.00 0.00 0.00 0.00 0.00 0.00 0.00 0.01 0.05 0.13 0.18 0.28 0.37 0.22
0.00 0.00 0.00 0.00 0.00 0.00 0.00 0.00 0.00 0.00 0.00 0.01 0.01 0.00 0.00 0.00 0.00 0.00 0.00 0.00 0.00 0.00 0.00 0.00 0.00 0.00 0.00 0.00 0.00 0.00 0.00 0.00 0.00 0.05 0.16 0.15 0.15 0.25
0.00 0.00 0.00 0.00 0.00 0.00 0.00 0.00 0.00 0.00 0.00 0.01 0.01 0.01 0.01 0.00 0.00 0.00 0.00 0.00 0.00 0.00 0.00 0.00 0.00 0.00 0.00 0.00 0.00 0.00 0.00 0.00 0.00 0.00 0.08 0.15 0.12 0.12
0.00 0.00 0.00 0.00 0.00 0.00 0.00 0.00 0.00 0.00 0.00 0.00 0.00 0.00 0.00 0.00 0.00 0.00 0.00 0.00 0.00 0.00 0.00 0.00 0.00 0.00 0.00 0.00 0.00 0.00 0.00 0.00 0.00 0.00 0.01 0.06 0.11 0.14
0.00 0.00 0.00 0.00 0.00 0.00 0.00 0.00 0.00 0.00 0.00 0.00 0.00 0.00 0.00 0.00 0.00 0.00 0.00 0.00 0.00 0.00 0.00 0.00 0.00 0.00 0.00 0.00 0.00 0.00 0.00 0.00 0.00 0.00 0.00 0.01 0.01 0.04
0.00 0.00 0.00 0.00 0.00 0.00 0.00 0.00 0.00 0.00 0.00 0.00 0.00 0.00 0.00 0.00 0.00 0.00 0.00 0.00 0.00 0.00 0.00 0.00 0.00 0.00 0.00 0.00 0.00 0.00 0.00 0.00 0.00 0.00 0.00 0.00 0.00 0.00
0.00 0.00 0.00 0.00 0.00 0.00 0.00 0.00 0.00 0.00 0.00 0.00 0.00 0.00 0.00 0.00 0.00 0.00 0.00 0.00 0.00 0.00 0.00 0.00 0.00 0.00 0.00 0.00 0.00 0.00 0.00 0.00 0.00 0.00 0.00 0.00 0.00 0.00
0.00 0.00 0.00 0.00 0.00 0.00 0.00 0.00 0.00 0.00 0.00 0.00 0.00 0.00 0.00 0.00 0.00 0.00 0.00 0.00 0.00 0.00 0.00 0.00 0.00 0.00 0.00 0.00 0.00 0.00 0.00 0.00 0.00 0.00 0.00 0.00 0.00 0.00
0.00 0.00 0.00 0.00 0.00 0.00 0.00 0.00 0.00 0.00 0.00 0.00 0.00 0.00 0.00 0.00 0.00 0.00 0.00 0.00 0.00 0.00 0.00 0.00 0.00 0.00 0.00 0.00 0.00 0.00 0.00 0.00 0.00 0.00 0.00 0.00 0.00 0.00
0.00 0.00 0.00 0.00 0.00 0.00 0.00 0.00 0.00 0.00 0.00 0.00 0.00 0.00 0.00 0.00 0.00 0.00 0.00 0.00 0.00 0.00 0.00 0.00 0.00 0.00 0.00 0.00 0.00 0.00 0.00 0.00 0.00 0.00 0.00 0.00 0.00 0.00
0.00 0.00 0.00 0.00 0.00 0.00 0.00 0.00 0.00 0.00 0.00 0.00 0.00 0.00 0.00 0.00 0.00 0.00 0.00 0.00 0.00 0.00 0.00 0.00 0.00 0.00 0.00 0.00 0.00 0.00 0.00 0.00 0.00 0.00 0.00 0.00 0.00 0.00
0.00 0.00 0.00 0.00 0.00 0.00 0.00 0.00 0.00 0.00 0.00 0.00 0.00 0.00 0.00 0.00 0.00 0.00 0.00 0.00 0.00 0.00 0.00 0.00 0.00 0.00 0.00 0.00 0.00 0.00 0.00 0.00 0.00 0.00 0.00 0.00 0.00 0.00
0.00 0.00 0.00 0.00 0.00 0.00 0.00 0.00 0.00 0.00 0.00 0.00 0.00 0.00 0.00 0.00 0.00 0.00 0.00 0.00 0.00 0.00 0.00 0.00 0.00 0.00 0.00 0.00 0.00 0.00 0.00 0.00 0.00 0.00 0.00 0.00 0.00 0.00
0.00 0.00 0.00 0.00 0.00 0.00 0.00 0.00 0.00 0.00 0.00 0.00 0.00 0.00 0.00 0.00 0.00 0.00 0.00 0.00 0.00 0.00 0.00 0.00 0.00 0.00 0.00 0.00 0.00 0.00 0.00 0.00 0.00 0.00 0.00 0.00 0.00 0.00
0.00 0.00 0.00 0.00 0.00 0.00 0.00 0.00 0.00 0.00 0.00 0.00 0.00 0.00 0.00 0.00 0.00 0.00 0.00 0.00 0.00 0.00 0.00 0.00 0.00 0.00 0.00 0.00 0.00 0.00 0.00 0.00 0.00 0.00 0.00 0.00 0.00 0.00
0.00 0.01 0.00 0.00 0.00 0.00 0.00 0.01 0.01 0.00 0.00 0.00 0.00 0.00 0.00 0.00 0.00 0.00 0.00 0.00 0.00 0.00 0.00 0.00 0.00 0.00 0.00 0.00 0.00 0.00 0.00 0.00 0.00 0.00 0.00 0.00 0.00 0.00
0.00 0.01 0.00 0.00 0.00 0.00 0.00 0.00 0.00 0.00 0.00 0.00 0.00 0.00 0.00 0.00 0.00 0.00 0.00 0.00 0.00 0.00 0.00 0.00 0.00 0.00 0.00 0.00 0.00 0.00 0.00 0.00 0.00 0.00 0.00 0.00 0.00 0.00
0.00 0.01 0.01 0.00 0.00 0.00 0.00 0.00 0.00 0.00 0.00 0.00 0.00 0.00 0.00 0.00 0.00 0.00 0.00 0.00 0.00 0.00 0.00 0.00 0.00 0.00 0.03 0.05 0.04 0.00 0.00 0.00 0.00 0.00 0.00 0.01 0.00 0.00
0.00 0.00 0.00 0.00 0.00 0.00 0.00 0.00 0.00 0.00 0.00 0.00 0.00 0.00 0.00 0.00 0.00 0.00 0.00 0.00 0.00 0.00 0.00 0.00 0.00 0.00 0.01 0.03 0.01 0.00 0.00 0.00 0.00 0.00 0.00 0.01 0.01 0.01
0.00 0.01 0.01 0.00 0.02 0.03 0.03 0.02 0.02 0.01 0.00 0.01 0.00 0.00 0.00 0.01 0.01 0.01 0.01 0.00 0.00 0.01 0.01 0.01 0.01 0.02 0.02 0.02 0.02 0.01 0.00 0.00 0.00 0.00 0.00 0.00 0.00 0.00

GFSNE_prec_precacc24_105.txt.gz
Total_Precipitation_Accumulation
0.00 0.00 0.00 0.00 0.00 0.00 0.00 0.00 0.03 0.02 0.02 0.00 0.00 0.00 0.00 0.00 0.01 0.00 0.00 0.02 0.01 0.01 0.01 0.01 0.02 0.02 0.01 0.01 0.03 0.04 0.04 0.05 0.05 0.07 0.11 0.13 0.19 0.35
0.01 0.00 0.00 0.00 0.00 0.00 0.00 0.01 0.01 0.02 0.03 0.00 0.00 0.01 0.01 0.00 0.02 0.00 0.00 0.01 0.00 0.00 0.00 0.01 0.01 0.01 0.01 0.01 0.02 0.02 0.03 0.04 0.05 0.07 0.11 0.17 0.26 0.44
0.02 0.01 0.00 0.00 0.00 0.00 0.00 0.00 0.00 0.02 0.03 0.01 0.00 0.01 0.01 0.01 0.00 0.00 0.00 0.00 0.00 0.01 0.00 0.00 0.00 0.01 0.00 0.00 0.00 0.00 0.00 0.02 0.03 0.06 0.17 0.38 0.32 0.11
0.01 0.00 0.00 0.00 0.00 0.00 0.00 0.00 0.00 0.00 0.01 0.01 0.00 0.01 0.00 0.01 0.00 0.01 0.00 0.00 0.00 0.02 0.00 0.00 0.00 0.00 0.00 0.00 0.00 0.00 0.00 0.00 0.02 0.09 0.13 0.22 0.32 0.18
0.01 0.00 0.00 0.00 0.00 0.00 0.00 0.00 0.00 0.00 0.00 0.01 0.01 0.00 0.00 0.00 0.00 0.00 0.00 0.00 0.00 0.00 0.00 0.00 0.00 0.00 0.00 0.00 0.00 0.00 0.00 0.00 0.00 0.05 0.16 0.18 0.17 0.27
0.02 0.01 0.00 0.00 0.00 0.00 0.00 0.00 0.00 0.00 0.00 0.01 0.01 0.01 0.01 0.00 0.00 0.00 0.00 0.00 0.00 0.00 0.00 0.00 0.00 0.00 0.00 0.00 0.00 0.00 0.00 0.00 0.00 0.00 0.10 0.24 0.19 0.18
0.02 0.02 0.01 0.01 0.00 0.00 0.00 0.00 0.00 0.00 0.00 0.00 0.00 0.00 0.00 0.00 0.00 0.00 0.00 0.00 0.00 0.00 0.00 0.00 0.00 0.00 0.00 0.00 0.00 0.00 0.00 0.00 0.00 0.00 0.02 0.15 0.25 0.24
0.00 0.00 0.00 0.00 0.00 0.00 0.00 0.00 0.00 0.00 0.00 0.00 0.00 0.00 0.00 0.00 0.00 0.00 0.00 0.00 0.00 0.00 0.00 0.00 0.00 0.00 0.00 0.00 0.00 0.00 0.00 0.00 0.00 0.00 0.00 0.03 0.11 0.14
0.00 0.00 0.00 0.00 0.00 0.00 0.00 0.00 0.00 0.00 0.00 0.00 0.00 0.00 0.00 0.00 0.00 0.00 0.00 0.00 0.00 0.00 0.00 0.00 0.00 0.00 0.00 0.00 0.00 0.00 0.00 0.00 0.00 0.00 0.00 0.00 0.01 0.01
0.00 0.00 0.00 0.00 0.00 0.00 0.00 0.00 0.00 0.00 0.00 0.00 0.00 0.00 0.00 0.00 0.00 0.00 0.00 0.00 0.00 0.00 0.00 0.00 0.00 0.00 0.00 0.00 0.00 0.00 0.00 0.00 0.00 0.00 0.00 0.00 0.00 0.00
0.00 0.00 0.00 0.00 0.00 0.00 0.00 0.00 0.00 0.00 0.00 0.00 0.00 0.00 0.00 0.00 0.00 0.00 0.00 0.00 0.00 0.00 0.00 0.00 0.00 0.00 0.00 0.00 0.00 0.00 0.00 0.00 0.00 0.00 0.00 0.00 0.00 0.00
0.00 0.00 0.00 0.00 0.00 0.00 0.00 0.00 0.00 0.00 0.00 0.00 0.00 0.00 0.00 0.00 0.00 0.00 0.00 0.00 0.00 0.00 0.00 0.00 0.00 0.00 0.00 0.00 0.00 0.00 0.00 0.00 0.00 0.00 0.00 0.00 0.00 0.00
0.00 0.00 0.00 0.00 0.00 0.00 0.00 0.00 0.00 0.00 0.00 0.00 0.00 0.00 0.00 0.00 0.00 0.00 0.00 0.00 0.00 0.00 0.00 0.00 0.00 0.00 0.00 0.00 0.00 0.00 0.00 0.00 0.00 0.00 0.00 0.00 0.00 0.00
0.00 0.01 0.02 0.04 0.02 0.01 0.00 0.00 0.00 0.00 0.00 0.00 0.00 0.00 0.00 0.00 0.00 0.00 0.00 0.00 0.00 0.00 0.00 0.00 0.00 0.00 0.00 0.00 0.00 0.00 0.00 0.00 0.00 0.00 0.00 0.00 0.00 0.00
0.06 0.07 0.12 0.17 0.12 0.08 0.04 0.00 0.00 0.00 0.00 0.00 0.00 0.00 0.00 0.00 0.00 0.00 0.00 0.00 0.00 0.00 0.00 0.00 0.00 0.00 0.00 0.00 0.00 0.00 0.00 0.00 0.00 0.00 0.00 0.00 0.00 0.00
0.11 0.09 0.12 0.16 0.16 0.13 0.11 0.07 0.01 0.00 0.00 0.00 0.00 0.00 0.00 0.00 0.00 0.00 0.00 0.00 0.00 0.00 0.00 0.00 0.00 0.00 0.00 0.00 0.00 0.00 0.00 0.00 0.00 0.00 0.00 0.00 0.00 0.00
0.24 0.20 0.18 0.12 0.12 0.14 0.13 0.10 0.05 0.02 0.00 0.00 0.00 0.00 0.00 0.00 0.00 0.00 0.00 0.00 0.00 0.00 0.00 0.00 0.00 0.00 0.00 0.00 0.00 0.00 0.00 0.00 0.00 0.00 0.00 0.00 0.00 0.00
0.37 0.22 0.15 0.13 0.13 0.12 0.12 0.11 0.10 0.05 0.01 0.00 0.00 0.00 0.00 0.00 0.00 0.00 0.00 0.00 0.00 0.00 0.00 0.00 0.00 0.00 0.00 0.00 0.00 0.00 0.00 0.00 0.00 0.00 0.00 0.00 0.00 0.00
0.31 0.17 0.16 0.14 0.13 0.13 0.15 0.13 0.07 0.05 0.01 0.00 0.00 0.00 0.00 0.00 0.00 0.00 0.00 0.00 0.00 0.00 0.00 0.00 0.00 0.00 0.00 0.00 0.00 0.00 0.00 0.00 0.00 0.00 0.00 0.00 0.00 0.00
0.13 0.08 0.14 0.16 0.16 0.15 0.12 0.10 0.08 0.05 0.01 0.00 0.00 0.00 0.00 0.00 0.00 0.00 0.00 0.00 0.00 0.00 0.00 0.00 0.00 0.00 0.00 0.00 0.00 0.00 0.00 0.00 0.00 0.00 0.00 0.00 0.00 0.00
0.14 0.11 0.14 0.20 0.20 0.17 0.11 0.06 0.04 0.01 0.00 0.00 0.00 0.00 0.00 0.00 0.00 0.00 0.00 0.00 0.00 0.00 0.00 0.00 0.00 0.00 0.00 0.01 0.01 0.00 0.00 0.00 0.00 0.00 0.00 0.01 0.00 0.00
0.23 0.27 0.27 0.30 0.27 0.17 0.11 0.06 0.03 0.01 0.00 0.00 0.00 0.00 0.00 0.00 0.00 0.00 0.00 0.00 0.00 0.00 0.00 0.00 0.00 0.00 0.00 0.01 0.00 0.00 0.00 0.00 0.00 0.00 0.00 0.00 0.00 0.00
0.32 0.31 0.30 0.30 0.25 0.18 0.11 0.08 0.06 0.05 0.04 0.02 0.00 0.00 0.00 0.01 0.01 0.01 0.01 0.00 0.00 0.00 0.00 0.01 0.01 0.02 0.01 0.01 0.01 0.00 0.00 0.00 0.00 0.00 0.00 0.00 0.00 0.00

GFSNE_prec_precacc24_108.txt.gz
Total_Precipitation_Accumulation
0.02 0.01 0.00 0.00 0.00 0.00 0.00 0.00 0.02 0.02 0.01 0.00 0.00 0.00 0.00 0.00 0.01 0.00 0.00 0.02 0.01 0.00 0.01 0.01 0.01 0.01 0.01 0.01 0.02 0.03 0.03 0.04 0.05 0.07 0.07 0.08 0.15 0.24
0.01 0.00 0.00 0.00 0.00 0.00 0.00 0.01 0.01 0.02 0.03 0.00 0.00 0.01 0.01 0.00 0.02 0.00 0.00 0.01 0.00 0.00 0.00 0.00 0.01 0.01 0.00 0.01 0.02 0.02 0.02 0.03 0.04 0.06 0.06 0.09 0.15 0.25
0.03 0.02 0.01 0.00 0.00 0.00 0.00 0.00 0.00 0.02 0.03 0.01 0.00 0.01 0.01 0.01 0.00 0.00 0.00 0.00 0.00 0.01 0.00 0.00 0.00 0.00 0.00 0.00 0.00 0.00 0.00 0.02 0.03 0.06 0.07 0.12 0.15 0.09
0.07 0.06 0.06 0.07 0.02 0.03 0.02 0.00 0.00 0.00 0.01 0.01 0.00 0.01 0.00 0.01 0.00 0.01 0.00 0.00 0.00 0.02 0.00 0.00 0.00 0.00 0.00 0.00 0.00 0.00 0.00 0.00 0.02 0.08 0.10 0.14 0.24 0.15
0.12 0.12 0.10 0.08 0.02 0.02 0.02 0.00 0.00 0.00 0.00 0.01 0.01 0.00 0.00 0.00 0.00 0.00 0.00 0.00 0.00 0.00 0.00 0.00 0.00 0.00 0.00 0.00 0.00 0.00 0.00 0.00 0.00 0.05 0.15 0.16 0.18 0.27
0.07 0.08 0.08 0.07 0.04 0.03 0.01 0.01 0.01 0.00 0.00 0.01 0.01 0.01 0.01 0.00 0.00 0.00 0.00 0.00 0.00 0.00 0.00 0.00 0.00 0.00 0.00 0.00 0.00 0.00 0.00 0.00 0.00 0.01 0.10 0.24 0.22 0.21
0.03 0.03 0.04 0.05 0.06 0.06 0.02 0.03 0.04 0.00 0.00 0.00 0.00 0.00 0.00 0.00 0.00 0.00 0.00 0.00 0.00 0.00 0.00 0.00 0.00 0.00 0.00 0.00 0.00 0.00 0.00 0.00 0.00 0.00 0.02 0.15 0.28 0.29
0.00 0.00 0.01 0.01 0.01 0.01 0.01 0.02 0.02 0.01 0.01 0.00 0.00 0.00 0.00 0.00 0.00 0.00 0.00 0.00 0.00 0.00 0.00 0.00 0.00 0.00 0.00 0.00 0.00 0.00 0.00 0.00 0.00 0.00 0.00 0.04 0.15 0.17
0.00 0.00 0.00 0.00 0.01 0.00 0.00 0.01 0.01 0.01 0.01 0.00 0.00 0.00 0.00 0.00 0.00 0.00 0.00 0.00 0.00 0.00 0.00 0.00 0.00 0.00 0.00 0.00 0.00 0.00 0.00 0.00 0.00 0.00 0.00 0.00 0.03 0.01
0.00 0.00 0.00 0.00 0.00 0.00 0.00 0.00 0.00 0.00 0.00 0.00 0.00 0.00 0.00 0.00 0.00 0.00 0.00 0.00 0.00 0.00 0.00 0.00 0.00 0.00 0.00 0.00 0.00 0.00 0.00 0.00 0.00 0.00 0.00 0.00 0.00 0.00
0.00 0.00 0.00 0.00 0.00 0.00 0.00 0.00 0.00 0.00 0.00 0.00 0.00 0.00 0.00 0.00 0.00 0.00 0.00 0.00 0.00 0.00 0.00 0.00 0.00 0.00 0.00 0.00 0.00 0.00 0.00 0.00 0.00 0.00 0.00 0.00 0.00 0.00
0.00 0.00 0.00 0.00 0.00 0.00 0.00 0.00 0.00 0.00 0.00 0.00 0.00 0.00 0.00 0.00 0.00 0.00 0.00 0.00 0.00 0.00 0.00 0.00 0.00 0.00 0.00 0.00 0.00 0.00 0.00 0.00 0.00 0.00 0.00 0.00 0.00 0.00
0.00 0.00 0.00 0.00 0.00 0.00 0.00 0.00 0.00 0.00 0.00 0.00 0.00 0.00 0.00 0.00 0.00 0.00 0.00 0.00 0.00 0.00 0.00 0.00 0.00 0.00 0.00 0.00 0.00 0.00 0.00 0.00 0.00 0.00 0.00 0.00 0.00 0.00
0.02 0.01 0.03 0.07 0.04 0.02 0.01 0.00 0.00 0.00 0.00 0.00 0.00 0.00 0.00 0.00 0.00 0.00 0.00 0.00 0.00 0.00 0.00 0.00 0.00 0.00 0.00 0.00 0.00 0.00 0.00 0.00 0.00 0.00 0.00 0.00 0.00 0.00
0.07 0.10 0.16 0.25 0.21 0.16 0.12 0.07 0.05 0.03 0.00 0.00 0.00 0.00 0.00 0.00 0.00 0.00 0.00 0.00 0.00 0.00 0.00 0.00 0.00 0.00 0.00 0.00 0.00 0.00 0.00 0.00 0.00 0.00 0.00 0.00 0.00 0.00
0.14 0.12 0.16 0.21 0.25 0.20 0.20 0.25 0.21 0.13 0.07 0.05 0.02 0.00 0.00 0.00 0.00 0.00 0.00 0.00 0.00 0.00 0.00 0.00 0.00 0.00 0.00 0.00 0.00 0.00 0.00 0.00 0.00 0.00 0.00 0.00 0.00 0.00
0.27 0.22 0.21 0.15 0.15 0.18 0.18 0.18 0.20 0.18 0.21 0.18 0.12 0.04 0.01 0.01 0.01 0.00 0.00 0.00 0.00 0.00 0.00 0.00 0.00 0.00 0.00 0.00 0.00 0.00 0.00 0.00 0.00 0.00 0.00 0.00 0.00 0.00
0.41 0.24 0.15 0.13 0.13 0.14 0.16 0.17 0.20 0.19 0.17 0.17 0.13 0.05 0.03 0.01 0.00 0.00 0.00 0.00 0.00 0.00 0.00 0.00 0.00 0.00 0.00 0.00 0.00 0.00 0.00 0.00 0.00 0.00 0.00 0.00 0.00 0.00
0.35 0.20 0.16 0.14 0.13 0.14 0.17 0.19 0.16 0.14 0.14 0.15 0.12 0.08 0.04 0.01 0.00 0.00 0.00 0.00 0.00 0.00 0.00 0.00 0.00 0.00 0.00 0.00 0.00 0.00 0.00 0.00 0.00 0.00 0.00 0.00 0.00 0.00
0.15 0.12 0.16 0.16 0.18 0.19 0.19 0.18 0.17 0.18 0.16 0.12 0.08 0.05 0.03 0.01 0.00 0.00 0.00 0.00 0.00 0.00 0.00 0.00 0.00 0.00 0.00 0.00 0.00 0.00 0.00 0.00 0.00 0.00 0.00 0.00 0.00 0.00
0.14 0.15 0.17 0.23 0.27 0.27 0.24 0.19 0.16 0.13 0.11 0.09 0.07 0.05 0.02 0.00 0.00 0.00 0.00 0.00 0.00 0.00 0.00 0.00 0.00 0.00 0.00 0.00 0.00 0.00 0.00 0.00 0.00 0.00 0.00 0.00 0.00 0.00
0.24 0.30 0.31 0.35 0.34 0.30 0.25 0.21 0.16 0.13 0.11 0.08 0.05 0.03 0.01 0.00 0.00 0.00 0.00 0.00 0.00 0.00 0.00 0.00 0.00 0.00 0.00 0.00 0.00 0.00 0.00 0.00 0.00 0.00 0.00 0.00 0.00 0.00
0.34 0.36 0.35 0.37 0.35 0.29 0.22 0.17 0.15 0.14 0.12 0.10 0.05 0.02 0.00 0.01 0.01 0.01 0.01 0.00 0.00 0.00 0.00 0.01 0.01 0.02 0.00 0.00 0.00 0.00 0.00 0.00 0.00 0.00 0.00 0.00 0.00 0.00

GFSNE_prec_precacc24_111.txt.gz
Total_Precipitation_Accumulation
0.06 0.05 0.04 0.04 0.03 0.03 0.08 0.11 0.11 0.09 0.04 0.01 0.00 0.00 0.00 0.00 0.01 0.00 0.00 0.02 0.01 0.00 0.01 0.01 0.01 0.01 0.00 0.01 0.01 0.03 0.02 0.02 0.04 0.06 0.07 0.07 0.07 0.13
0.03 0.02 0.03 0.02 0.00 0.00 0.00 0.00 0.01 0.02 0.02 0.00 0.00 0.00 0.00 0.00 0.01 0.00 0.00 0.01 0.00 0.00 0.00 0.00 0.00 0.00 0.00 0.01 0.01 0.01 0.01 0.02 0.04 0.06 0.06 0.06 0.08 0.14
0.05 0.04 0.03 0.02 0.01 0.00 0.00 0.01 0.02 0.02 0.03 0.01 0.00 0.01 0.01 0.01 0.00 0.00 0.00 0.00 0.00 0.01 0.00 0.00 0.00 0.00 0.00 0.00 0.00 0.00 0.00 0.01 0.02 0.05 0.06 0.05 0.07 0.07
0.08 0.09 0.10 0.14 0.13 0.12 0.10 0.06 0.04 0.03 0.03 0.01 0.00 0.01 0.00 0.01 0.00 0.01 0.00 0.00 0.00 0.02 0.00 0.00 0.00 0.00 0.00 0.00 0.00 0.00 0.00 0.00 0.01 0.07 0.07 0.08 0.13 0.10
0.13 0.14 0.14 0.19 0.26 0.34 0.36 0.28 0.17 0.08 0.04 0.02 0.01 0.00 0.00 0.00 0.00 0.00 0.00 0.00 0.00 0.00 0.00 0.00 0.00 0.00 0.00 0.00 0.00 0.00 0.00 0.00 0.00 0.04 0.14 0.14 0.14 0.21
0.08 0.09 0.09 0.09 0.10 0.12 0.16 0.19 0.20 0.13 0.05 0.03 0.02 0.01 0.01 0.00 0.00 0.00 0.00 0.00 0.00 0.00 0.00 0.00 0.00 0.00 0.00 0.00 0.00 0.00 0.00 0.00 0.00 0.01 0.10 0.24 0.23 0.22
0.03 0.03 0.05 0.07 0.08 0.09 0.12 0.16 0.21 0.25 0.21 0.16 0.09 0.05 0.03 0.01 0.00 0.00 0.00 0.00 0.00 0.00 0.00 0.00 0.00 0.00 0.00 0.00 0.00 0.00 0.00 0.00 0.00 0.00 0.02 0.16 0.29 0.31
0.00 0.00 0.01 0.02 0.02 0.02 0.03 0.06 0.09 0.14 0.17 0.18 0.18 0.12 0.08 0.07 0.02 0.00 0.00 0.00 0.00 0.00 0.00 0.00 0.00 0.00 0.00 0.00 0.00 0.00 0.00 0.00 0.00 0.00 0.00 0.04 0.16 0.19
0.00 0.00 0.00 0.00 0.01 0.00 0.02 0.03 0.03 0.03 0.03 0.04 0.07 0.07 0.08 0.06 0.03 0.00 0.00 0.00 0.00 0.00 0.00 0.00 0.00 0.00 0.00 0.00 0.00 0.00 0.00 0.00 0.00 0.00 0.00 0.00 0.03 0.02
0.00 0.00 0.00 0.00 0.00 0.00 0.00 0.00 0.00 0.01 0.02 0.02 0.01 0.01 0.00 0.00 0.00 0.00 0.00 0.00 0.00 0.00 0.00 0.00 0.00 0.00 0.00 0.00 0.00 0.00 0.00 0.00 0.00 0.00 0.00 0.00 0.00 0.01
0.00 0.00 0.00 0.00 0.00 0.01 0.00 0.00 0.00 0.00 0.00 0.00 0.00 0.00 0.00 0.00 0.00 0.00 0.00 0.00 0.00 0.00 0.00 0.00 0.00 0.00 0.00 0.00 0.00 0.00 0.00 0.00 0.00 0.00 0.00 0.00 0.00 0.00
0.00 0.00 0.00 0.00 0.01 0.01 0.01 0.00 0.00 0.01 0.02 0.03 0.02 0.00 0.00 0.00 0.00 0.00 0.00 0.00 0.00 0.00 0.00 0.00 0.00 0.00 0.00 0.00 0.00 0.00 0.00 0.00 0.00 0.00 0.00 0.00 0.00 0.00
0.00 0.00 0.00 0.01 0.02 0.02 0.03 0.02 0.01 0.01 0.01 0.01 0.00 0.00 0.00 0.00 0.00 0.00 0.00 0.00 0.00 0.00 0.00 0.00 0.00 0.00 0.00 0.00 0.00 0.00 0.00 0.00 0.00 0.00 0.00 0.00 0.00 0.00
0.02 0.02 0.03 0.09 0.08 0.06 0.06 0.04 0.03 0.04 0.02 0.01 0.00 0.00 0.00 0.00 0.00 0.00 0.00 0.00 0.00 0.00 0.00 0.00 0.00 0.00 0.00 0.00 0.00 0.00 0.00 0.00 0.00 0.00 0.00 0.00 0.00 0.00
0.08 0.11 0.18 0.27 0.24 0.20 0.18 0.13 0.11 0.09 0.04 0.04 0.01 0.00 0.00 0.00 0.00 0.00 0.00 0.00 0.00 0.00 0.00 0.00 0.00 0.00 0.00 0.00 0.00 0.00 0.00 0.00 0.00 0.00 0.00 0.00 0.00 0.00
0.14 0.14 0.20 0.25 0.29 0.25 0.27 0.33 0.30 0.18 0.14 0.13 0.12 0.13 0.12 0.04 0.01 0.00 0.00 0.00 0.00 0.00 0.00 0.00 0.00 0.00 0.00 0.00 0.00 0.00 0.00 0.00 0.00 0.00 0.00 0.00 0.00 0.00
0.28 0.23 0.22 0.17 0.18 0.21 0.22 0.23 0.29 0.25 0.29 0.29 0.30 0.25 0.17 0.07 0.04 0.03 0.02 0.01 0.00 0.00 0.00 0.00 0.00 0.00 0.00 0.00 0.00 0.00 0.00 0.00 0.00 0.00 0.00 0.00 0.00 0.00
0.41 0.24 0.16 0.14 0.14 0.15 0.18 0.22 0.29 0.30 0.29 0.31 0.31 0.28 0.20 0.12 0.09 0.07 0.04 0.02 0.01 0.01 0.00 0.00 0.00 0.00 0.00 0.00 0.00 0.00 0.00 0.00 0.00 0.00 0.00 0.00 0.00 0.00
0.36 0.20 0.18 0.15 0.13 0.15 0.19 0.22 0.21 0.20 0.23 0.30 0.29 0.24 0.19 0.16 0.15 0.11 0.07 0.02 0.00 0.00 0.00 0.00 0.00 0.00 0.00 0.00 0.00 0.00 0.00 0.00 0.00 0.00 0.00 0.00 0.00 0.00
0.15 0.14 0.19 0.19 0.20 0.20 0.22 0.22 0.22 0.24 0.23 0.18 0.16 0.14 0.12 0.12 0.10 0.08 0.06 0.03 0.00 0.00 0.00 0.00 0.00 0.00 0.00 0.00 0.00 0.00 0.00 0.00 0.00 0.00 0.00 0.00 0.00 0.00
0.15 0.16 0.19 0.25 0.28 0.28 0.25 0.22 0.19 0.16 0.13 0.12 0.10 0.10 0.08 0.06 0.04 0.05 0.05 0.03 0.00 0.00 0.00 0.00 0.00 0.00 0.00 0.00 0.00 0.00 0.00 0.00 0.00 0.00 0.00 0.00 0.00 0.00
0.25 0.31 0.32 0.37 0.36 0.31 0.27 0.24 0.20 0.16 0.13 0.11 0.08 0.07 0.07 0.06 0.03 0.03 0.02 0.00 0.00 0.00 0.00 0.00 0.00 0.00 0.00 0.00 0.00 0.00 0.00 0.00 0.00 0.00 0.00 0.00 0.00 0.00
0.34 0.37 0.37 0.39 0.37 0.31 0.25 0.19 0.17 0.16 0.15 0.13 0.11 0.08 0.07 0.06 0.04 0.03 0.01 0.00 0.00 0.00 0.00 0.00 0.01 0.02 0.00 0.00 0.00 0.00 0.00 0.00 0.00 0.00 0.00 0.00 0.00 0.00

GFSNE_prec_precacc24_114.txt.gz
Total_Precipitation_Accumulation
0.08 0.06 0.06 0.05 0.05 0.06 0.12 0.17 0.26 0.28 0.15 0.08 0.08 0.07 0.07 0.07 0.05 0.01 0.00 0.02 0.01 0.00 0.00 0.00 0.00 0.00 0.00 0.00 0.01 0.02 0.02 0.02 0.03 0.06 0.07 0.07 0.06 0.07
0.04 0.04 0.05 0.06 0.07 0.08 0.10 0.11 0.10 0.08 0.04 0.01 0.02 0.05 0.06 0.06 0.03 0.01 0.00 0.01 0.00 0.00 0.00 0.00 0.00 0.00 0.00 0.00 0.01 0.01 0.01 0.02 0.03 0.05 0.06 0.06 0.07 0.07
0.06 0.04 0.03 0.04 0.06 0.06 0.06 0.05 0.04 0.05 0.06 0.05 0.04 0.05 0.05 0.03 0.01 0.00 0.00 0.00 0.00 0.01 0.00 0.00 0.00 0.00 0.00 0.00 0.00 0.00 0.00 0.00 0.01 0.03 0.05 0.05 0.06 0.06
0.10 0.12 0.12 0.15 0.15 0.16 0.18 0.18 0.21 0.24 0.25 0.16 0.13 0.14 0.09 0.03 0.02 0.01 0.00 0.00 0.00 0.02 0.00 0.00 0.00 0.00 0.00 0.00 0.00 0.00 0.00 0.00 0.01 0.05 0.04 0.06 0.09 0.09
0.14 0.15 0.15 0.20 0.28 0.35 0.40 0.42 0.42 0.40 0.39 0.30 0.21 0.16 0.13 0.11 0.09 0.04 0.00 0.00 0.00 0.00 0.00 0.00 0.00 0.00 0.00 0.00 0.00 0.00 0.00 0.00 0.00 0.04 0.10 0.11 0.12 0.18
0.08 0.09 0.09 0.09 0.10 0.13 0.17 0.21 0.23 0.27 0.28 0.26 0.21 0.17 0.15 0.15 0.17 0.13 0.08 0.03 0.00 0.00 0.00 0.00 0.00 0.00 0.00 0.00 0.00 0.00 0.00 0.00 0.00 0.01 0.10 0.24 0.21 0.22
0.03 0.03 0.05 0.07 0.08 0.10 0.13 0.17 0.24 0.30 0.30 0.30 0.28 0.26 0.22 0.19 0.19 0.17 0.14 0.07 0.02 0.00 0.00 0.00 0.00 0.00 0.00 0.00 0.00 0.00 0.00 0.00 0.00 0.00 0.02 0.16 0.29 0.32
0.00 0.00 0.01 0.02 0.02 0.03 0.05 0.08 0.11 0.15 0.20 0.22 0.22 0.21 0.18 0.19 0.19 0.14 0.11 0.08 0.05 0.00 0.00 0.00 0.00 0.00 0.00 0.00 0.00 0.00 0.00 0.00 0.00 0.00 0.00 0.04 0.16 0.20
0.00 0.00 0.00 0.00 0.01 0.00 0.02 0.04 0.04 0.06 0.06 0.06 0.08 0.10 0.11 0.11 0.13 0.10 0.07 0.04 0.01 0.00 0.00 0.00 0.00 0.00 0.00 0.00 0.00 0.00 0.00 0.00 0.00 0.00 0.00 0.00 0.03 0.02
0.00 0.00 0.00 0.00 0.00 0.00 0.00 0.00 0.00 0.02 0.03 0.05 0.04 0.05 0.05 0.06 0.05 0.02 0.01 0.00 0.00 0.00 0.00 0.00 0.00 0.00 0.00 0.00 0.00 0.00 0.00 0.00 0.00 0.00 0.00 0.00 0.00 0.01
0.00 0.00 0.00 0.00 0.00 0.01 0.00 0.00 0.00 0.01 0.01 0.03 0.02 0.03 0.04 0.04 0.03 0.02 0.01 0.00 0.00 0.00 0.00 0.00 0.00 0.00 0.00 0.00 0.00 0.00 0.00 0.00 0.00 0.00 0.00 0.00 0.00 0.00
0.00 0.00 0.00 0.00 0.01 0.01 0.01 0.01 0.02 0.02 0.04 0.08 0.11 0.10 0.05 0.01 0.01 0.00 0.00 0.00 0.00 0.00 0.00 0.00 0.00 0.00 0.00 0.00 0.00 0.00 0.00 0.00 0.00 0.00 0.00 0.00 0.00 0.00
0.00 0.00 0.00 0.02 0.02 0.03 0.06 0.04 0.03 0.04 0.07 0.11 0.10 0.08 0.10 0.11 0.10 0.07 0.03 0.00 0.00 0.00 0.00 0.00 0.00 0.00 0.00 0.00 0.00 0.00 0.00 0.00 0.00 0.00 0.00 0.00 0.00 0.00
0.02 0.02 0.03 0.11 0.09 0.07 0.08 0.08 0.08 0.09 0.06 0.05 0.05 0.06 0.06 0.06 0.03 0.05 0.06 0.02 0.00 0.00 0.00 0.00 0.00 0.00 0.00 0.00 0.00 0.00 0.00 0.00 0.00 0.00 0.00 0.00 0.00 0.00
0.08 0.12 0.19 0.27 0.25 0.21 0.21 0.18 0.17 0.15 0.08 0.07 0.04 0.03 0.03 0.06 0.10 0.09 0.04 0.00 0.00 0.00 0.00 0.00 0.00 0.00 0.00 0.00 0.00 0.00 0.00 0.00 0.00 0.00 0.00 0.00 0.00 0.00
0.14 0.14 0.20 0.25 0.30 0.27 0.31 0.39 0.39 0.26 0.17 0.16 0.15 0.19 0.24 0.18 0.10 0.08 0.06 0.03 0.01 0.00 0.00 0.00 0.00 0.00 0.00 0.00 0.00 0.00 0.00 0.00 0.00 0.00 0.00 0.00 0.00 0.00
0.29 0.23 0.22 0.17 0.18 0.22 0.25 0.28 0.37 0.34 0.36 0.37 0.42 0.36 0.30 0.20 0.14 0.12 0.08 0.05 0.01 0.01 0.00 0.00 0.00 0.00 0.00 0.00 0.00 0.00 0.00 0.00 0.00 0.00 0.00 0.00 0.00 0.00
0.42 0.25 0.16 0.15 0.15 0.16 0.19 0.24 0.33 0.37 0.35 0.37 0.40 0.41 0.36 0.25 0.16 0.12 0.09 0.08 0.05 0.05 0.03 0.01 0.00 0.00 0.00 0.00 0.00 0.00 0.00 0.00 0.00 0.00 0.00 0.00 0.00 0.00
0.36 0.20 0.18 0.16 0.15 0.16 0.21 0.26 0.26 0.24 0.30 0.37 0.38 0.33 0.28 0.23 0.22 0.18 0.13 0.08 0.06 0.05 0.03 0.02 0.01 0.00 0.00 0.00 0.00 0.00 0.00 0.00 0.00 0.00 0.00 0.00 0.00 0.00
0.15 0.14 0.20 0.19 0.21 0.22 0.24 0.25 0.26 0.28 0.28 0.23 0.21 0.19 0.20 0.20 0.18 0.14 0.14 0.10 0.06 0.04 0.03 0.02 0.01 0.00 0.00 0.00 0.00 0.00 0.00 0.00 0.00 0.00 0.00 0.00 0.00 0.00
0.14 0.16 0.19 0.26 0.29 0.29 0.27 0.26 0.25 0.22 0.18 0.18 0.16 0.15 0.12 0.11 0.09 0.10 0.13 0.14 0.09 0.04 0.01 0.01 0.00 0.00 0.00 0.00 0.00 0.00 0.00 0.00 0.00 0.00 0.00 0.00 0.00 0.00
0.25 0.32 0.32 0.38 0.37 0.32 0.29 0.28 0.25 0.23 0.18 0.14 0.13 0.12 0.11 0.09 0.05 0.05 0.07 0.08 0.05 0.01 0.01 0.01 0.00 0.00 0.00 0.00 0.00 0.00 0.00 0.00 0.00 0.00 0.00 0.00 0.00 0.00
0.34 0.38 0.37 0.39 0.38 0.33 0.27 0.23 0.21 0.19 0.18 0.16 0.15 0.13 0.11 0.10 0.07 0.05 0.05 0.03 0.02 0.02 0.00 0.00 0.00 0.00 0.00 0.00 0.00 0.00 0.00 0.00 0.00 0.00 0.00 0.00 0.00 0.00

GFSNE_prec_precacc24_117.txt.gz
Total_Precipitation_Accumulation
0.10 0.09 0.09 0.08 0.09 0.12 0.17 0.22 0.31 0.35 0.19 0.10 0.09 0.09 0.10 0.12 0.13 0.11 0.05 0.06 0.02 0.00 0.00 0.00 0.00 0.00 0.00 0.00 0.00 0.01 0.01 0.01 0.03 0.05 0.06 0.07 0.06 0.06
0.06 0.06 0.08 0.09 0.10 0.12 0.12 0.14 0.17 0.20 0.16 0.03 0.04 0.07 0.09 0.10 0.12 0.09 0.06 0.06 0.01 0.00 0.00 0.00 0.00 0.00 0.00 0.00 0.00 0.00 0.00 0.02 0.03 0.04 0.05 0.06 0.07 0.07
0.11 0.07 0.06 0.09 0.13 0.12 0.11 0.10 0.11 0.12 0.16 0.10 0.07 0.07 0.08 0.09 0.13 0.13 0.10 0.05 0.02 0.02 0.00 0.00 0.00 0.00 0.00 0.00 0.00 0.00 0.00 0.00 0.01 0.02 0.04 0.04 0.06 0.07
0.11 0.13 0.13 0.16 0.16 0.17 0.19 0.19 0.25 0.32 0.39 0.31 0.21 0.18 0.16 0.13 0.12 0.10 0.07 0.05 0.03 0.04 0.01 0.00 0.00 0.00 0.00 0.00 0.00 0.00 0.00 0.00 0.01 0.03 0.03 0.04 0.06 0.08
0.14 0.15 0.15 0.20 0.28 0.36 0.41 0.43 0.43 0.42 0.41 0.35 0.26 0.21 0.18 0.16 0.16 0.16 0.12 0.09 0.07 0.06 0.03 0.01 0.00 0.00 0.00 0.00 0.00 0.00 0.00 0.00 0.00 0.02 0.07 0.09 0.09 0.14
0.08 0.09 0.09 0.09 0.10 0.13 0.18 0.21 0.24 0.28 0.28 0.27 0.23 0.21 0.19 0.20 0.25 0.24 0.23 0.21 0.16 0.12 0.07 0.04 0.01 0.00 0.00 0.00 0.00 0.00 0.00 0.00 0.00 0.01 0.09 0.22 0.19 0.20
0.03 0.03 0.05 0.07 0.08 0.10 0.13 0.17 0.25 0.30 0.31 0.31 0.29 0.27 0.25 0.23 0.23 0.21 0.19 0.15 0.13 0.09 0.06 0.03 0.01 0.00 0.00 0.00 0.00 0.00 0.00 0.00 0.00 0.00 0.02 0.16 0.29 0.30
0.00 0.00 0.01 0.02 0.02 0.03 0.05 0.08 0.11 0.16 0.20 0.23 0.24 0.23 0.20 0.22 0.23 0.20 0.18 0.13 0.10 0.06 0.07 0.04 0.01 0.00 0.00 0.00 0.00 0.00 0.00 0.00 0.00 0.00 0.00 0.05 0.17 0.20
0.00 0.00 0.00 0.00 0.01 0.00 0.02 0.04 0.04 0.07 0.08 0.08 0.09 0.11 0.14 0.14 0.17 0.16 0.15 0.10 0.04 0.02 0.03 0.01 0.00 0.00 0.00 0.00 0.00 0.00 0.00 0.00 0.00 0.00 0.00 0.00 0.03 0.02
0.00 0.00 0.00 0.00 0.00 0.00 0.00 0.00 0.00 0.02 0.03 0.06 0.05 0.07 0.11 0.13 0.16 0.15 0.11 0.08 0.05 0.02 0.00 0.00 0.00 0.00 0.00 0.00 0.00 0.00 0.00 0.00 0.00 0.00 0.00 0.00 0.00 0.01
0.00 0.00 0.00 0.00 0.00 0.01 0.01 0.00 0.00 0.01 0.02 0.05 0.06 0.08 0.15 0.20 0.23 0.25 0.22 0.15 0.11 0.06 0.04 0.02 0.00 0.00 0.00 0.00 0.00 0.00 0.00 0.00 0.00 0.00 0.00 0.00 0.00 0.00
0.00 0.00 0.01 0.01 0.01 0.02 0.02 0.01 0.02 0.02 0.04 0.09 0.14 0.15 0.15 0.14 0.15 0.10 0.10 0.16 0.14 0.11 0.10 0.08 0.01 0.00 0.00 0.00 0.00 0.00 0.00 0.00 0.00 0.00 0.00 0.00 0.00 0.00
0.00 0.00 0.00 0.02 0.03 0.03 0.06 0.04 0.05 0.05 0.09 0.14 0.13 0.13 0.15 0.18 0.22 0.20 0.18 0.15 0.08 0.03 0.01 0.01 0.00 0.00 0.00 0.00 0.00 0.00 0.00 0.00 0.00 0.00 0.00 0.00 0.00 0.00
0.02 0.02 0.03 0.11 0.09 0.08 0.08 0.08 0.09 0.13 0.11 0.09 0.09 0.10 0.12 0.12 0.14 0.18 0.28 0.33 0.30 0.23 0.12 0.04 0.01 0.00 0.00 0.00 0.00 0.00 0.00 0.00 0.00 0.00 0.00 0.00 0.00 0.00
0.08 0.12 0.19 0.28 0.25 0.22 0.21 0.18 0.18 0.18 0.11 0.11 0.07 0.07 0.09 0.15 0.22 0.27 0.23 0.16 0.18 0.23 0.22 0.15 0.03 0.00 0.00 0.00 0.00 0.00 0.00 0.00 0.00 0.00 0.00 0.00 0.00 0.00
0.14 0.14 0.20 0.25 0.30 0.28 0.31 0.40 0.39 0.28 0.22 0.21 0.20 0.25 0.31 0.30 0.23 0.18 0.18 0.18 0.17 0.16 0.13 0.08 0.03 0.00 0.00 0.00 0.00 0.00 0.00 0.00 0.00 0.00 0.00 0.00 0.00 0.00
0.29 0.23 0.22 0.17 0.18 0.23 0.25 0.29 0.38 0.36 0.41 0.43 0.49 0.45 0.39 0.30 0.22 0.19 0.16 0.14 0.10 0.10 0.15 0.11 0.03 0.00 0.00 0.00 0.00 0.00 0.00 0.00 0.00 0.00 0.00 0.00 0.00 0.00
0.42 0.25 0.17 0.15 0.15 0.17 0.20 0.25 0.34 0.39 0.37 0.41 0.45 0.48 0.45 0.34 0.23 0.19 0.15 0.13 0.10 0.12 0.11 0.11 0.09 0.04 0.00 0.00 0.00 0.00 0.00 0.00 0.00 0.00 0.00 0.00 0.00 0.00
0.36 0.20 0.18 0.16 0.15 0.17 0.22 0.27 0.27 0.26 0.32 0.40 0.41 0.36 0.32 0.30 0.30 0.26 0.20 0.15 0.11 0.10 0.10 0.08 0.06 0.04 0.02 0.02 0.00 0.00 0.00 0.00 0.00 0.00 0.00 0.00 0.00 0.00
0.15 0.14 0.20 0.20 0.22 0.23 0.25 0.26 0.27 0.30 0.30 0.26 0.24 0.21 0.22 0.23 0.22 0.18 0.20 0.17 0.12 0.10 0.08 0.06 0.05 0.03 0.03 0.04 0.02 0.00 0.00 0.00 0.00 0.00 0.00 0.00 0.00 0.00
0.15 0.16 0.20 0.26 0.29 0.30 0.28 0.27 0.26 0.24 0.21 0.20 0.19 0.17 0.14 0.14 0.12 0.13 0.19 0.21 0.16 0.09 0.05 0.03 0.03 0.02 0.02 0.01 0.01 0.01 0.00 0.00 0.00 0.00 0.00 0.00 0.00 0.00
0.25 0.32 0.33 0.38 0.37 0.33 0.30 0.30 0.27 0.25 0.19 0.16 0.15 0.15 0.15 0.14 0.09 0.07 0.12 0.15 0.14 0.11 0.08 0.07 0.04 0.01 0.00 0.00 0.00 0.00 0.00 0.00 0.00 0.00 0.00 0.00 0.00 0.00
0.35 0.38 0.37 0.39 0.38 0.33 0.28 0.24 0.23 0.21 0.20 0.18 0.17 0.16 0.14 0.14 0.10 0.09 0.09 0.08 0.08 0.10 0.08 0.04 0.01 0.00 0.00 0.00 0.00 0.00 0.00 0.00 0.00 0.00 0.00 0.00 0.00 0.00

GFSNE_prec_precacc24_120.txt.gz
Total_Precipitation_Accumulation
0.17 0.19 0.17 0.16 0.17 0.19 0.25 0.31 0.43 0.44 0.22 0.11 0.10 0.09 0.11 0.13 0.14 0.11 0.07 0.09 0.07 0.02 0.01 0.00 0.00 0.00 0.00 0.00 0.00 0.00 0.01 0.01 0.03 0.04 0.05 0.06 0.06 0.06
0.19 0.16 0.16 0.17 0.16 0.16 0.17 0.21 0.28 0.34 0.27 0.05 0.05 0.08 0.09 0.11 0.12 0.09 0.07 0.10 0.04 0.01 0.00 0.00 0.00 0.00 0.00 0.00 0.00 0.00 0.00 0.01 0.02 0.04 0.05 0.06 0.07 0.07
0.24 0.19 0.11 0.10 0.14 0.15 0.16 0.17 0.16 0.18 0.21 0.12 0.07 0.07 0.09 0.10 0.14 0.16 0.12 0.07 0.05 0.04 0.01 0.00 0.00 0.00 0.00 0.00 0.00 0.00 0.00 0.00 0.01 0.02 0.03 0.04 0.06 0.07
0.15 0.16 0.15 0.18 0.18 0.19 0.22 0.21 0.26 0.32 0.39 0.32 0.21 0.18 0.16 0.13 0.12 0.11 0.08 0.06 0.04 0.05 0.03 0.01 0.00 0.00 0.00 0.00 0.00 0.00 0.00 0.00 0.00 0.01 0.02 0.03 0.05 0.08
0.14 0.15 0.15 0.20 0.28 0.36 0.41 0.43 0.43 0.42 0.42 0.36 0.26 0.21 0.18 0.16 0.17 0.17 0.14 0.11 0.08 0.09 0.06 0.03 0.01 0.01 0.00 0.00 0.00 0.00 0.00 0.00 0.00 0.00 0.03 0.07 0.07 0.09
0.08 0.09 0.09 0.09 0.10 0.13 0.18 0.22 0.24 0.28 0.28 0.27 0.24 0.21 0.19 0.20 0.26 0.27 0.26 0.24 0.20 0.16 0.12 0.06 0.04 0.02 0.01 0.00 0.00 0.00 0.00 0.00 0.00 0.00 0.04 0.17 0.16 0.17
0.03 0.03 0.05 0.07 0.08 0.10 0.13 0.17 0.25 0.30 0.31 0.30 0.29 0.27 0.25 0.23 0.24 0.23 0.23 0.20 0.20 0.16 0.14 0.10 0.06 0.03 0.02 0.02 0.00 0.00 0.00 0.00 0.00 0.00 0.01 0.14 0.26 0.26
0.00 0.00 0.01 0.02 0.02 0.03 0.05 0.08 0.11 0.16 0.20 0.23 0.24 0.24 0.20 0.22 0.24 0.23 0.23 0.24 0.23 0.15 0.16 0.12 0.09 0.08 0.04 0.01 0.00 0.00 0.00 0.00 0.00 0.00 0.00 0.04 0.16 0.19
0.00 0.00 0.00 0.00 0.01 0.00 0.02 0.04 0.04 0.07 0.08 0.08 0.10 0.12 0.14 0.15 0.20 0.21 0.20 0.19 0.15 0.09 0.10 0.09 0.05 0.03 0.02 0.02 0.03 0.01 0.00 0.00 0.00 0.00 0.00 0.00 0.03 0.02
0.00 0.00 0.00 0.00 0.00 0.00 0.00 0.00 0.01 0.02 0.04 0.06 0.06 0.08 0.12 0.14 0.19 0.21 0.20 0.21 0.20 0.14 0.09 0.07 0.02 0.02 0.02 0.02 0.01 0.00 0.00 0.00 0.00 0.00 0.00 0.00 0.00 0.01
0.00 0.00 0.00 0.00 0.00 0.01 0.01 0.01 0.01 0.01 0.02 0.05 0.06 0.09 0.17 0.25 0.28 0.33 0.34 0.29 0.27 0.18 0.16 0.17 0.09 0.05 0.02 0.02 0.00 0.00 0.00 0.00 0.00 0.00 0.00 0.00 0.00 0.00
0.00 0.00 0.01 0.01 0.01 0.02 0.02 0.01 0.02 0.02 0.04 0.10 0.14 0.15 0.16 0.16 0.22 0.16 0.17 0.27 0.31 0.28 0.28 0.35 0.28 0.23 0.17 0.07 0.02 0.00 0.00 0.00 0.00 0.00 0.00 0.00 0.00 0.00
0.00 0.00 0.00 0.02 0.03 0.03 0.06 0.04 0.05 0.06 0.10 0.15 0.13 0.13 0.15 0.20 0.26 0.27 0.25 0.24 0.20 0.17 0.15 0.25 0.32 0.38 0.36 0.18 0.05 0.00 0.00 0.00 0.00 0.00 0.00 0.00 0.00 0.00
0.02 0.02 0.03 0.11 0.09 0.08 0.09 0.08 0.10 0.14 0.12 0.10 0.10 0.11 0.13 0.16 0.20 0.30 0.39 0.48 0.44 0.39 0.27 0.17 0.11 0.12 0.17 0.14 0.06 0.00 0.00 0.00 0.00 0.00 0.00 0.00 0.00 0.00
0.08 0.12 0.19 0.28 0.26 0.22 0.21 0.18 0.18 0.18 0.11 0.12 0.08 0.07 0.09 0.17 0.30 0.37 0.32 0.24 0.26 0.35 0.38 0.29 0.19 0.12 0.07 0.05 0.03 0.00 0.00 0.00 0.00 0.00 0.00 0.00 0.00 0.00
0.14 0.14 0.20 0.25 0.30 0.28 0.31 0.40 0.39 0.29 0.23 0.23 0.21 0.25 0.32 0.32 0.28 0.28 0.28 0.27 0.27 0.26 0.29 0.29 0.31 0.23 0.13 0.08 0.03 0.00 0.00 0.00 0.00 0.00 0.00 0.00 0.00 0.00
0.29 0.23 0.22 0.17 0.18 0.23 0.26 0.29 0.38 0.36 0.42 0.44 0.50 0.46 0.44 0.34 0.27 0.25 0.23 0.21 0.17 0.15 0.25 0.29 0.23 0.20 0.14 0.08 0.03 0.00 0.00 0.00 0.00 0.00 0.00 0.00 0.00 0.00
0.42 0.25 0.17 0.15 0.15 0.17 0.20 0.25 0.34 0.39 0.38 0.41 0.45 0.49 0.47 0.37 0.27 0.24 0.20 0.19 0.16 0.18 0.17 0.21 0.26 0.22 0.14 0.03 0.00 0.00 0.00 0.00 0.00 0.00 0.00 0.00 0.00 0.00
0.36 0.20 0.18 0.16 0.15 0.17 0.22 0.27 0.27 0.26 0.32 0.41 0.43 0.37 0.32 0.31 0.33 0.29 0.24 0.20 0.16 0.15 0.16 0.14 0.15 0.16 0.16 0.10 0.02 0.00 0.00 0.00 0.00 0.00 0.00 0.00 0.00 0.00
0.15 0.14 0.20 0.20 0.22 0.23 0.25 0.26 0.27 0.30 0.31 0.26 0.24 0.22 0.24 0.25 0.24 0.19 0.22 0.21 0.19 0.16 0.13 0.11 0.10 0.09 0.09 0.11 0.08 0.03 0.01 0.00 0.01 0.00 0.00 0.00 0.00 0.00
0.15 0.16 0.19 0.26 0.30 0.30 0.29 0.28 0.27 0.25 0.21 0.21 0.20 0.18 0.15 0.17 0.14 0.14 0.21 0.26 0.23 0.16 0.10 0.07 0.07 0.09 0.07 0.04 0.03 0.03 0.02 0.02 0.01 0.00 0.00 0.00 0.00 0.00
0.25 0.32 0.33 0.38 0.38 0.33 0.31 0.30 0.28 0.25 0.20 0.16 0.16 0.16 0.16 0.17 0.12 0.09 0.15 0.19 0.17 0.17 0.16 0.14 0.10 0.06 0.04 0.01 0.01 0.01 0.02 0.03 0.00 0.00 0.00 0.00 0.00 0.00
0.35 0.37 0.37 0.39 0.37 0.32 0.27 0.25 0.23 0.21 0.21 0.19 0.18 0.17 0.15 0.16 0.13 0.12 0.13 0.12 0.11 0.16 0.14 0.10 0.05 0.03 0.02 0.03 0.02 0.01 0.02 0.02 0.01 0.00 0.00 0.00 0.00 0.00

GFSNE_prec_precacc24_126.txt.gz
Total_Precipitation_Accumulation
0.26 0.30 0.28 0.22 0.23 0.25 0.35 0.43 0.53 0.48 0.23 0.11 0.10 0.09 0.11 0.13 0.13 0.12 0.07 0.08 0.06 0.03 0.02 0.01 0.00 0.00 0.00 0.00 0.00 0.00 0.00 0.01 0.01 0.02 0.03 0.04 0.04 0.05
0.25 0.25 0.27 0.29 0.31 0.30 0.28 0.27 0.31 0.39 0.34 0.07 0.05 0.08 0.09 0.11 0.12 0.10 0.07 0.09 0.04 0.01 0.00 0.00 0.00 0.00 0.00 0.00 0.00 0.00 0.00 0.00 0.01 0.02 0.03 0.04 0.05 0.06
0.35 0.29 0.26 0.25 0.26 0.24 0.20 0.20 0.20 0.23 0.29 0.16 0.10 0.08 0.09 0.10 0.14 0.16 0.12 0.07 0.05 0.05 0.02 0.02 0.01 0.01 0.01 0.01 0.01 0.01 0.01 0.00 0.00 0.01 0.02 0.03 0.05 0.06
0.27 0.28 0.25 0.26 0.25 0.24 0.25 0.25 0.30 0.37 0.45 0.35 0.23 0.18 0.16 0.13 0.13 0.11 0.08 0.06 0.05 0.07 0.08 0.07 0.07 0.06 0.05 0.06 0.06 0.06 0.05 0.04 0.03 0.02 0.02 0.02 0.04 0.06
0.23 0.22 0.22 0.25 0.32 0.38 0.42 0.43 0.43 0.42 0.42 0.36 0.26 0.22 0.18 0.16 0.17 0.17 0.15 0.11 0.09 0.13 0.13 0.13 0.13 0.11 0.08 0.07 0.07 0.07 0.08 0.06 0.04 0.02 0.02 0.03 0.05 0.06
0.08 0.09 0.09 0.09 0.10 0.13 0.18 0.22 0.24 0.28 0.28 0.27 0.24 0.21 0.20 0.21 0.26 0.27 0.26 0.24 0.21 0.18 0.18 0.16 0.18 0.15 0.12 0.10 0.08 0.06 0.05 0.05 0.05 0.03 0.03 0.05 0.08 0.10
0.03 0.03 0.05 0.07 0.08 0.10 0.13 0.17 0.25 0.30 0.31 0.31 0.29 0.28 0.26 0.24 0.24 0.24 0.24 0.20 0.21 0.17 0.16 0.16 0.16 0.16 0.16 0.18 0.15 0.12 0.09 0.10 0.12 0.11 0.08 0.08 0.13 0.15
0.00 0.00 0.01 0.02 0.02 0.03 0.05 0.08 0.11 0.16 0.21 0.23 0.24 0.24 0.21 0.23 0.26 0.24 0.24 0.25 0.24 0.16 0.17 0.15 0.14 0.14 0.10 0.09 0.13 0.13 0.13 0.14 0.16 0.15 0.11 0.09 0.13 0.10
0.00 0.00 0.00 0.00 0.01 0.00 0.02 0.04 0.04 0.07 0.08 0.09 0.10 0.12 0.15 0.16 0.22 0.23 0.22 0.21 0.17 0.12 0.14 0.15 0.13 0.16 0.16 0.18 0.29 0.29 0.27 0.30 0.33 0.28 0.19 0.12 0.09 0.04
0.00 0.00 0.00 0.00 0.00 0.00 0.00 0.00 0.01 0.02 0.04 0.06 0.06 0.08 0.12 0.15 0.20 0.23 0.23 0.25 0.24 0.18 0.15 0.18 0.10 0.10 0.14 0.14 0.26 0.32 0.32 0.31 0.31 0.28 0.24 0.20 0.14 0.09
0.00 0.00 0.00 0.00 0.00 0.01 0.01 0.01 0.01 0.01 0.02 0.05 0.07 0.10 0.17 0.25 0.30 0.36 0.37 0.33 0.33 0.22 0.18 0.23 0.18 0.16 0.15 0.16 0.24 0.42 0.41 0.31 0.27 0.21 0.14 0.10 0.09 0.06
0.00 0.00 0.01 0.01 0.01 0.02 0.02 0.01 0.02 0.02 0.04 0.10 0.14 0.15 0.16 0.17 0.22 0.18 0.19 0.33 0.40 0.36 0.30 0.44 0.40 0.35 0.33 0.24 0.17 0.19 0.30 0.32 0.28 0.23 0.16 0.09 0.05 0.03
0.00 0.00 0.00 0.02 0.03 0.03 0.06 0.04 0.05 0.06 0.10 0.15 0.13 0.13 0.16 0.21 0.27 0.28 0.27 0.29 0.29 0.25 0.23 0.39 0.42 0.50 0.58 0.40 0.30 0.30 0.36 0.35 0.30 0.24 0.17 0.13 0.07 0.03
0.02 0.02 0.03 0.11 0.09 0.08 0.09 0.08 0.10 0.14 0.12 0.10 0.10 0.11 0.13 0.16 0.20 0.30 0.40 0.50 0.50 0.47 0.38 0.31 0.22 0.24 0.40 0.36 0.28 0.27 0.30 0.27 0.25 0.23 0.19 0.10 0.05 0.03
0.06 0.10 0.19 0.28 0.26 0.22 0.21 0.18 0.18 0.18 0.11 0.12 0.08 0.08 0.10 0.17 0.30 0.38 0.33 0.26 0.29 0.41 0.48 0.41 0.34 0.29 0.24 0.17 0.17 0.23 0.26 0.18 0.18 0.14 0.11 0.05 0.01 0.00
0.11 0.13 0.20 0.25 0.30 0.28 0.31 0.40 0.39 0.29 0.23 0.23 0.22 0.26 0.33 0.32 0.29 0.29 0.30 0.28 0.29 0.29 0.34 0.38 0.43 0.36 0.25 0.18 0.14 0.14 0.15 0.14 0.15 0.12 0.04 0.01 0.00 0.00
0.14 0.15 0.20 0.17 0.18 0.23 0.26 0.29 0.38 0.37 0.42 0.44 0.50 0.47 0.44 0.35 0.28 0.27 0.26 0.23 0.19 0.17 0.29 0.37 0.36 0.34 0.27 0.20 0.14 0.11 0.07 0.08 0.11 0.09 0.01 0.00 0.00 0.00
0.16 0.09 0.10 0.13 0.15 0.17 0.20 0.25 0.34 0.40 0.38 0.42 0.46 0.49 0.48 0.38 0.29 0.26 0.22 0.22 0.19 0.21 0.21 0.24 0.33 0.33 0.28 0.18 0.13 0.07 0.03 0.03 0.05 0.02 0.00 0.00 0.00 0.00
0.19 0.12 0.11 0.12 0.13 0.17 0.22 0.27 0.27 0.26 0.32 0.41 0.43 0.37 0.34 0.32 0.36 0.31 0.27 0.22 0.19 0.17 0.18 0.17 0.20 0.24 0.29 0.23 0.15 0.07 0.02 0.01 0.01 0.00 0.00 0.00 0.00 0.00
0.08 0.11 0.16 0.17 0.21 0.24 0.26 0.27 0.28 0.31 0.31 0.27 0.25 0.22 0.25 0.28 0.27 0.22 0.25 0.24 0.22 0.19 0.15 0.14 0.14 0.16 0.19 0.24 0.20 0.12 0.04 0.01 0.01 0.01 0.01 0.00 0.00 0.00
0.08 0.11 0.14 0.22 0.28 0.30 0.29 0.28 0.27 0.25 0.22 0.22 0.20 0.19 0.17 0.20 0.17 0.16 0.25 0.29 0.27 0.19 0.14 0.10 0.10 0.13 0.15 0.14 0.13 0.10 0.04 0.05 0.02 0.01 0.01 0.00 0.00 0.00
0.13 0.21 0.23 0.30 0.33 0.32 0.30 0.31 0.28 0.26 0.20 0.17 0.16 0.17 0.18 0.20 0.15 0.12 0.18 0.22 0.19 0.20 0.20 0.18 0.14 0.10 0.09 0.05 0.06 0.07 0.04 0.07 0.05 0.00 0.00 0.00 0.00 0.00
0.18 0.26 0.30 0.35 0.34 0.31 0.27 0.25 0.24 0.21 0.21 0.20 0.20 0.19 0.17 0.19 0.16 0.15 0.16 0.15 0.14 0.20 0.17 0.15 0.10 0.09 0.06 0.06 0.04 0.03 0.05 0.08 0.07 0.02 0.00 0.00 0.00 0.00

GFSNE_prec_precacc24_129.txt.gz
Total_Precipitation_Accumulation
0.25 0.30 0.31 0.30 0.32 0.36 0.45 0.48 0.55 0.50 0.23 0.11 0.10 0.09 0.11 0.14 0.14 0.12 0.07 0.08 0.06 0.03 0.02 0.01 0.00 0.00 0.00 0.00 0.00 0.00 0.01 0.00 0.00 0.01 0.02 0.02 0.03 0.04
0.25 0.27 0.31 0.39 0.44 0.45 0.41 0.37 0.38 0.46 0.39 0.10 0.07 0.08 0.10 0.11 0.13 0.10 0.07 0.09 0.04 0.01 0.00 0.00 0.00 0.00 0.00 0.00 0.00 0.00 0.01 0.01 0.01 0.01 0.02 0.03 0.04 0.05
0.44 0.43 0.42 0.36 0.32 0.30 0.30 0.32 0.34 0.33 0.36 0.22 0.11 0.09 0.10 0.10 0.15 0.16 0.12 0.07 0.05 0.05 0.02 0.02 0.02 0.02 0.02 0.02 0.02 0.02 0.02 0.02 0.02 0.02 0.02 0.03 0.04 0.06
0.61 0.58 0.39 0.35 0.30 0.29 0.31 0.30 0.32 0.38 0.46 0.37 0.24 0.19 0.17 0.13 0.13 0.11 0.08 0.06 0.05 0.07 0.08 0.07 0.07 0.06 0.06 0.06 0.07 0.07 0.07 0.06 0.07 0.07 0.06 0.05 0.05 0.06
0.49 0.41 0.35 0.33 0.39 0.45 0.48 0.47 0.44 0.42 0.42 0.36 0.26 0.22 0.18 0.16 0.17 0.17 0.15 0.11 0.09 0.13 0.13 0.13 0.13 0.11 0.08 0.08 0.08 0.08 0.09 0.08 0.08 0.08 0.07 0.06 0.06 0.06
0.13 0.10 0.09 0.09 0.10 0.13 0.18 0.22 0.24 0.28 0.28 0.27 0.24 0.21 0.20 0.21 0.26 0.27 0.26 0.24 0.21 0.18 0.18 0.16 0.18 0.15 0.12 0.10 0.08 0.07 0.07 0.07 0.09 0.09 0.09 0.08 0.10 0.10
0.01 0.02 0.03 0.06 0.08 0.10 0.13 0.17 0.25 0.30 0.31 0.31 0.29 0.28 0.26 0.24 0.24 0.24 0.24 0.20 0.21 0.17 0.16 0.16 0.16 0.16 0.16 0.18 0.15 0.13 0.11 0.12 0.15 0.16 0.15 0.14 0.16 0.17
0.00 0.00 0.00 0.01 0.02 0.03 0.05 0.08 0.11 0.16 0.21 0.23 0.24 0.24 0.21 0.23 0.26 0.24 0.24 0.25 0.24 0.16 0.17 0.15 0.14 0.14 0.10 0.09 0.13 0.13 0.14 0.16 0.20 0.21 0.19 0.17 0.19 0.17
0.00 0.00 0.00 0.00 0.01 0.00 0.02 0.04 0.04 0.07 0.08 0.09 0.10 0.12 0.15 0.16 0.22 0.23 0.22 0.21 0.17 0.12 0.14 0.15 0.13 0.16 0.16 0.18 0.29 0.29 0.27 0.32 0.36 0.34 0.29 0.23 0.18 0.12
0.00 0.00 0.00 0.00 0.00 0.00 0.00 0.00 0.01 0.02 0.04 0.06 0.06 0.08 0.12 0.15 0.20 0.23 0.24 0.25 0.25 0.18 0.15 0.18 0.10 0.10 0.14 0.14 0.26 0.32 0.32 0.32 0.33 0.32 0.31 0.29 0.26 0.22
0.00 0.00 0.00 0.00 0.00 0.01 0.01 0.01 0.01 0.01 0.02 0.05 0.07 0.10 0.17 0.25 0.30 0.36 0.37 0.33 0.33 0.22 0.18 0.23 0.18 0.17 0.15 0.16 0.24 0.43 0.41 0.32 0.30 0.27 0.23 0.22 0.24 0.22
0.00 0.00 0.01 0.01 0.01 0.02 0.02 0.01 0.02 0.02 0.04 0.10 0.14 0.15 0.16 0.17 0.23 0.18 0.20 0.34 0.41 0.37 0.31 0.45 0.40 0.35 0.34 0.24 0.17 0.19 0.30 0.34 0.34 0.33 0.29 0.24 0.22 0.18
0.00 0.00 0.00 0.02 0.03 0.03 0.06 0.04 0.05 0.06 0.10 0.15 0.13 0.13 0.16 0.21 0.27 0.28 0.27 0.29 0.30 0.27 0.24 0.43 0.43 0.50 0.60 0.41 0.30 0.30 0.36 0.35 0.33 0.30 0.25 0.23 0.18 0.12
0.02 0.01 0.02 0.07 0.07 0.07 0.09 0.08 0.10 0.14 0.12 0.10 0.10 0.11 0.13 0.16 0.20 0.30 0.40 0.50 0.50 0.48 0.38 0.33 0.25 0.25 0.42 0.37 0.29 0.27 0.30 0.28 0.27 0.29 0.28 0.19 0.12 0.07
0.02 0.04 0.07 0.11 0.14 0.14 0.17 0.18 0.18 0.18 0.11 0.12 0.08 0.08 0.10 0.17 0.30 0.38 0.33 0.26 0.29 0.41 0.48 0.42 0.35 0.31 0.27 0.20 0.18 0.24 0.27 0.19 0.22 0.19 0.18 0.12 0.05 0.03
0.03 0.05 0.08 0.10 0.15 0.15 0.20 0.33 0.38 0.29 0.23 0.23 0.22 0.26 0.33 0.32 0.29 0.29 0.30 0.28 0.29 0.29 0.34 0.38 0.43 0.37 0.26 0.19 0.16 0.14 0.15 0.15 0.18 0.16 0.07 0.02 0.00 0.00
0.05 0.03 0.04 0.05 0.07 0.09 0.12 0.19 0.33 0.35 0.42 0.44 0.50 0.47 0.44 0.35 0.28 0.27 0.26 0.24 0.20 0.17 0.29 0.37 0.36 0.35 0.28 0.22 0.15 0.12 0.09 0.11 0.14 0.13 0.04 0.01 0.00 0.00
0.05 0.03 0.02 0.02 0.02 0.05 0.08 0.15 0.25 0.34 0.37 0.42 0.46 0.50 0.48 0.39 0.30 0.26 0.23 0.23 0.21 0.21 0.21 0.25 0.34 0.34 0.29 0.18 0.14 0.08 0.05 0.06 0.09 0.08 0.02 0.00 0.00 0.00
0.04 0.04 0.03 0.03 0.02 0.04 0.08 0.15 0.20 0.21 0.31 0.41 0.43 0.37 0.34 0.33 0.36 0.31 0.27 0.23 0.19 0.18 0.19 0.18 0.21 0.26 0.30 0.24 0.16 0.08 0.02 0.02 0.02 0.02 0.00 0.00 0.00 0.00
0.02 0.06 0.06 0.04 0.05 0.09 0.14 0.17 0.20 0.26 0.30 0.27 0.25 0.23 0.25 0.29 0.27 0.22 0.26 0.25 0.22 0.19 0.15 0.14 0.15 0.17 0.21 0.26 0.21 0.14 0.04 0.01 0.01 0.01 0.01 0.00 0.00 0.00
0.01 0.05 0.06 0.06 0.09 0.13 0.18 0.22 0.23 0.24 0.22 0.22 0.20 0.19 0.17 0.21 0.18 0.16 0.25 0.30 0.28 0.20 0.14 0.10 0.10 0.14 0.17 0.16 0.15 0.13 0.05 0.05 0.02 0.01 0.01 0.00 0.00 0.00
0.02 0.05 0.06 0.08 0.12 0.16 0.20 0.24 0.25 0.24 0.20 0.17 0.16 0.17 0.18 0.20 0.16 0.12 0.18 0.23 0.21 0.21 0.21 0.19 0.15 0.12 0.11 0.07 0.09 0.12 0.06 0.08 0.05 0.00 0.00 0.00 0.00 0.00
0.03 0.07 0.08 0.10 0.14 0.17 0.19 0.19 0.19 0.17 0.18 0.18 0.19 0.19 0.18 0.19 0.16 0.16 0.17 0.16 0.15 0.21 0.19 0.16 0.12 0.11 0.09 0.08 0.07 0.08 0.08 0.10 0.11 0.05 0.01 0.00 0.00 0.00

GFSNE_prec_precacc24_132.txt.gz
Total_Precipitation_Accumulation
0.24 0.30 0.31 0.30 0.33 0.37 0.47 0.55 0.66 0.60 0.29 0.13 0.12 0.10 0.12 0.15 0.17 0.15 0.08 0.11 0.08 0.03 0.02 0.01 0.00 0.00 0.00 0.00 0.01 0.01 0.01 0.01 0.01 0.01 0.02 0.02 0.02 0.03
0.26 0.28 0.32 0.40 0.48 0.50 0.50 0.51 0.59 0.66 0.53 0.17 0.14 0.15 0.15 0.17 0.17 0.11 0.07 0.10 0.04 0.01 0.00 0.00 0.00 0.00 0.00 0.01 0.01 0.01 0.01 0.01 0.01 0.02 0.03 0.04 0.04 0.04
0.43 0.42 0.42 0.40 0.41 0.38 0.36 0.39 0.44 0.47 0.49 0.35 0.27 0.22 0.19 0.16 0.16 0.16 0.12 0.07 0.05 0.05 0.02 0.02 0.02 0.02 0.02 0.02 0.02 0.02 0.02 0.03 0.03 0.03 0.03 0.05 0.08 0.08
0.55 0.58 0.52 0.47 0.49 0.46 0.46 0.45 0.43 0.46 0.52 0.44 0.31 0.24 0.20 0.14 0.13 0.11 0.08 0.06 0.05 0.07 0.08 0.07 0.07 0.06 0.06 0.06 0.07 0.07 0.07 0.06 0.07 0.08 0.08 0.08 0.09 0.13
0.43 0.38 0.41 0.53 0.70 0.74 0.74 0.71 0.61 0.53 0.48 0.39 0.27 0.22 0.18 0.16 0.17 0.17 0.15 0.11 0.09 0.13 0.13 0.13 0.13 0.11 0.08 0.08 0.08 0.08 0.09 0.08 0.08 0.07 0.08 0.09 0.10 0.12
0.25 0.17 0.11 0.09 0.13 0.16 0.22 0.23 0.24 0.28 0.28 0.27 0.24 0.21 0.20 0.21 0.26 0.27 0.26 0.24 0.21 0.18 0.18 0.16 0.18 0.15 0.12 0.10 0.08 0.07 0.07 0.07 0.08 0.09 0.10 0.10 0.11 0.14
0.04 0.02 0.01 0.02 0.02 0.04 0.10 0.14 0.21 0.30 0.31 0.31 0.29 0.28 0.26 0.24 0.24 0.24 0.24 0.20 0.21 0.17 0.16 0.16 0.16 0.16 0.16 0.18 0.15 0.13 0.11 0.12 0.15 0.16 0.16 0.16 0.16 0.17
0.00 0.00 0.00 0.00 0.01 0.02 0.03 0.06 0.09 0.14 0.20 0.23 0.24 0.24 0.21 0.23 0.26 0.24 0.24 0.25 0.24 0.16 0.17 0.15 0.14 0.14 0.10 0.09 0.13 0.13 0.14 0.16 0.20 0.21 0.21 0.21 0.20 0.19
0.00 0.00 0.00 0.00 0.00 0.00 0.02 0.03 0.03 0.05 0.07 0.08 0.10 0.12 0.15 0.16 0.22 0.23 0.22 0.21 0.17 0.12 0.15 0.15 0.13 0.16 0.16 0.18 0.29 0.29 0.27 0.32 0.36 0.34 0.29 0.24 0.20 0.15
0.00 0.00 0.00 0.00 0.00 0.00 0.00 0.00 0.01 0.02 0.04 0.06 0.06 0.08 0.12 0.15 0.20 0.24 0.25 0.26 0.25 0.18 0.15 0.18 0.10 0.10 0.14 0.14 0.26 0.32 0.32 0.32 0.34 0.33 0.31 0.30 0.28 0.26
0.00 0.00 0.00 0.00 0.00 0.01 0.01 0.01 0.01 0.01 0.02 0.05 0.07 0.10 0.17 0.26 0.30 0.37 0.37 0.34 0.34 0.22 0.18 0.24 0.18 0.17 0.15 0.16 0.24 0.43 0.41 0.32 0.30 0.27 0.24 0.25 0.28 0.29
0.00 0.00 0.01 0.01 0.01 0.02 0.02 0.01 0.02 0.02 0.04 0.10 0.14 0.15 0.16 0.17 0.23 0.18 0.20 0.35 0.42 0.38 0.31 0.45 0.41 0.35 0.34 0.24 0.17 0.19 0.30 0.34 0.35 0.34 0.33 0.30 0.28 0.21
0.00 0.00 0.00 0.02 0.03 0.03 0.06 0.04 0.05 0.06 0.10 0.15 0.13 0.13 0.16 0.21 0.27 0.28 0.27 0.29 0.31 0.28 0.24 0.47 0.45 0.50 0.60 0.41 0.30 0.30 0.36 0.35 0.33 0.31 0.29 0.25 0.20 0.15
0.00 0.00 0.01 0.04 0.05 0.06 0.07 0.08 0.10 0.14 0.12 0.10 0.10 0.11 0.13 0.16 0.20 0.30 0.40 0.50 0.51 0.49 0.39 0.35 0.30 0.26 0.46 0.39 0.29 0.27 0.30 0.28 0.27 0.29 0.29 0.22 0.14 0.08
0.01 0.02 0.03 0.03 0.04 0.06 0.10 0.11 0.13 0.15 0.11 0.11 0.08 0.08 0.10 0.17 0.30 0.38 0.33 0.26 0.29 0.41 0.49 0.43 0.39 0.33 0.29 0.22 0.19 0.24 0.27 0.19 0.22 0.20 0.20 0.14 0.07 0.04
0.01 0.02 0.04 0.04 0.05 0.08 0.12 0.15 0.18 0.16 0.16 0.18 0.20 0.25 0.33 0.32 0.29 0.29 0.30 0.28 0.29 0.29 0.34 0.38 0.44 0.39 0.26 0.20 0.16 0.14 0.16 0.16 0.18 0.17 0.07 0.03 0.02 0.01
0.02 0.00 0.01 0.02 0.03 0.04 0.07 0.10 0.18 0.19 0.21 0.27 0.38 0.43 0.43 0.34 0.27 0.27 0.26 0.25 0.20 0.18 0.29 0.37 0.36 0.35 0.28 0.22 0.15 0.12 0.10 0.12 0.15 0.15 0.05 0.01 0.00 0.00
0.01 0.01 0.02 0.02 0.02 0.03 0.04 0.08 0.14 0.21 0.21 0.24 0.32 0.44 0.46 0.37 0.30 0.26 0.23 0.24 0.22 0.22 0.21 0.25 0.34 0.34 0.29 0.18 0.14 0.08 0.06 0.06 0.10 0.13 0.04 0.00 0.00 0.00
0.01 0.01 0.03 0.02 0.02 0.03 0.06 0.08 0.12 0.12 0.18 0.26 0.32 0.30 0.30 0.32 0.37 0.31 0.27 0.23 0.20 0.18 0.19 0.19 0.23 0.27 0.31 0.24 0.16 0.08 0.03 0.02 0.03 0.06 0.02 0.00 0.00 0.00
0.00 0.02 0.05 0.04 0.03 0.04 0.07 0.09 0.10 0.13 0.15 0.15 0.17 0.18 0.22 0.28 0.28 0.23 0.26 0.26 0.23 0.20 0.16 0.16 0.17 0.19 0.23 0.26 0.21 0.14 0.04 0.01 0.01 0.02 0.01 0.01 0.01 0.00
0.01 0.01 0.03 0.03 0.03 0.03 0.05 0.09 0.11 0.12 0.11 0.13 0.14 0.14 0.15 0.21 0.18 0.16 0.26 0.30 0.29 0.22 0.16 0.11 0.12 0.15 0.18 0.17 0.15 0.13 0.05 0.05 0.02 0.01 0.01 0.02 0.02 0.01
0.01 0.02 0.02 0.03 0.04 0.04 0.05 0.10 0.12 0.13 0.10 0.09 0.12 0.15 0.17 0.21 0.17 0.13 0.19 0.24 0.21 0.23 0.23 0.20 0.17 0.14 0.13 0.09 0.10 0.14 0.07 0.08 0.05 0.00 0.01 0.03 0.03 0.01
0.01 0.02 0.02 0.03 0.03 0.05 0.07 0.10 0.11 0.09 0.09 0.11 0.15 0.17 0.17 0.20 0.16 0.16 0.18 0.17 0.17 0.23 0.21 0.17 0.14 0.13 0.10 0.09 0.09 0.12 0.11 0.10 0.12 0.07 0.06 0.01 0.00 0.00

GFSNE_prec_precacc24_135.txt.gz
Total_Precipitation_Accumulation
0.22 0.27 0.28 0.28 0.31 0.35 0.41 0.47 0.59 0.54 0.26 0.14 0.16 0.15 0.17 0.20 0.19 0.16 0.09 0.15 0.12 0.08 0.04 0.01 0.00 0.00 0.00 0.00 0.01 0.01 0.01 0.01 0.01 0.02 0.02 0.02 0.02 0.03
0.27 0.27 0.30 0.39 0.48 0.50 0.51 0.52 0.62 0.72 0.59 0.22 0.21 0.22 0.23 0.25 0.31 0.27 0.19 0.19 0.07 0.03 0.00 0.00 0.00 0.00 0.00 0.01 0.01 0.01 0.01 0.01 0.02 0.02 0.03 0.04 0.04 0.05
0.41 0.41 0.40 0.39 0.41 0.39 0.38 0.40 0.44 0.51 0.59 0.43 0.36 0.31 0.31 0.31 0.33 0.30 0.21 0.11 0.06 0.05 0.02 0.02 0.02 0.02 0.02 0.02 0.02 0.02 0.02 0.03 0.03 0.03 0.03 0.05 0.07 0.08
0.54 0.55 0.48 0.41 0.38 0.37 0.39 0.40 0.46 0.54 0.66 0.61 0.50 0.41 0.33 0.23 0.17 0.14 0.09 0.06 0.05 0.07 0.08 0.07 0.07 0.06 0.06 0.06 0.07 0.07 0.07 0.06 0.07 0.08 0.08 0.08 0.09 0.12
0.42 0.36 0.37 0.42 0.46 0.48 0.52 0.60 0.64 0.63 0.60 0.53 0.41 0.33 0.25 0.19 0.18 0.17 0.15 0.11 0.09 0.13 0.13 0.13 0.13 0.11 0.08 0.08 0.08 0.08 0.09 0.08 0.08 0.07 0.08 0.08 0.09 0.11
0.24 0.16 0.11 0.10 0.12 0.12 0.14 0.12 0.10 0.18 0.24 0.25 0.23 0.21 0.20 0.21 0.26 0.27 0.26 0.24 0.21 0.18 0.18 0.16 0.18 0.15 0.12 0.10 0.08 0.07 0.07 0.07 0.08 0.09 0.10 0.10 0.10 0.12
0.04 0.02 0.01 0.01 0.00 0.00 0.00 0.01 0.03 0.05 0.10 0.15 0.20 0.23 0.23 0.23 0.24 0.24 0.24 0.20 0.21 0.17 0.16 0.16 0.16 0.16 0.16 0.18 0.15 0.13 0.11 0.12 0.15 0.16 0.16 0.16 0.15 0.15
0.00 0.00 0.00 0.00 0.00 0.00 0.01 0.01 0.02 0.02 0.03 0.05 0.07 0.12 0.13 0.17 0.24 0.24 0.24 0.25 0.24 0.16 0.17 0.15 0.14 0.14 0.10 0.09 0.13 0.13 0.14 0.17 0.20 0.21 0.21 0.20 0.20 0.18
0.00 0.00 0.00 0.00 0.00 0.00 0.00 0.01 0.01 0.03 0.05 0.04 0.03 0.05 0.07 0.10 0.19 0.23 0.22 0.22 0.18 0.12 0.15 0.15 0.13 0.16 0.16 0.18 0.29 0.29 0.27 0.32 0.36 0.34 0.29 0.24 0.19 0.14
0.00 0.00 0.00 0.00 0.00 0.00 0.00 0.00 0.00 0.01 0.02 0.04 0.05 0.07 0.12 0.15 0.20 0.24 0.25 0.26 0.25 0.18 0.15 0.19 0.10 0.10 0.14 0.14 0.26 0.32 0.32 0.32 0.34 0.33 0.31 0.30 0.28 0.25
0.00 0.00 0.00 0.00 0.00 0.00 0.01 0.00 0.00 0.00 0.01 0.05 0.07 0.10 0.17 0.26 0.30 0.37 0.37 0.34 0.34 0.22 0.18 0.24 0.18 0.17 0.15 0.16 0.24 0.43 0.41 0.32 0.30 0.27 0.24 0.25 0.28 0.30
0.00 0.00 0.00 0.01 0.00 0.01 0.01 0.01 0.02 0.01 0.03 0.07 0.12 0.15 0.16 0.17 0.23 0.18 0.20 0.35 0.42 0.39 0.31 0.47 0.41 0.35 0.35 0.24 0.17 0.19 0.30 0.34 0.35 0.34 0.34 0.31 0.30 0.22
0.00 0.00 0.00 0.01 0.01 0.01 0.03 0.03 0.04 0.05 0.09 0.14 0.13 0.13 0.16 0.21 0.27 0.28 0.27 0.29 0.32 0.29 0.25 0.51 0.48 0.50 0.61 0.42 0.30 0.30 0.36 0.35 0.33 0.31 0.29 0.26 0.22 0.17
0.00 0.00 0.00 0.02 0.01 0.01 0.02 0.04 0.07 0.10 0.10 0.09 0.10 0.11 0.13 0.16 0.20 0.30 0.40 0.50 0.51 0.50 0.39 0.37 0.34 0.28 0.48 0.40 0.29 0.27 0.30 0.28 0.27 0.29 0.29 0.23 0.14 0.09
0.00 0.00 0.01 0.01 0.02 0.01 0.03 0.05 0.07 0.09 0.07 0.08 0.07 0.08 0.10 0.17 0.30 0.38 0.33 0.26 0.29 0.41 0.49 0.44 0.42 0.34 0.31 0.23 0.20 0.25 0.28 0.19 0.22 0.20 0.20 0.14 0.07 0.04
0.00 0.00 0.01 0.01 0.01 0.03 0.05 0.07 0.09 0.11 0.10 0.10 0.11 0.13 0.21 0.28 0.28 0.29 0.30 0.28 0.29 0.29 0.34 0.38 0.44 0.40 0.28 0.20 0.17 0.15 0.16 0.16 0.18 0.17 0.07 0.03 0.02 0.01
0.01 0.00 0.00 0.00 0.00 0.01 0.03 0.05 0.09 0.12 0.13 0.15 0.20 0.21 0.27 0.28 0.24 0.24 0.24 0.24 0.20 0.18 0.29 0.37 0.36 0.35 0.29 0.22 0.16 0.12 0.10 0.12 0.15 0.15 0.05 0.01 0.00 0.00
0.00 0.00 0.01 0.01 0.01 0.01 0.02 0.03 0.05 0.10 0.09 0.11 0.15 0.22 0.29 0.27 0.21 0.19 0.19 0.22 0.21 0.21 0.21 0.25 0.35 0.34 0.29 0.18 0.14 0.08 0.06 0.06 0.10 0.13 0.04 0.00 0.00 0.00
0.00 0.01 0.01 0.01 0.02 0.02 0.04 0.05 0.06 0.06 0.09 0.12 0.14 0.14 0.16 0.17 0.22 0.21 0.20 0.21 0.19 0.18 0.19 0.19 0.24 0.29 0.32 0.24 0.16 0.09 0.03 0.02 0.03 0.06 0.02 0.00 0.00 0.00
0.00 0.00 0.01 0.01 0.02 0.03 0.04 0.05 0.06 0.07 0.08 0.09 0.10 0.09 0.14 0.18 0.18 0.15 0.20 0.23 0.24 0.20 0.16 0.16 0.18 0.21 0.25 0.27 0.23 0.14 0.04 0.01 0.02 0.02 0.01 0.01 0.01 0.01
0.00 0.00 0.01 0.01 0.02 0.02 0.03 0.06 0.08 0.10 0.09 0.10 0.10 0.09 0.09 0.16 0.14 0.12 0.21 0.28 0.30 0.22 0.16 0.11 0.12 0.16 0.20 0.19 0.16 0.14 0.05 0.05 0.02 0.01 0.01 0.03 0.03 0.02
0.00 0.01 0.01 0.01 0.02 0.02 0.03 0.07 0.08 0.10 0.07 0.06 0.08 0.10 0.11 0.15 0.14 0.10 0.16 0.24 0.22 0.23 0.24 0.21 0.17 0.15 0.14 0.10 0.11 0.15 0.07 0.08 0.05 0.01 0.04 0.07 0.07 0.07
0.01 0.01 0.01 0.01 0.01 0.03 0.04 0.06 0.07 0.06 0.07 0.07 0.09 0.11 0.11 0.14 0.13 0.14 0.17 0.17 0.17 0.23 0.21 0.18 0.14 0.14 0.11 0.10 0.10 0.13 0.11 0.10 0.12 0.10 0.09 0.03 0.01 0.06

GFSNE_prec_precacc24_138.txt.gz
Total_Precipitation_Accumulation
0.23 0.29 0.29 0.28 0.34 0.48 0.55 0.54 0.55 0.39 0.16 0.07 0.09 0.08 0.10 0.14 0.21 0.20 0.12 0.19 0.15 0.11 0.09 0.06 0.05 0.03 0.01 0.01 0.01 0.01 0.01 0.01 0.01 0.02 0.02 0.02 0.02 0.03
0.30 0.32 0.31 0.36 0.43 0.44 0.43 0.42 0.55 0.68 0.58 0.21 0.19 0.19 0.17 0.21 0.31 0.30 0.26 0.31 0.22 0.17 0.12 0.08 0.04 0.02 0.01 0.01 0.01 0.01 0.01 0.02 0.02 0.03 0.04 0.04 0.04 0.04
0.41 0.41 0.40 0.37 0.36 0.34 0.33 0.37 0.42 0.49 0.56 0.40 0.34 0.30 0.31 0.32 0.35 0.33 0.26 0.16 0.13 0.11 0.06 0.05 0.03 0.02 0.02 0.02 0.02 0.02 0.02 0.03 0.04 0.03 0.03 0.05 0.06 0.06
0.52 0.52 0.46 0.40 0.37 0.33 0.31 0.29 0.29 0.33 0.43 0.47 0.42 0.36 0.34 0.29 0.23 0.20 0.16 0.12 0.08 0.08 0.08 0.07 0.07 0.06 0.06 0.06 0.07 0.07 0.07 0.06 0.07 0.08 0.07 0.07 0.08 0.11
0.42 0.36 0.37 0.41 0.45 0.47 0.48 0.46 0.39 0.32 0.29 0.31 0.27 0.22 0.17 0.11 0.10 0.15 0.15 0.12 0.09 0.13 0.13 0.13 0.13 0.11 0.08 0.08 0.08 0.08 0.09 0.08 0.08 0.07 0.08 0.08 0.09 0.11
0.24 0.16 0.11 0.10 0.12 0.12 0.13 0.10 0.07 0.04 0.02 0.03 0.04 0.05 0.05 0.06 0.10 0.15 0.18 0.21 0.20 0.18 0.18 0.16 0.18 0.15 0.12 0.10 0.08 0.07 0.07 0.07 0.09 0.10 0.10 0.10 0.10 0.12
0.05 0.02 0.01 0.01 0.00 0.00 0.00 0.00 0.00 0.00 0.01 0.01 0.01 0.02 0.04 0.05 0.06 0.07 0.09 0.13 0.19 0.17 0.16 0.16 0.16 0.16 0.16 0.18 0.15 0.13 0.11 0.12 0.15 0.17 0.17 0.16 0.15 0.15
0.00 0.00 0.00 0.00 0.00 0.00 0.00 0.00 0.00 0.01 0.01 0.01 0.02 0.03 0.03 0.04 0.07 0.10 0.13 0.17 0.20 0.15 0.17 0.15 0.14 0.14 0.10 0.09 0.13 0.13 0.14 0.18 0.21 0.22 0.21 0.20 0.19 0.17
0.00 0.00 0.00 0.00 0.00 0.00 0.00 0.00 0.00 0.01 0.02 0.03 0.02 0.02 0.03 0.05 0.10 0.13 0.16 0.18 0.16 0.12 0.15 0.15 0.13 0.16 0.16 0.18 0.29 0.29 0.28 0.32 0.36 0.34 0.29 0.24 0.19 0.15
0.00 0.00 0.00 0.00 0.00 0.00 0.00 0.00 0.00 0.00 0.00 0.01 0.02 0.03 0.07 0.09 0.16 0.22 0.24 0.26 0.25 0.18 0.15 0.19 0.10 0.10 0.14 0.14 0.26 0.32 0.33 0.32 0.34 0.33 0.31 0.30 0.29 0.26
0.00 0.00 0.00 0.00 0.00 0.00 0.00 0.00 0.00 0.00 0.00 0.02 0.04 0.07 0.14 0.21 0.27 0.35 0.36 0.34 0.34 0.22 0.18 0.24 0.18 0.17 0.15 0.16 0.24 0.43 0.41 0.32 0.30 0.27 0.24 0.27 0.29 0.30
0.00 0.00 0.00 0.00 0.00 0.00 0.01 0.00 0.00 0.00 0.00 0.02 0.03 0.05 0.11 0.16 0.22 0.18 0.20 0.35 0.42 0.39 0.31 0.47 0.41 0.36 0.36 0.24 0.17 0.19 0.30 0.34 0.35 0.34 0.34 0.32 0.31 0.22
0.00 0.00 0.00 0.00 0.00 0.00 0.00 0.01 0.02 0.02 0.03 0.03 0.03 0.05 0.06 0.10 0.17 0.21 0.24 0.29 0.32 0.30 0.25 0.53 0.50 0.50 0.62 0.42 0.30 0.30 0.36 0.35 0.33 0.31 0.29 0.26 0.22 0.17
0.00 0.00 0.00 0.00 0.00 0.00 0.00 0.00 0.02 0.05 0.06 0.05 0.05 0.05 0.07 0.11 0.17 0.25 0.34 0.48 0.51 0.50 0.39 0.38 0.39 0.29 0.50 0.41 0.29 0.27 0.30 0.28 0.27 0.29 0.29 0.23 0.14 0.09
0.00 0.00 0.00 0.01 0.01 0.00 0.01 0.01 0.01 0.03 0.04 0.04 0.04 0.05 0.07 0.12 0.20 0.29 0.29 0.26 0.29 0.41 0.49 0.44 0.44 0.36 0.33 0.26 0.22 0.25 0.28 0.19 0.22 0.20 0.20 0.14 0.07 0.04
0.00 0.00 0.00 0.00 0.00 0.01 0.01 0.01 0.01 0.03 0.06 0.06 0.07 0.06 0.09 0.15 0.19 0.21 0.24 0.25 0.28 0.29 0.34 0.38 0.44 0.43 0.30 0.21 0.18 0.15 0.16 0.17 0.18 0.17 0.07 0.03 0.02 0.01
0.00 0.00 0.00 0.00 0.00 0.00 0.01 0.01 0.01 0.03 0.06 0.07 0.08 0.11 0.14 0.15 0.14 0.16 0.18 0.20 0.20 0.17 0.29 0.37 0.36 0.36 0.30 0.23 0.16 0.13 0.10 0.12 0.15 0.15 0.06 0.01 0.00 0.00
0.00 0.00 0.00 0.00 0.00 0.00 0.01 0.01 0.01 0.03 0.03 0.04 0.06 0.09 0.12 0.14 0.14 0.14 0.14 0.16 0.17 0.17 0.18 0.24 0.34 0.35 0.29 0.18 0.14 0.08 0.06 0.07 0.10 0.13 0.05 0.01 0.00 0.00
0.00 0.00 0.00 0.00 0.00 0.01 0.01 0.01 0.02 0.02 0.03 0.04 0.06 0.04 0.06 0.10 0.15 0.14 0.15 0.16 0.14 0.14 0.16 0.17 0.23 0.30 0.33 0.25 0.16 0.09 0.04 0.03 0.03 0.06 0.02 0.00 0.00 0.00
0.00 0.00 0.00 0.00 0.01 0.01 0.01 0.02 0.02 0.02 0.03 0.04 0.05 0.04 0.05 0.10 0.10 0.09 0.13 0.16 0.18 0.16 0.13 0.14 0.17 0.22 0.27 0.29 0.24 0.14 0.04 0.02 0.02 0.02 0.01 0.01 0.01 0.01
0.00 0.00 0.00 0.00 0.01 0.01 0.01 0.02 0.03 0.03 0.04 0.04 0.04 0.05 0.05 0.11 0.09 0.07 0.13 0.17 0.21 0.18 0.15 0.10 0.12 0.17 0.22 0.20 0.17 0.14 0.05 0.05 0.03 0.01 0.02 0.03 0.04 0.06
0.00 0.00 0.00 0.01 0.01 0.01 0.01 0.03 0.03 0.03 0.02 0.03 0.04 0.06 0.07 0.13 0.12 0.08 0.12 0.17 0.17 0.22 0.23 0.19 0.17 0.15 0.14 0.11 0.12 0.15 0.07 0.08 0.05 0.01 0.07 0.11 0.10 0.13
0.00 0.00 0.01 0.01 0.01 0.01 0.02 0.02 0.03 0.03 0.03 0.04 0.05 0.06 0.07 0.10 0.10 0.11 0.13 0.15 0.16 0.22 0.21 0.18 0.14 0.14 0.12 0.11 0.10 0.13 0.11 0.11 0.13 0.14 0.15 0.08 0.05 0.14

GFSNE_prec_precacc24_141.txt.gz
Total_Precipitation_Accumulation
0.24 0.31 0.30 0.30 0.34 0.47 0.68 0.80 0.83 0.57 0.25 0.11 0.12 0.08 0.07 0.09 0.13 0.11 0.08 0.22 0.19 0.14 0.10 0.07 0.07 0.06 0.06 0.05 0.04 0.02 0.01 0.01 0.01 0.02 0.02 0.02 0.02 0.03
0.32 0.36 0.35 0.37 0.42 0.43 0.42 0.43 0.58 0.74 0.64 0.23 0.18 0.17 0.15 0.16 0.23 0.21 0.21 0.28 0.22 0.18 0.14 0.13 0.11 0.08 0.05 0.03 0.01 0.01 0.01 0.02 0.02 0.03 0.04 0.04 0.04 0.04
0.39 0.43 0.42 0.36 0.33 0.30 0.30 0.32 0.36 0.42 0.48 0.36 0.34 0.30 0.28 0.27 0.25 0.21 0.18 0.13 0.13 0.15 0.09 0.07 0.04 0.02 0.02 0.02 0.02 0.02 0.02 0.03 0.04 0.03 0.03 0.05 0.05 0.05
0.51 0.51 0.45 0.40 0.37 0.34 0.31 0.29 0.26 0.26 0.30 0.32 0.35 0.33 0.31 0.22 0.15 0.13 0.11 0.08 0.07 0.09 0.09 0.07 0.07 0.06 0.06 0.06 0.07 0.07 0.07 0.06 0.07 0.08 0.07 0.07 0.07 0.10
0.42 0.36 0.37 0.42 0.45 0.47 0.48 0.45 0.38 0.31 0.26 0.25 0.22 0.18 0.14 0.08 0.03 0.03 0.03 0.03 0.02 0.08 0.10 0.11 0.13 0.10 0.08 0.08 0.08 0.08 0.09 0.08 0.08 0.08 0.08 0.09 0.09 0.11
0.24 0.16 0.11 0.10 0.12 0.12 0.12 0.10 0.06 0.03 0.02 0.02 0.02 0.01 0.01 0.01 0.02 0.03 0.03 0.03 0.05 0.07 0.11 0.13 0.16 0.15 0.12 0.10 0.08 0.07 0.07 0.07 0.09 0.10 0.11 0.11 0.11 0.12
0.05 0.02 0.01 0.01 0.00 0.00 0.00 0.00 0.00 0.00 0.00 0.00 0.00 0.01 0.01 0.01 0.02 0.03 0.04 0.05 0.08 0.09 0.10 0.12 0.16 0.16 0.16 0.18 0.15 0.13 0.11 0.12 0.16 0.18 0.18 0.16 0.15 0.15
0.00 0.01 0.00 0.00 0.00 0.00 0.00 0.00 0.00 0.00 0.00 0.00 0.01 0.01 0.01 0.02 0.03 0.04 0.06 0.12 0.15 0.10 0.11 0.11 0.13 0.14 0.10 0.09 0.13 0.13 0.15 0.18 0.22 0.22 0.21 0.20 0.19 0.17
0.00 0.00 0.00 0.00 0.00 0.00 0.00 0.00 0.00 0.00 0.00 0.01 0.01 0.01 0.01 0.02 0.05 0.07 0.07 0.12 0.14 0.10 0.12 0.14 0.13 0.16 0.16 0.18 0.29 0.29 0.28 0.33 0.36 0.34 0.29 0.24 0.20 0.15
0.00 0.00 0.00 0.00 0.00 0.00 0.00 0.00 0.00 0.00 0.00 0.00 0.01 0.01 0.01 0.02 0.05 0.09 0.14 0.18 0.19 0.16 0.15 0.19 0.10 0.10 0.14 0.14 0.26 0.32 0.33 0.32 0.34 0.33 0.32 0.31 0.29 0.26
0.00 0.00 0.00 0.00 0.00 0.00 0.00 0.00 0.00 0.00 0.00 0.00 0.01 0.01 0.02 0.05 0.08 0.12 0.15 0.19 0.23 0.16 0.14 0.23 0.18 0.17 0.15 0.16 0.24 0.43 0.41 0.32 0.30 0.28 0.25 0.27 0.30 0.31
0.00 0.00 0.00 0.00 0.00 0.00 0.00 0.00 0.00 0.00 0.00 0.00 0.00 0.00 0.01 0.03 0.08 0.09 0.10 0.19 0.29 0.29 0.21 0.39 0.40 0.36 0.36 0.24 0.17 0.19 0.30 0.34 0.35 0.34 0.34 0.32 0.31 0.23
0.00 0.00 0.00 0.00 0.00 0.00 0.00 0.00 0.01 0.01 0.01 0.01 0.01 0.00 0.01 0.02 0.05 0.08 0.08 0.15 0.25 0.27 0.24 0.53 0.51 0.51 0.63 0.42 0.30 0.30 0.36 0.35 0.33 0.31 0.29 0.26 0.22 0.17
0.00 0.00 0.00 0.00 0.00 0.00 0.00 0.00 0.01 0.01 0.01 0.01 0.01 0.01 0.02 0.04 0.06 0.12 0.12 0.17 0.21 0.27 0.27 0.34 0.40 0.31 0.52 0.42 0.30 0.27 0.30 0.28 0.27 0.29 0.29 0.23 0.14 0.09
0.00 0.00 0.00 0.00 0.00 0.00 0.00 0.00 0.00 0.00 0.01 0.01 0.01 0.01 0.01 0.03 0.08 0.11 0.10 0.10 0.11 0.18 0.27 0.30 0.42 0.37 0.35 0.27 0.23 0.25 0.28 0.19 0.22 0.20 0.20 0.14 0.07 0.04
0.00 0.00 0.00 0.00 0.00 0.00 0.00 0.00 0.00 0.01 0.02 0.02 0.02 0.01 0.02 0.03 0.05 0.10 0.12 0.10 0.12 0.13 0.22 0.31 0.41 0.43 0.31 0.21 0.19 0.15 0.16 0.17 0.18 0.17 0.07 0.03 0.02 0.01
0.00 0.00 0.00 0.00 0.00 0.00 0.00 0.00 0.00 0.00 0.01 0.01 0.01 0.02 0.05 0.06 0.06 0.08 0.10 0.11 0.11 0.08 0.15 0.26 0.33 0.36 0.30 0.23 0.16 0.13 0.10 0.12 0.15 0.15 0.06 0.01 0.00 0.00
0.00 0.00 0.00 0.00 0.00 0.00 0.00 0.00 0.00 0.00 0.01 0.01 0.01 0.02 0.04 0.05 0.07 0.07 0.08 0.11 0.12 0.10 0.11 0.14 0.26 0.31 0.29 0.18 0.14 0.08 0.06 0.07 0.10 0.13 0.05 0.01 0.00 0.00
0.00 0.00 0.00 0.00 0.00 0.00 0.00 0.00 0.01 0.00 0.00 0.01 0.02 0.02 0.03 0.04 0.07 0.06 0.07 0.08 0.09 0.09 0.10 0.11 0.18 0.27 0.31 0.23 0.16 0.09 0.05 0.03 0.03 0.06 0.02 0.00 0.00 0.00
0.00 0.00 0.00 0.00 0.00 0.00 0.00 0.01 0.01 0.01 0.01 0.01 0.02 0.02 0.03 0.07 0.06 0.04 0.06 0.10 0.12 0.11 0.08 0.09 0.13 0.20 0.26 0.27 0.24 0.13 0.04 0.02 0.02 0.02 0.01 0.01 0.01 0.01
0.00 0.00 0.00 0.00 0.01 0.00 0.01 0.01 0.01 0.01 0.01 0.01 0.02 0.02 0.03 0.08 0.07 0.04 0.07 0.10 0.14 0.13 0.12 0.09 0.10 0.16 0.22 0.20 0.17 0.13 0.05 0.05 0.03 0.02 0.02 0.04 0.04 0.06
0.00 0.00 0.00 0.00 0.01 0.00 0.00 0.01 0.01 0.01 0.01 0.01 0.02 0.03 0.03 0.08 0.09 0.06 0.07 0.09 0.08 0.13 0.16 0.13 0.13 0.14 0.15 0.11 0.11 0.14 0.07 0.08 0.05 0.01 0.08 0.15 0.15 0.17
0.00 0.00 0.00 0.00 0.00 0.01 0.01 0.01 0.01 0.01 0.01 0.02 0.03 0.03 0.05 0.07 0.07 0.07 0.09 0.10 0.10 0.14 0.14 0.15 0.14 0.14 0.12 0.11 0.10 0.13 0.11 0.11 0.14 0.14 0.16 0.12 0.12 0.20

GFSNE_prec_precacc24_144.txt.gz
Total_Precipitation_Accumulation
0.19 0.24 0.27 0.27 0.31 0.44 0.63 0.76 0.83 0.62 0.32 0.16 0.15 0.10 0.08 0.08 0.13 0.10 0.07 0.19 0.14 0.14 0.14 0.12 0.12 0.11 0.08 0.06 0.05 0.04 0.03 0.03 0.02 0.02 0.02 0.02 0.02 0.03
0.21 0.29 0.31 0.34 0.44 0.46 0.43 0.41 0.52 0.66 0.62 0.36 0.30 0.24 0.17 0.17 0.22 0.21 0.21 0.25 0.20 0.17 0.14 0.13 0.11 0.08 0.06 0.04 0.02 0.01 0.01 0.02 0.02 0.03 0.04 0.04 0.04 0.04
0.25 0.31 0.39 0.37 0.38 0.35 0.31 0.31 0.34 0.39 0.45 0.37 0.35 0.30 0.28 0.26 0.23 0.19 0.16 0.11 0.12 0.16 0.10 0.08 0.05 0.04 0.03 0.02 0.02 0.02 0.02 0.03 0.04 0.03 0.03 0.05 0.05 0.05
0.47 0.48 0.43 0.38 0.35 0.32 0.29 0.27 0.26 0.27 0.30 0.32 0.35 0.33 0.30 0.22 0.15 0.12 0.10 0.07 0.06 0.07 0.07 0.07 0.07 0.06 0.06 0.06 0.07 0.07 0.07 0.06 0.07 0.08 0.07 0.07 0.07 0.10
0.41 0.35 0.36 0.41 0.45 0.47 0.48 0.45 0.38 0.30 0.26 0.25 0.22 0.19 0.15 0.08 0.03 0.02 0.01 0.01 0.01 0.04 0.07 0.10 0.11 0.10 0.08 0.08 0.08 0.08 0.09 0.08 0.08 0.08 0.08 0.09 0.09 0.11
0.24 0.16 0.11 0.10 0.12 0.12 0.12 0.10 0.06 0.03 0.02 0.02 0.02 0.02 0.01 0.00 0.00 0.01 0.00 0.00 0.01 0.02 0.06 0.10 0.14 0.13 0.11 0.09 0.08 0.07 0.07 0.07 0.09 0.10 0.11 0.11 0.11 0.12
0.05 0.02 0.01 0.01 0.00 0.00 0.00 0.00 0.00 0.00 0.00 0.00 0.00 0.01 0.01 0.01 0.01 0.01 0.01 0.00 0.01 0.01 0.02 0.06 0.10 0.13 0.14 0.16 0.15 0.13 0.11 0.12 0.16 0.19 0.19 0.16 0.15 0.15
0.00 0.01 0.00 0.00 0.00 0.00 0.00 0.00 0.00 0.00 0.00 0.00 0.00 0.01 0.01 0.02 0.02 0.01 0.01 0.01 0.01 0.00 0.01 0.03 0.05 0.06 0.06 0.08 0.13 0.13 0.15 0.18 0.23 0.22 0.21 0.20 0.19 0.17
0.00 0.00 0.00 0.00 0.00 0.00 0.00 0.00 0.00 0.00 0.00 0.00 0.00 0.00 0.01 0.01 0.02 0.02 0.02 0.03 0.02 0.02 0.04 0.06 0.08 0.13 0.13 0.16 0.26 0.27 0.28 0.34 0.37 0.34 0.29 0.24 0.20 0.16
0.00 0.00 0.00 0.00 0.00 0.00 0.00 0.00 0.00 0.00 0.00 0.00 0.00 0.00 0.01 0.00 0.01 0.03 0.04 0.05 0.04 0.04 0.06 0.12 0.07 0.08 0.12 0.11 0.25 0.32 0.33 0.32 0.34 0.33 0.32 0.31 0.30 0.27
0.00 0.00 0.00 0.00 0.00 0.00 0.00 0.00 0.00 0.00 0.00 0.00 0.00 0.00 0.00 0.01 0.02 0.03 0.03 0.05 0.07 0.04 0.02 0.07 0.10 0.12 0.13 0.14 0.24 0.43 0.41 0.32 0.30 0.28 0.25 0.28 0.30 0.32
0.00 0.00 0.00 0.00 0.00 0.00 0.00 0.00 0.00 0.00 0.00 0.00 0.00 0.00 0.00 0.01 0.01 0.02 0.03 0.09 0.11 0.12 0.03 0.12 0.13 0.13 0.19 0.17 0.15 0.19 0.30 0.34 0.35 0.34 0.34 0.32 0.32 0.23
0.00 0.00 0.00 0.00 0.00 0.00 0.00 0.00 0.00 0.00 0.00 0.00 0.00 0.00 0.00 0.00 0.00 0.01 0.02 0.05 0.12 0.13 0.10 0.29 0.19 0.13 0.27 0.25 0.25 0.30 0.36 0.35 0.33 0.31 0.29 0.26 0.22 0.17
0.00 0.00 0.00 0.00 0.00 0.00 0.00 0.00 0.00 0.00 0.00 0.00 0.00 0.00 0.01 0.01 0.00 0.00 0.01 0.02 0.07 0.12 0.12 0.21 0.30 0.19 0.36 0.30 0.24 0.27 0.30 0.28 0.28 0.29 0.29 0.23 0.14 0.09
0.00 0.00 0.00 0.00 0.00 0.00 0.00 0.00 0.00 0.00 0.00 0.00 0.00 0.01 0.01 0.00 0.00 0.00 0.01 0.02 0.03 0.06 0.10 0.15 0.26 0.27 0.29 0.24 0.20 0.25 0.28 0.19 0.22 0.20 0.20 0.14 0.07 0.04
0.00 0.00 0.00 0.00 0.00 0.00 0.00 0.00 0.00 0.00 0.00 0.00 0.01 0.00 0.00 0.00 0.01 0.01 0.02 0.01 0.02 0.03 0.06 0.10 0.13 0.20 0.18 0.13 0.17 0.15 0.16 0.17 0.19 0.17 0.07 0.03 0.02 0.01
0.00 0.00 0.00 0.00 0.00 0.00 0.00 0.00 0.00 0.00 0.00 0.00 0.00 0.00 0.00 0.01 0.01 0.02 0.04 0.04 0.04 0.03 0.05 0.08 0.13 0.16 0.16 0.16 0.13 0.12 0.11 0.12 0.15 0.15 0.06 0.01 0.00 0.00
0.00 0.00 0.00 0.00 0.00 0.00 0.00 0.00 0.00 0.00 0.00 0.00 0.01 0.01 0.02 0.02 0.03 0.02 0.03 0.05 0.06 0.04 0.04 0.04 0.09 0.13 0.15 0.15 0.14 0.08 0.06 0.07 0.10 0.13 0.05 0.01 0.00 0.00
0.00 0.00 0.00 0.00 0.00 0.00 0.00 0.00 0.00 0.00 0.00 0.01 0.01 0.01 0.02 0.03 0.04 0.03 0.03 0.04 0.03 0.03 0.04 0.06 0.10 0.16 0.17 0.15 0.13 0.08 0.05 0.03 0.04 0.06 0.02 0.00 0.00 0.00
0.00 0.00 0.00 0.00 0.00 0.00 0.00 0.00 0.00 0.00 0.01 0.01 0.01 0.01 0.02 0.05 0.04 0.04 0.04 0.05 0.05 0.05 0.04 0.05 0.08 0.15 0.22 0.21 0.19 0.11 0.04 0.02 0.02 0.02 0.02 0.01 0.01 0.01
0.00 0.00 0.00 0.00 0.00 0.00 0.00 0.00 0.01 0.01 0.01 0.01 0.01 0.02 0.02 0.06 0.05 0.03 0.05 0.05 0.07 0.06 0.06 0.05 0.05 0.10 0.17 0.19 0.16 0.11 0.04 0.03 0.02 0.02 0.03 0.05 0.04 0.06
0.00 0.00 0.00 0.00 0.00 0.00 0.00 0.01 0.00 0.00 0.00 0.01 0.01 0.02 0.02 0.05 0.06 0.05 0.05 0.06 0.05 0.07 0.08 0.07 0.08 0.09 0.10 0.11 0.11 0.14 0.05 0.05 0.05 0.01 0.09 0.18 0.18 0.19
0.00 0.00 0.00 0.00 0.00 0.00 0.00 0.00 0.01 0.01 0.00 0.01 0.02 0.02 0.03 0.05 0.04 0.05 0.05 0.06 0.07 0.08 0.08 0.09 0.09 0.11 0.10 0.09 0.09 0.12 0.09 0.08 0.13 0.14 0.16 0.12 0.14 0.24

GFSNE_prec_precacc24_147.txt.gz
Total_Precipitation_Accumulation
0.18 0.24 0.25 0.25 0.30 0.43 0.62 0.76 0.86 0.64 0.37 0.23 0.17 0.12 0.08 0.08 0.13 0.10 0.07 0.19 0.14 0.13 0.13 0.12 0.13 0.12 0.11 0.09 0.08 0.06 0.04 0.03 0.03 0.03 0.03 0.03 0.03 0.03
0.18 0.25 0.26 0.27 0.35 0.39 0.43 0.48 0.61 0.71 0.63 0.41 0.33 0.24 0.17 0.17 0.22 0.21 0.21 0.25 0.20 0.17 0.14 0.13 0.12 0.09 0.06 0.04 0.02 0.01 0.02 0.02 0.02 0.03 0.04 0.05 0.04 0.04
0.18 0.25 0.29 0.28 0.34 0.35 0.35 0.35 0.39 0.44 0.46 0.37 0.36 0.31 0.28 0.26 0.23 0.19 0.16 0.10 0.11 0.15 0.09 0.07 0.05 0.04 0.03 0.02 0.02 0.02 0.02 0.03 0.04 0.03 0.03 0.05 0.05 0.05
0.43 0.44 0.40 0.35 0.32 0.29 0.27 0.25 0.24 0.26 0.29 0.31 0.35 0.34 0.31 0.22 0.15 0.12 0.10 0.07 0.05 0.04 0.02 0.01 0.02 0.03 0.04 0.05 0.06 0.07 0.07 0.06 0.07 0.08 0.07 0.07 0.07 0.10
0.36 0.31 0.33 0.39 0.44 0.46 0.47 0.45 0.38 0.30 0.26 0.25 0.22 0.19 0.15 0.08 0.03 0.02 0.01 0.01 0.00 0.00 0.00 0.00 0.01 0.02 0.02 0.03 0.06 0.08 0.09 0.08 0.08 0.08 0.08 0.09 0.09 0.11
0.24 0.16 0.11 0.10 0.12 0.12 0.12 0.10 0.06 0.03 0.02 0.02 0.02 0.01 0.00 0.00 0.00 0.01 0.00 0.00 0.00 0.00 0.00 0.00 0.00 0.01 0.03 0.03 0.04 0.05 0.06 0.07 0.09 0.10 0.11 0.12 0.12 0.13
0.05 0.02 0.01 0.01 0.00 0.00 0.00 0.00 0.00 0.00 0.00 0.00 0.00 0.00 0.00 0.00 0.00 0.00 0.00 0.00 0.00 0.00 0.00 0.00 0.00 0.00 0.01 0.04 0.06 0.07 0.07 0.10 0.15 0.19 0.19 0.17 0.15 0.15
0.00 0.01 0.00 0.00 0.00 0.00 0.00 0.00 0.00 0.00 0.00 0.00 0.00 0.00 0.00 0.00 0.00 0.00 0.00 0.00 0.01 0.00 0.00 0.00 0.00 0.00 0.00 0.01 0.05 0.07 0.08 0.13 0.21 0.21 0.21 0.20 0.19 0.18
0.00 0.00 0.00 0.00 0.00 0.00 0.00 0.00 0.00 0.00 0.00 0.00 0.00 0.00 0.00 0.00 0.00 0.00 0.01 0.01 0.01 0.01 0.02 0.01 0.00 0.00 0.00 0.00 0.05 0.10 0.14 0.22 0.30 0.31 0.28 0.24 0.20 0.16
0.00 0.00 0.00 0.00 0.00 0.00 0.00 0.00 0.00 0.00 0.00 0.00 0.00 0.00 0.00 0.00 0.00 0.01 0.02 0.02 0.01 0.00 0.00 0.02 0.01 0.00 0.01 0.01 0.05 0.13 0.21 0.25 0.29 0.30 0.30 0.31 0.30 0.27
0.00 0.00 0.00 0.00 0.00 0.00 0.00 0.00 0.00 0.00 0.00 0.00 0.00 0.00 0.00 0.01 0.01 0.02 0.01 0.02 0.02 0.01 0.00 0.02 0.01 0.02 0.02 0.01 0.04 0.17 0.24 0.24 0.25 0.25 0.24 0.28 0.30 0.32
0.00 0.00 0.00 0.00 0.00 0.00 0.00 0.00 0.00 0.00 0.00 0.00 0.00 0.00 0.00 0.01 0.01 0.02 0.02 0.04 0.05 0.06 0.01 0.04 0.03 0.04 0.05 0.01 0.00 0.02 0.11 0.16 0.26 0.31 0.34 0.32 0.32 0.23
0.00 0.00 0.00 0.00 0.00 0.00 0.00 0.00 0.00 0.00 0.00 0.00 0.00 0.00 0.00 0.00 0.00 0.00 0.01 0.01 0.06 0.07 0.05 0.20 0.12 0.02 0.06 0.03 0.01 0.03 0.08 0.19 0.26 0.30 0.29 0.27 0.23 0.18
0.00 0.00 0.00 0.00 0.00 0.00 0.00 0.00 0.00 0.00 0.00 0.00 0.00 0.00 0.00 0.00 0.00 0.00 0.00 0.01 0.02 0.06 0.03 0.11 0.23 0.11 0.19 0.11 0.03 0.03 0.09 0.13 0.16 0.24 0.29 0.23 0.15 0.10
0.00 0.00 0.00 0.00 0.00 0.00 0.00 0.00 0.00 0.00 0.00 0.00 0.00 0.00 0.00 0.00 0.00 0.00 0.00 0.00 0.00 0.00 0.01 0.04 0.14 0.13 0.17 0.15 0.08 0.05 0.10 0.11 0.17 0.19 0.20 0.14 0.07 0.04
0.00 0.00 0.00 0.00 0.00 0.00 0.00 0.00 0.00 0.00 0.00 0.00 0.00 0.00 0.00 0.00 0.00 0.00 0.01 0.00 0.01 0.00 0.00 0.01 0.02 0.09 0.09 0.06 0.10 0.07 0.08 0.12 0.16 0.17 0.07 0.03 0.02 0.01
0.00 0.00 0.00 0.00 0.00 0.00 0.00 0.00 0.00 0.00 0.00 0.00 0.00 0.00 0.00 0.00 0.00 0.00 0.02 0.02 0.02 0.01 0.01 0.00 0.02 0.04 0.06 0.07 0.05 0.04 0.07 0.10 0.15 0.15 0.06 0.01 0.00 0.00
0.00 0.00 0.00 0.00 0.00 0.00 0.00 0.00 0.00 0.00 0.00 0.00 0.00 0.01 0.01 0.02 0.01 0.01 0.01 0.03 0.04 0.02 0.01 0.01 0.02 0.03 0.03 0.02 0.03 0.03 0.04 0.06 0.10 0.13 0.05 0.02 0.00 0.00
0.00 0.00 0.00 0.00 0.00 0.00 0.00 0.00 0.00 0.00 0.00 0.00 0.01 0.01 0.02 0.02 0.02 0.02 0.01 0.02 0.01 0.01 0.01 0.03 0.06 0.09 0.07 0.04 0.04 0.03 0.04 0.02 0.03 0.06 0.02 0.00 0.00 0.00
0.00 0.00 0.00 0.00 0.00 0.00 0.00 0.00 0.00 0.00 0.00 0.01 0.01 0.01 0.01 0.04 0.03 0.02 0.02 0.04 0.03 0.03 0.02 0.02 0.05 0.10 0.15 0.12 0.13 0.06 0.01 0.02 0.02 0.03 0.01 0.01 0.01 0.01
0.00 0.00 0.00 0.00 0.00 0.00 0.00 0.00 0.00 0.00 0.00 0.01 0.01 0.01 0.01 0.04 0.03 0.02 0.04 0.04 0.05 0.04 0.04 0.02 0.03 0.07 0.13 0.14 0.13 0.09 0.02 0.01 0.01 0.02 0.04 0.06 0.04 0.06
0.00 0.00 0.00 0.01 0.01 0.00 0.00 0.00 0.00 0.00 0.00 0.00 0.01 0.01 0.01 0.04 0.05 0.03 0.04 0.05 0.03 0.04 0.05 0.03 0.05 0.07 0.09 0.10 0.11 0.13 0.05 0.02 0.02 0.01 0.09 0.19 0.20 0.21
0.00 0.00 0.00 0.01 0.01 0.00 0.00 0.00 0.00 0.00 0.00 0.00 0.01 0.01 0.02 0.03 0.03 0.04 0.04 0.05 0.06 0.06 0.05 0.06 0.07 0.08 0.08 0.08 0.10 0.13 0.08 0.05 0.11 0.14 0.16 0.12 0.14 0.24

GFSNE_prec_precacc24_153.txt.gz
Total_Precipitation_Accumulation
0.13 0.14 0.14 0.16 0.21 0.34 0.54 0.74 0.91 0.68 0.43 0.28 0.23 0.19 0.16 0.17 0.33 0.26 0.12 0.21 0.16 0.14 0.13 0.12 0.12 0.12 0.11 0.09 0.08 0.06 0.04 0.04 0.03 0.02 0.03 0.03 0.03 0.04
0.14 0.18 0.16 0.14 0.20 0.22 0.27 0.36 0.57 0.72 0.66 0.40 0.35 0.27 0.19 0.21 0.25 0.20 0.21 0.25 0.20 0.17 0.14 0.13 0.12 0.08 0.06 0.04 0.02 0.01 0.01 0.01 0.01 0.02 0.04 0.04 0.04 0.04
0.04 0.06 0.08 0.12 0.23 0.23 0.22 0.22 0.25 0.32 0.40 0.32 0.33 0.30 0.27 0.26 0.24 0.19 0.16 0.10 0.11 0.15 0.09 0.06 0.04 0.02 0.01 0.00 0.00 0.00 0.00 0.01 0.01 0.02 0.02 0.04 0.05 0.05
0.00 0.06 0.19 0.20 0.23 0.22 0.20 0.19 0.20 0.22 0.25 0.28 0.34 0.34 0.31 0.23 0.15 0.12 0.10 0.07 0.05 0.04 0.02 0.00 0.00 0.00 0.00 0.00 0.00 0.00 0.00 0.00 0.00 0.00 0.02 0.04 0.06 0.09
0.05 0.09 0.17 0.29 0.34 0.38 0.41 0.42 0.37 0.30 0.25 0.24 0.22 0.19 0.15 0.08 0.03 0.02 0.01 0.01 0.00 0.00 0.00 0.00 0.00 0.00 0.00 0.00 0.00 0.00 0.00 0.00 0.00 0.00 0.02 0.04 0.06 0.10
0.17 0.14 0.11 0.10 0.12 0.12 0.12 0.10 0.06 0.03 0.02 0.02 0.02 0.01 0.00 0.00 0.00 0.00 0.00 0.00 0.00 0.00 0.00 0.00 0.00 0.00 0.00 0.00 0.00 0.00 0.00 0.00 0.00 0.01 0.03 0.05 0.07 0.10
0.05 0.02 0.01 0.01 0.00 0.00 0.00 0.00 0.00 0.00 0.00 0.00 0.00 0.00 0.00 0.00 0.00 0.00 0.00 0.00 0.00 0.00 0.00 0.00 0.00 0.00 0.00 0.00 0.00 0.00 0.00 0.00 0.02 0.03 0.05 0.05 0.04 0.07
0.00 0.01 0.00 0.00 0.00 0.00 0.00 0.00 0.00 0.00 0.00 0.00 0.00 0.00 0.00 0.00 0.00 0.00 0.00 0.00 0.00 0.00 0.00 0.00 0.00 0.00 0.00 0.00 0.00 0.00 0.01 0.02 0.04 0.02 0.02 0.04 0.06 0.07
0.00 0.00 0.00 0.00 0.00 0.00 0.00 0.00 0.00 0.00 0.00 0.00 0.00 0.00 0.00 0.00 0.00 0.00 0.00 0.01 0.00 0.00 0.00 0.00 0.00 0.00 0.00 0.00 0.00 0.00 0.01 0.03 0.01 0.00 0.00 0.02 0.03 0.05
0.00 0.00 0.00 0.00 0.00 0.00 0.00 0.00 0.00 0.00 0.00 0.00 0.00 0.00 0.00 0.00 0.00 0.01 0.01 0.01 0.00 0.00 0.00 0.01 0.00 0.00 0.00 0.00 0.00 0.00 0.01 0.00 0.00 0.01 0.01 0.02 0.04 0.07
0.00 0.00 0.00 0.00 0.00 0.00 0.00 0.00 0.00 0.00 0.00 0.00 0.00 0.00 0.00 0.00 0.00 0.00 0.00 0.01 0.01 0.00 0.00 0.01 0.00 0.00 0.00 0.00 0.00 0.00 0.00 0.00 0.00 0.00 0.01 0.05 0.07 0.11
0.00 0.00 0.00 0.00 0.00 0.00 0.00 0.00 0.00 0.00 0.00 0.00 0.00 0.00 0.00 0.00 0.00 0.00 0.00 0.01 0.02 0.02 0.00 0.02 0.00 0.01 0.02 0.00 0.00 0.00 0.00 0.00 0.00 0.02 0.05 0.09 0.11 0.06
0.00 0.00 0.00 0.00 0.00 0.00 0.00 0.00 0.00 0.00 0.00 0.00 0.00 0.00 0.00 0.00 0.00 0.00 0.00 0.00 0.03 0.03 0.01 0.11 0.08 0.01 0.04 0.02 0.00 0.00 0.00 0.00 0.00 0.01 0.05 0.04 0.06 0.07
0.00 0.00 0.00 0.00 0.00 0.00 0.00 0.00 0.00 0.00 0.00 0.00 0.00 0.00 0.00 0.00 0.00 0.00 0.00 0.00 0.01 0.03 0.01 0.05 0.16 0.07 0.12 0.07 0.01 0.00 0.00 0.00 0.00 0.00 0.01 0.04 0.03 0.02
0.00 0.00 0.00 0.00 0.00 0.00 0.00 0.00 0.00 0.00 0.00 0.00 0.00 0.00 0.00 0.00 0.00 0.00 0.00 0.00 0.00 0.00 0.00 0.02 0.10 0.08 0.10 0.10 0.06 0.01 0.01 0.00 0.00 0.01 0.02 0.02 0.02 0.00
0.00 0.00 0.00 0.00 0.00 0.00 0.00 0.00 0.00 0.00 0.00 0.00 0.00 0.00 0.00 0.00 0.00 0.00 0.00 0.00 0.00 0.00 0.00 0.00 0.01 0.06 0.06 0.02 0.05 0.02 0.01 0.03 0.01 0.01 0.01 0.00 0.02 0.01
0.00 0.00 0.00 0.00 0.00 0.00 0.00 0.00 0.00 0.00 0.00 0.00 0.00 0.00 0.00 0.00 0.00 0.00 0.00 0.00 0.01 0.01 0.00 0.00 0.00 0.01 0.02 0.02 0.01 0.01 0.02 0.01 0.01 0.01 0.01 0.00 0.00 0.00
0.00 0.00 0.00 0.00 0.00 0.00 0.00 0.00 0.00 0.00 0.00 0.00 0.00 0.00 0.00 0.01 0.00 0.00 0.00 0.00 0.01 0.01 0.01 0.00 0.01 0.01 0.00 0.00 0.00 0.00 0.02 0.01 0.01 0.04 0.03 0.02 0.00 0.00
0.00 0.00 0.00 0.00 0.00 0.00 0.00 0.00 0.00 0.00 0.00 0.00 0.00 0.00 0.01 0.01 0.01 0.00 0.00 0.01 0.01 0.01 0.00 0.02 0.04 0.07 0.05 0.01 0.00 0.00 0.03 0.01 0.02 0.04 0.02 0.01 0.01 0.00
0.00 0.00 0.00 0.00 0.00 0.00 0.00 0.00 0.00 0.00 0.00 0.00 0.00 0.00 0.00 0.01 0.01 0.01 0.01 0.01 0.02 0.02 0.01 0.01 0.04 0.07 0.12 0.09 0.09 0.01 0.00 0.02 0.03 0.04 0.01 0.00 0.01 0.01
0.00 0.00 0.00 0.01 0.01 0.00 0.00 0.00 0.01 0.00 0.00 0.00 0.00 0.00 0.01 0.02 0.01 0.01 0.01 0.01 0.03 0.03 0.03 0.01 0.02 0.05 0.08 0.07 0.07 0.01 0.00 0.00 0.00 0.03 0.04 0.08 0.05 0.06
0.00 0.01 0.02 0.02 0.05 0.08 0.08 0.07 0.07 0.06 0.04 0.03 0.03 0.03 0.02 0.02 0.02 0.01 0.01 0.02 0.01 0.03 0.03 0.02 0.02 0.03 0.04 0.06 0.04 0.03 0.02 0.00 0.00 0.00 0.09 0.21 0.24 0.26
0.00 0.00 0.01 0.03 0.09 0.15 0.17 0.15 0.11 0.08 0.05 0.04 0.04 0.03 0.02 0.02 0.01 0.01 0.01 0.02 0.03 0.03 0.03 0.03 0.03 0.03 0.03 0.05 0.06 0.06 0.04 0.00 0.02 0.09 0.15 0.12 0.14 0.25

GFSNE_prec_precacc24_156.txt.gz
Total_Precipitation_Accumulation
0.12 0.14 0.14 0.15 0.20 0.32 0.52 0.68 0.81 0.60 0.38 0.27 0.21 0.17 0.15 0.16 0.31 0.26 0.15 0.19 0.15 0.14 0.13 0.12 0.12 0.12 0.11 0.09 0.07 0.05 0.04 0.03 0.02 0.01 0.02 0.02 0.02 0.03
0.13 0.17 0.15 0.13 0.16 0.17 0.18 0.23 0.35 0.53 0.54 0.33 0.29 0.21 0.14 0.15 0.21 0.20 0.21 0.24 0.20 0.17 0.14 0.13 0.11 0.08 0.05 0.03 0.02 0.01 0.01 0.01 0.01 0.01 0.02 0.02 0.02 0.03
0.04 0.06 0.07 0.08 0.14 0.16 0.16 0.15 0.15 0.18 0.27 0.19 0.18 0.17 0.18 0.20 0.22 0.19 0.16 0.10 0.11 0.15 0.09 0.06 0.03 0.02 0.01 0.00 0.00 0.00 0.00 0.00 0.00 0.00 0.00 0.01 0.01 0.02
0.00 0.00 0.01 0.01 0.02 0.03 0.03 0.04 0.09 0.14 0.18 0.21 0.26 0.29 0.29 0.23 0.15 0.12 0.10 0.07 0.05 0.04 0.02 0.00 0.00 0.00 0.00 0.00 0.00 0.00 0.00 0.00 0.00 0.00 0.00 0.00 0.00 0.00
0.00 0.01 0.01 0.01 0.01 0.07 0.13 0.17 0.21 0.19 0.19 0.21 0.21 0.19 0.15 0.08 0.03 0.02 0.01 0.01 0.00 0.00 0.00 0.00 0.00 0.00 0.00 0.00 0.00 0.00 0.00 0.00 0.00 0.00 0.01 0.01 0.01 0.02
0.00 0.00 0.01 0.03 0.04 0.06 0.07 0.07 0.05 0.03 0.02 0.02 0.02 0.01 0.00 0.00 0.00 0.00 0.00 0.00 0.00 0.00 0.00 0.00 0.00 0.00 0.00 0.00 0.00 0.00 0.00 0.00 0.00 0.01 0.02 0.03 0.03 0.02
0.01 0.00 0.00 0.00 0.00 0.00 0.00 0.00 0.00 0.00 0.00 0.00 0.00 0.00 0.00 0.00 0.00 0.00 0.00 0.00 0.00 0.00 0.00 0.00 0.00 0.00 0.00 0.00 0.00 0.00 0.00 0.00 0.01 0.03 0.04 0.03 0.01 0.02
0.00 0.01 0.00 0.00 0.00 0.00 0.00 0.00 0.00 0.00 0.00 0.00 0.00 0.00 0.00 0.00 0.00 0.00 0.00 0.00 0.00 0.00 0.00 0.00 0.00 0.00 0.00 0.00 0.00 0.00 0.01 0.02 0.04 0.02 0.00 0.01 0.01 0.01
0.00 0.00 0.00 0.00 0.00 0.00 0.00 0.00 0.00 0.00 0.00 0.00 0.00 0.00 0.00 0.00 0.00 0.00 0.00 0.00 0.00 0.00 0.00 0.00 0.00 0.00 0.00 0.00 0.00 0.00 0.01 0.03 0.01 0.00 0.00 0.00 0.00 0.02
0.00 0.00 0.00 0.00 0.00 0.00 0.00 0.00 0.00 0.00 0.00 0.00 0.00 0.00 0.00 0.00 0.00 0.00 0.00 0.00 0.00 0.00 0.00 0.00 0.00 0.00 0.00 0.00 0.00 0.00 0.01 0.00 0.00 0.01 0.01 0.01 0.02 0.03
0.00 0.00 0.00 0.00 0.00 0.00 0.00 0.00 0.00 0.00 0.00 0.00 0.00 0.00 0.00 0.00 0.00 0.00 0.00 0.00 0.00 0.00 0.00 0.01 0.00 0.00 0.00 0.00 0.00 0.00 0.00 0.00 0.00 0.00 0.01 0.03 0.04 0.05
0.00 0.00 0.00 0.00 0.00 0.00 0.00 0.00 0.00 0.00 0.00 0.00 0.00 0.00 0.00 0.00 0.00 0.00 0.00 0.00 0.01 0.01 0.00 0.01 0.00 0.01 0.02 0.00 0.00 0.00 0.00 0.00 0.00 0.00 0.02 0.03 0.05 0.03
0.00 0.00 0.00 0.00 0.00 0.00 0.00 0.00 0.00 0.00 0.00 0.00 0.00 0.00 0.00 0.00 0.00 0.00 0.00 0.00 0.02 0.02 0.01 0.07 0.06 0.01 0.03 0.02 0.00 0.00 0.00 0.00 0.00 0.00 0.01 0.02 0.03 0.04
0.00 0.00 0.00 0.00 0.00 0.00 0.00 0.00 0.00 0.00 0.00 0.00 0.00 0.00 0.00 0.00 0.00 0.00 0.00 0.00 0.00 0.01 0.00 0.03 0.12 0.06 0.09 0.05 0.01 0.00 0.00 0.00 0.00 0.00 0.00 0.01 0.01 0.01
0.00 0.00 0.00 0.00 0.00 0.00 0.00 0.00 0.00 0.00 0.00 0.00 0.00 0.00 0.00 0.00 0.00 0.00 0.00 0.00 0.00 0.00 0.00 0.01 0.06 0.06 0.08 0.08 0.05 0.01 0.01 0.00 0.00 0.00 0.00 0.00 0.00 0.00
0.00 0.00 0.00 0.00 0.00 0.00 0.00 0.00 0.00 0.00 0.00 0.00 0.00 0.00 0.00 0.00 0.00 0.00 0.00 0.00 0.00 0.00 0.00 0.00 0.00 0.05 0.06 0.02 0.04 0.02 0.01 0.02 0.00 0.00 0.00 0.00 0.00 0.00
0.00 0.00 0.00 0.00 0.00 0.00 0.00 0.00 0.00 0.00 0.00 0.00 0.00 0.00 0.00 0.00 0.00 0.00 0.00 0.00 0.00 0.00 0.00 0.00 0.00 0.01 0.02 0.01 0.01 0.00 0.01 0.01 0.00 0.00 0.00 0.00 0.00 0.00
0.00 0.00 0.00 0.00 0.00 0.00 0.00 0.00 0.00 0.00 0.00 0.00 0.00 0.00 0.00 0.00 0.00 0.00 0.00 0.00 0.00 0.00 0.00 0.00 0.00 0.01 0.00 0.00 0.00 0.00 0.01 0.01 0.00 0.00 0.01 0.02 0.01 0.00
0.00 0.00 0.00 0.00 0.00 0.00 0.00 0.00 0.00 0.00 0.00 0.00 0.00 0.00 0.00 0.00 0.01 0.00 0.00 0.00 0.00 0.00 0.00 0.01 0.02 0.05 0.05 0.01 0.00 0.00 0.03 0.01 0.01 0.01 0.00 0.01 0.01 0.00
0.03 0.01 0.02 0.02 0.02 0.01 0.01 0.01 0.01 0.00 0.00 0.00 0.00 0.00 0.00 0.01 0.01 0.01 0.01 0.01 0.01 0.01 0.00 0.00 0.01 0.06 0.11 0.09 0.09 0.01 0.00 0.01 0.03 0.03 0.01 0.00 0.00 0.01
0.01 0.02 0.03 0.08 0.11 0.10 0.08 0.07 0.06 0.03 0.02 0.01 0.01 0.01 0.01 0.03 0.03 0.02 0.01 0.01 0.01 0.01 0.01 0.00 0.00 0.04 0.07 0.07 0.07 0.01 0.00 0.00 0.00 0.03 0.04 0.07 0.03 0.05
0.00 0.01 0.02 0.05 0.12 0.18 0.20 0.18 0.16 0.14 0.11 0.08 0.06 0.06 0.05 0.05 0.04 0.03 0.01 0.01 0.01 0.01 0.01 0.00 0.00 0.01 0.03 0.06 0.03 0.01 0.00 0.00 0.00 0.00 0.08 0.18 0.23 0.27
0.00 0.00 0.01 0.04 0.12 0.21 0.27 0.25 0.18 0.13 0.10 0.10 0.10 0.09 0.07 0.06 0.04 0.03 0.02 0.02 0.02 0.02 0.01 0.02 0.01 0.01 0.02 0.03 0.04 0.02 0.01 0.00 0.02 0.07 0.11 0.11 0.14 0.25

GFSNE_prec_precacc24_162.txt.gz
Total_Precipitation_Accumulation
0.08 0.10 0.11 0.13 0.14 0.15 0.32 0.51 0.68 0.54 0.36 0.25 0.17 0.12 0.09 0.11 0.23 0.20 0.11 0.14 0.07 0.06 0.07 0.11 0.14 0.12 0.11 0.09 0.07 0.05 0.04 0.03 0.02 0.01 0.01 0.01 0.01 0.01
0.05 0.10 0.12 0.11 0.14 0.15 0.16 0.20 0.30 0.45 0.47 0.29 0.21 0.12 0.05 0.05 0.05 0.01 0.02 0.03 0.02 0.01 0.03 0.05 0.07 0.07 0.05 0.03 0.02 0.01 0.01 0.00 0.00 0.00 0.00 0.00 0.00 0.00
0.03 0.05 0.06 0.07 0.13 0.14 0.13 0.12 0.13 0.13 0.16 0.10 0.06 0.04 0.02 0.01 0.02 0.01 0.02 0.01 0.03 0.09 0.05 0.03 0.03 0.02 0.01 0.00 0.00 0.00 0.00 0.00 0.00 0.00 0.00 0.00 0.00 0.00
0.00 0.00 0.00 0.00 0.01 0.01 0.01 0.01 0.02 0.02 0.03 0.02 0.03 0.04 0.06 0.05 0.03 0.03 0.03 0.01 0.01 0.03 0.01 0.00 0.00 0.00 0.00 0.00 0.00 0.00 0.00 0.00 0.00 0.00 0.00 0.00 0.00 0.00
0.00 0.00 0.00 0.00 0.00 0.00 0.00 0.00 0.00 0.00 0.00 0.00 0.01 0.02 0.03 0.02 0.01 0.01 0.01 0.00 0.00 0.00 0.00 0.00 0.00 0.00 0.00 0.00 0.00 0.00 0.00 0.00 0.00 0.00 0.00 0.00 0.00 0.01
0.00 0.00 0.00 0.00 0.00 0.00 0.00 0.00 0.00 0.00 0.00 0.00 0.01 0.01 0.00 0.00 0.00 0.00 0.00 0.00 0.00 0.00 0.00 0.00 0.00 0.00 0.00 0.00 0.00 0.00 0.00 0.00 0.00 0.00 0.01 0.02 0.02 0.02
0.00 0.00 0.00 0.00 0.00 0.00 0.00 0.00 0.00 0.00 0.00 0.00 0.00 0.00 0.00 0.00 0.00 0.00 0.00 0.00 0.00 0.00 0.00 0.00 0.00 0.00 0.00 0.00 0.00 0.00 0.00 0.00 0.01 0.02 0.03 0.02 0.01 0.01
0.00 0.00 0.00 0.00 0.00 0.00 0.00 0.00 0.00 0.00 0.00 0.00 0.00 0.00 0.00 0.00 0.00 0.00 0.00 0.00 0.00 0.00 0.00 0.00 0.00 0.00 0.00 0.00 0.00 0.00 0.00 0.01 0.03 0.01 0.00 0.00 0.00 0.01
0.00 0.00 0.00 0.00 0.00 0.00 0.00 0.00 0.00 0.00 0.00 0.00 0.00 0.00 0.00 0.00 0.00 0.00 0.00 0.00 0.00 0.00 0.00 0.00 0.00 0.00 0.00 0.00 0.00 0.00 0.00 0.02 0.01 0.00 0.00 0.00 0.00 0.01
0.00 0.00 0.00 0.00 0.00 0.00 0.00 0.00 0.00 0.00 0.00 0.00 0.00 0.00 0.00 0.00 0.00 0.00 0.00 0.00 0.00 0.00 0.00 0.00 0.00 0.00 0.00 0.00 0.00 0.00 0.01 0.00 0.00 0.00 0.01 0.01 0.01 0.03
0.00 0.00 0.00 0.00 0.00 0.00 0.00 0.00 0.00 0.00 0.00 0.00 0.00 0.00 0.00 0.00 0.00 0.00 0.00 0.00 0.00 0.00 0.00 0.00 0.00 0.00 0.00 0.00 0.00 0.00 0.00 0.00 0.00 0.00 0.00 0.01 0.02 0.04
0.00 0.00 0.00 0.00 0.00 0.00 0.00 0.00 0.00 0.00 0.00 0.00 0.00 0.00 0.00 0.00 0.00 0.00 0.00 0.00 0.00 0.00 0.00 0.00 0.00 0.00 0.01 0.00 0.00 0.00 0.00 0.00 0.00 0.00 0.00 0.01 0.03 0.01
0.00 0.00 0.00 0.00 0.00 0.00 0.00 0.00 0.00 0.00 0.00 0.00 0.00 0.00 0.00 0.00 0.00 0.00 0.00 0.00 0.00 0.00 0.00 0.01 0.01 0.01 0.02 0.01 0.00 0.00 0.00 0.00 0.00 0.00 0.00 0.00 0.01 0.02
0.00 0.00 0.00 0.00 0.00 0.00 0.00 0.00 0.00 0.00 0.00 0.00 0.00 0.00 0.00 0.00 0.00 0.00 0.00 0.00 0.00 0.00 0.00 0.00 0.03 0.03 0.05 0.03 0.01 0.00 0.00 0.00 0.00 0.00 0.00 0.00 0.00 0.00
0.00 0.00 0.00 0.00 0.00 0.00 0.00 0.00 0.00 0.00 0.00 0.00 0.00 0.00 0.00 0.00 0.00 0.00 0.00 0.00 0.00 0.00 0.00 0.00 0.02 0.02 0.04 0.04 0.02 0.00 0.00 0.00 0.00 0.00 0.00 0.00 0.00 0.00
0.00 0.00 0.00 0.00 0.00 0.00 0.00 0.00 0.00 0.00 0.00 0.00 0.00 0.00 0.00 0.00 0.00 0.00 0.00 0.00 0.00 0.00 0.00 0.00 0.00 0.01 0.02 0.01 0.02 0.01 0.00 0.01 0.00 0.00 0.00 0.00 0.00 0.00
0.00 0.00 0.00 0.00 0.00 0.00 0.00 0.00 0.00 0.00 0.00 0.00 0.00 0.00 0.00 0.00 0.00 0.00 0.00 0.00 0.00 0.00 0.00 0.00 0.00 0.00 0.00 0.00 0.01 0.00 0.00 0.00 0.00 0.00 0.00 0.00 0.00 0.00
0.00 0.00 0.00 0.00 0.00 0.00 0.00 0.00 0.00 0.00 0.00 0.00 0.01 0.01 0.00 0.00 0.00 0.00 0.00 0.00 0.00 0.00 0.00 0.00 0.00 0.00 0.00 0.00 0.00 0.00 0.00 0.00 0.00 0.00 0.00 0.02 0.01 0.00
0.05 0.02 0.01 0.01 0.02 0.04 0.05 0.06 0.04 0.04 0.08 0.07 0.05 0.04 0.03 0.02 0.03 0.02 0.02 0.02 0.01 0.00 0.00 0.00 0.01 0.03 0.03 0.01 0.00 0.00 0.02 0.01 0.01 0.00 0.00 0.01 0.01 0.00
0.07 0.05 0.05 0.08 0.11 0.13 0.14 0.16 0.17 0.17 0.16 0.12 0.10 0.09 0.10 0.09 0.09 0.06 0.06 0.04 0.03 0.02 0.01 0.01 0.01 0.02 0.06 0.06 0.07 0.00 0.00 0.01 0.02 0.03 0.01 0.00 0.00 0.00
0.01 0.03 0.05 0.11 0.16 0.20 0.22 0.22 0.22 0.18 0.15 0.16 0.14 0.13 0.13 0.16 0.13 0.09 0.09 0.08 0.06 0.03 0.02 0.01 0.00 0.01 0.03 0.04 0.05 0.01 0.00 0.00 0.00 0.03 0.03 0.07 0.02 0.00
0.00 0.01 0.02 0.05 0.13 0.22 0.29 0.31 0.30 0.25 0.21 0.18 0.17 0.19 0.20 0.21 0.16 0.12 0.10 0.08 0.06 0.05 0.05 0.02 0.00 0.00 0.01 0.04 0.02 0.01 0.00 0.00 0.00 0.00 0.02 0.11 0.17 0.16
0.00 0.00 0.01 0.04 0.12 0.23 0.32 0.35 0.29 0.20 0.17 0.19 0.22 0.20 0.20 0.19 0.15 0.12 0.10 0.09 0.07 0.05 0.04 0.03 0.02 0.01 0.01 0.02 0.03 0.01 0.00 0.00 0.00 0.01 0.01 0.04 0.08 0.11

GFSNE_prec_precacc24_165.txt.gz
Total_Precipitation_Accumulation
0.05 0.05 0.06 0.07 0.10 0.11 0.13 0.21 0.35 0.29 0.23 0.19 0.13 0.11 0.09 0.11 0.22 0.19 0.09 0.06 0.03 0.03 0.06 0.10 0.12 0.09 0.07 0.05 0.04 0.04 0.04 0.03 0.02 0.01 0.01 0.01 0.01 0.01
0.01 0.04 0.05 0.06 0.11 0.13 0.14 0.17 0.20 0.26 0.28 0.25 0.20 0.12 0.05 0.05 0.05 0.01 0.01 0.02 0.01 0.00 0.00 0.00 0.01 0.01 0.01 0.01 0.01 0.01 0.01 0.00 0.00 0.00 0.00 0.00 0.00 0.00
0.00 0.01 0.02 0.04 0.09 0.12 0.12 0.12 0.12 0.12 0.15 0.09 0.04 0.02 0.01 0.01 0.01 0.00 0.00 0.00 0.01 0.03 0.02 0.01 0.01 0.02 0.01 0.00 0.00 0.00 0.00 0.00 0.00 0.00 0.00 0.00 0.00 0.00
0.00 0.00 0.00 0.00 0.00 0.00 0.00 0.01 0.02 0.02 0.03 0.02 0.01 0.02 0.02 0.01 0.00 0.00 0.01 0.00 0.00 0.00 0.00 0.00 0.00 0.00 0.00 0.00 0.00 0.00 0.00 0.00 0.00 0.00 0.00 0.00 0.00 0.00
0.00 0.00 0.00 0.00 0.00 0.00 0.00 0.00 0.00 0.00 0.00 0.00 0.01 0.01 0.01 0.00 0.00 0.01 0.01 0.00 0.00 0.00 0.00 0.00 0.00 0.00 0.00 0.00 0.00 0.00 0.00 0.00 0.00 0.00 0.00 0.00 0.00 0.01
0.00 0.00 0.00 0.00 0.00 0.00 0.00 0.00 0.00 0.00 0.00 0.00 0.00 0.00 0.00 0.00 0.00 0.00 0.00 0.00 0.00 0.00 0.00 0.00 0.00 0.00 0.00 0.00 0.00 0.00 0.00 0.00 0.00 0.00 0.00 0.01 0.01 0.01
0.00 0.00 0.00 0.00 0.00 0.00 0.00 0.00 0.00 0.00 0.00 0.00 0.00 0.00 0.00 0.00 0.00 0.00 0.00 0.00 0.00 0.00 0.00 0.00 0.00 0.00 0.00 0.00 0.00 0.00 0.00 0.00 0.00 0.01 0.02 0.01 0.00 0.00
0.00 0.00 0.00 0.00 0.00 0.00 0.00 0.00 0.00 0.00 0.00 0.00 0.00 0.00 0.00 0.00 0.00 0.00 0.00 0.00 0.00 0.00 0.00 0.00 0.00 0.00 0.00 0.00 0.00 0.00 0.00 0.00 0.02 0.01 0.00 0.00 0.00 0.01
0.00 0.00 0.00 0.00 0.00 0.00 0.00 0.00 0.00 0.00 0.00 0.00 0.00 0.00 0.00 0.00 0.00 0.00 0.00 0.00 0.00 0.00 0.00 0.00 0.00 0.00 0.00 0.00 0.00 0.00 0.00 0.01 0.01 0.00 0.00 0.00 0.00 0.01
0.00 0.00 0.00 0.00 0.00 0.00 0.00 0.00 0.00 0.00 0.00 0.00 0.00 0.00 0.00 0.00 0.00 0.00 0.00 0.00 0.00 0.00 0.00 0.00 0.00 0.00 0.00 0.00 0.00 0.00 0.00 0.00 0.00 0.00 0.00 0.00 0.01 0.02
0.00 0.00 0.00 0.00 0.00 0.00 0.00 0.00 0.00 0.00 0.00 0.00 0.00 0.00 0.00 0.00 0.00 0.00 0.00 0.00 0.00 0.00 0.00 0.00 0.00 0.00 0.00 0.00 0.00 0.00 0.00 0.00 0.00 0.00 0.00 0.00 0.02 0.03
0.00 0.00 0.00 0.00 0.00 0.00 0.00 0.00 0.00 0.00 0.00 0.00 0.00 0.00 0.00 0.00 0.00 0.00 0.00 0.00 0.00 0.00 0.00 0.00 0.00 0.00 0.00 0.00 0.00 0.00 0.00 0.00 0.00 0.00 0.00 0.01 0.02 0.01
0.00 0.00 0.00 0.00 0.00 0.00 0.00 0.00 0.00 0.00 0.00 0.00 0.00 0.00 0.00 0.00 0.00 0.00 0.00 0.00 0.00 0.00 0.00 0.00 0.00 0.00 0.01 0.00 0.00 0.00 0.00 0.00 0.00 0.00 0.00 0.00 0.01 0.01
0.00 0.00 0.00 0.00 0.00 0.00 0.00 0.00 0.00 0.00 0.00 0.00 0.00 0.00 0.00 0.00 0.00 0.00 0.00 0.00 0.00 0.00 0.00 0.00 0.01 0.01 0.02 0.02 0.00 0.00 0.00 0.00 0.00 0.00 0.00 0.00 0.00 0.00
0.00 0.00 0.00 0.00 0.00 0.00 0.00 0.00 0.00 0.00 0.00 0.00 0.00 0.00 0.00 0.00 0.00 0.00 0.00 0.00 0.00 0.00 0.00 0.00 0.00 0.01 0.02 0.02 0.01 0.00 0.00 0.00 0.00 0.00 0.00 0.00 0.00 0.00
0.00 0.00 0.00 0.00 0.00 0.00 0.00 0.00 0.00 0.00 0.00 0.00 0.00 0.00 0.00 0.00 0.00 0.00 0.00 0.00 0.00 0.00 0.00 0.00 0.00 0.00 0.01 0.01 0.02 0.01 0.00 0.01 0.00 0.00 0.00 0.00 0.00 0.00
0.00 0.00 0.00 0.00 0.00 0.00 0.00 0.00 0.00 0.00 0.00 0.00 0.00 0.00 0.00 0.01 0.01 0.00 0.00 0.00 0.00 0.00 0.00 0.00 0.00 0.00 0.00 0.00 0.01 0.00 0.00 0.00 0.00 0.00 0.00 0.00 0.00 0.00
0.01 0.00 0.00 0.00 0.00 0.00 0.00 0.00 0.00 0.01 0.00 0.01 0.02 0.03 0.03 0.02 0.01 0.01 0.00 0.00 0.01 0.00 0.00 0.00 0.00 0.00 0.00 0.00 0.00 0.00 0.00 0.00 0.00 0.00 0.00 0.02 0.01 0.00
0.05 0.02 0.01 0.01 0.02 0.04 0.06 0.06 0.05 0.05 0.09 0.09 0.07 0.07 0.08 0.07 0.07 0.03 0.03 0.03 0.02 0.01 0.00 0.01 0.01 0.03 0.06 0.02 0.00 0.00 0.01 0.00 0.00 0.00 0.00 0.01 0.01 0.00
0.07 0.05 0.05 0.08 0.11 0.13 0.15 0.16 0.18 0.18 0.17 0.13 0.11 0.11 0.14 0.16 0.17 0.11 0.11 0.09 0.07 0.06 0.04 0.03 0.03 0.04 0.06 0.04 0.06 0.01 0.00 0.00 0.02 0.03 0.01 0.00 0.00 0.00
0.01 0.03 0.05 0.11 0.16 0.20 0.23 0.23 0.23 0.20 0.16 0.17 0.16 0.15 0.16 0.22 0.20 0.14 0.15 0.16 0.13 0.08 0.06 0.03 0.03 0.04 0.04 0.04 0.05 0.01 0.00 0.00 0.00 0.02 0.03 0.07 0.02 0.00
0.00 0.01 0.02 0.05 0.13 0.22 0.29 0.31 0.31 0.27 0.22 0.19 0.19 0.21 0.22 0.24 0.21 0.16 0.16 0.15 0.11 0.07 0.09 0.08 0.05 0.03 0.03 0.05 0.03 0.01 0.00 0.00 0.00 0.00 0.01 0.06 0.12 0.13
0.00 0.00 0.01 0.04 0.12 0.23 0.32 0.35 0.29 0.21 0.18 0.20 0.23 0.22 0.22 0.21 0.17 0.16 0.16 0.16 0.12 0.09 0.09 0.07 0.05 0.03 0.02 0.02 0.03 0.01 0.00 0.00 0.00 0.00 0.00 0.00 0.01 0.04

GFSNE_prec_precacc24_168.txt.gz
Total_Precipitation_Accumulation
0.02 0.02 0.02 0.03 0.05 0.07 0.10 0.16 0.24 0.15 0.13 0.13 0.09 0.09 0.08 0.10 0.22 0.19 0.09 0.05 0.02 0.01 0.01 0.05 0.07 0.04 0.04 0.04 0.03 0.02 0.02 0.01 0.01 0.01 0.01 0.01 0.01 0.01
0.00 0.01 0.01 0.02 0.03 0.05 0.08 0.12 0.15 0.20 0.20 0.10 0.08 0.04 0.02 0.05 0.04 0.00 0.01 0.00 0.00 0.00 0.00 0.00 0.00 0.00 0.00 0.00 0.00 0.00 0.00 0.00 0.00 0.00 0.00 0.00 0.00 0.00
0.00 0.00 0.00 0.01 0.02 0.04 0.05 0.06 0.08 0.09 0.11 0.05 0.02 0.02 0.00 0.00 0.00 0.00 0.00 0.00 0.00 0.00 0.00 0.00 0.00 0.00 0.00 0.00 0.00 0.00 0.00 0.00 0.00 0.00 0.00 0.00 0.00 0.00
0.00 0.00 0.00 0.00 0.00 0.00 0.00 0.00 0.00 0.01 0.02 0.02 0.01 0.02 0.02 0.01 0.00 0.00 0.00 0.00 0.00 0.00 0.00 0.00 0.00 0.00 0.00 0.00 0.00 0.00 0.00 0.00 0.00 0.00 0.00 0.00 0.00 0.00
0.00 0.00 0.00 0.00 0.00 0.00 0.00 0.00 0.00 0.00 0.00 0.00 0.00 0.00 0.00 0.00 0.00 0.00 0.00 0.00 0.00 0.00 0.00 0.00 0.00 0.00 0.00 0.00 0.00 0.00 0.00 0.00 0.00 0.00 0.00 0.00 0.00 0.01
0.00 0.00 0.00 0.00 0.00 0.00 0.00 0.00 0.00 0.00 0.00 0.00 0.00 0.00 0.00 0.00 0.00 0.00 0.00 0.00 0.00 0.00 0.00 0.00 0.00 0.00 0.00 0.00 0.00 0.00 0.00 0.00 0.00 0.00 0.00 0.01 0.01 0.01
0.00 0.00 0.00 0.00 0.00 0.00 0.00 0.00 0.00 0.00 0.00 0.00 0.00 0.00 0.00 0.00 0.00 0.00 0.00 0.00 0.00 0.00 0.00 0.00 0.00 0.00 0.00 0.00 0.00 0.00 0.00 0.00 0.00 0.01 0.01 0.01 0.00 0.00
0.00 0.00 0.00 0.00 0.00 0.00 0.00 0.00 0.00 0.00 0.00 0.00 0.00 0.00 0.00 0.00 0.00 0.00 0.00 0.00 0.00 0.00 0.00 0.00 0.00 0.00 0.00 0.00 0.00 0.00 0.00 0.00 0.01 0.01 0.00 0.00 0.00 0.00
0.00 0.00 0.00 0.00 0.00 0.00 0.00 0.00 0.00 0.00 0.00 0.00 0.00 0.00 0.00 0.00 0.00 0.00 0.00 0.00 0.00 0.00 0.00 0.00 0.00 0.00 0.00 0.00 0.00 0.00 0.00 0.01 0.00 0.00 0.00 0.00 0.00 0.00
0.00 0.00 0.00 0.00 0.00 0.00 0.00 0.00 0.00 0.00 0.00 0.00 0.00 0.00 0.00 0.00 0.00 0.00 0.00 0.00 0.00 0.00 0.00 0.00 0.00 0.00 0.00 0.00 0.00 0.00 0.00 0.00 0.00 0.00 0.00 0.00 0.00 0.01
0.00 0.00 0.00 0.00 0.00 0.00 0.00 0.00 0.00 0.00 0.00 0.00 0.00 0.00 0.00 0.00 0.00 0.00 0.00 0.00 0.00 0.00 0.00 0.00 0.00 0.00 0.00 0.00 0.00 0.00 0.00 0.00 0.00 0.00 0.00 0.00 0.01 0.03
0.00 0.00 0.00 0.00 0.00 0.00 0.00 0.00 0.00 0.00 0.00 0.00 0.00 0.00 0.00 0.00 0.00 0.00 0.00 0.00 0.00 0.00 0.00 0.00 0.00 0.00 0.00 0.00 0.00 0.00 0.00 0.00 0.00 0.00 0.00 0.01 0.02 0.01
0.00 0.00 0.00 0.00 0.00 0.00 0.00 0.00 0.00 0.00 0.00 0.00 0.00 0.00 0.00 0.00 0.00 0.00 0.00 0.00 0.00 0.00 0.00 0.00 0.00 0.00 0.00 0.00 0.00 0.00 0.00 0.00 0.00 0.00 0.00 0.00 0.01 0.01
0.00 0.00 0.00 0.00 0.00 0.00 0.00 0.00 0.00 0.00 0.00 0.00 0.00 0.00 0.00 0.00 0.00 0.00 0.00 0.00 0.00 0.00 0.00 0.00 0.00 0.00 0.01 0.01 0.00 0.00 0.00 0.00 0.00 0.00 0.00 0.00 0.00 0.00
0.00 0.00 0.00 0.00 0.00 0.00 0.00 0.00 0.00 0.00 0.00 0.00 0.00 0.00 0.00 0.00 0.00 0.00 0.00 0.00 0.00 0.00 0.00 0.00 0.00 0.00 0.01 0.01 0.01 0.00 0.00 0.00 0.00 0.00 0.00 0.00 0.00 0.00
0.00 0.00 0.00 0.00 0.00 0.00 0.00 0.00 0.00 0.00 0.00 0.00 0.00 0.00 0.00 0.00 0.00 0.00 0.00 0.00 0.00 0.00 0.00 0.00 0.00 0.00 0.01 0.01 0.01 0.01 0.00 0.01 0.00 0.00 0.00 0.00 0.00 0.00
0.00 0.00 0.00 0.00 0.00 0.00 0.00 0.00 0.00 0.00 0.00 0.00 0.00 0.00 0.01 0.01 0.01 0.01 0.01 0.00 0.00 0.00 0.00 0.00 0.00 0.00 0.00 0.00 0.00 0.00 0.01 0.01 0.00 0.00 0.00 0.00 0.00 0.00
0.01 0.00 0.00 0.00 0.00 0.00 0.00 0.00 0.00 0.01 0.00 0.01 0.02 0.04 0.05 0.05 0.04 0.04 0.03 0.01 0.01 0.01 0.00 0.00 0.00 0.00 0.00 0.00 0.00 0.01 0.02 0.00 0.00 0.00 0.00 0.01 0.01 0.00
0.05 0.02 0.01 0.01 0.02 0.04 0.06 0.06 0.05 0.05 0.10 0.10 0.07 0.07 0.09 0.12 0.12 0.09 0.06 0.06 0.04 0.03 0.02 0.02 0.02 0.04 0.06 0.03 0.01 0.01 0.01 0.00 0.00 0.00 0.00 0.00 0.01 0.00
0.07 0.05 0.05 0.08 0.11 0.13 0.15 0.17 0.18 0.19 0.17 0.14 0.12 0.11 0.15 0.18 0.22 0.15 0.14 0.13 0.11 0.11 0.09 0.07 0.05 0.06 0.09 0.06 0.06 0.02 0.02 0.01 0.02 0.02 0.00 0.00 0.00 0.00
0.01 0.03 0.05 0.11 0.17 0.20 0.23 0.23 0.24 0.20 0.16 0.17 0.16 0.16 0.16 0.23 0.23 0.16 0.18 0.21 0.19 0.14 0.10 0.05 0.06 0.11 0.09 0.06 0.07 0.03 0.01 0.00 0.00 0.02 0.02 0.05 0.01 0.00
0.00 0.01 0.02 0.06 0.13 0.22 0.29 0.31 0.31 0.28 0.22 0.20 0.19 0.22 0.23 0.25 0.23 0.18 0.17 0.19 0.16 0.10 0.13 0.12 0.12 0.08 0.06 0.08 0.06 0.03 0.01 0.00 0.00 0.00 0.00 0.03 0.09 0.10
0.00 0.00 0.01 0.04 0.12 0.23 0.32 0.35 0.29 0.21 0.18 0.21 0.24 0.22 0.22 0.22 0.18 0.17 0.17 0.18 0.17 0.13 0.15 0.12 0.09 0.07 0.06 0.06 0.05 0.02 0.01 0.00 0.00 0.00 0.00 0.00 0.00 0.00

GFSNE_prec_precacc24_174.txt.gz
Total_Precipitation_Accumulation
0.00 0.00 0.00 0.00 0.00 0.00 0.01 0.04 0.09 0.06 0.02 0.03 0.01 0.01 0.02 0.06 0.17 0.14 0.08 0.05 0.02 0.01 0.01 0.05 0.06 0.03 0.01 0.01 0.00 0.00 0.00 0.00 0.00 0.00 0.00 0.00 0.00 0.01
0.00 0.00 0.00 0.00 0.00 0.00 0.00 0.00 0.01 0.05 0.06 0.01 0.01 0.00 0.01 0.04 0.04 0.00 0.00 0.00 0.00 0.00 0.00 0.00 0.00 0.00 0.00 0.00 0.00 0.00 0.00 0.00 0.00 0.00 0.00 0.00 0.00 0.00
0.00 0.00 0.00 0.00 0.00 0.00 0.00 0.00 0.00 0.00 0.01 0.00 0.00 0.00 0.00 0.00 0.00 0.00 0.00 0.00 0.00 0.00 0.00 0.00 0.00 0.00 0.00 0.00 0.00 0.00 0.00 0.00 0.00 0.00 0.00 0.00 0.00 0.00
0.00 0.00 0.00 0.00 0.00 0.00 0.00 0.00 0.00 0.00 0.00 0.00 0.00 0.00 0.00 0.00 0.00 0.00 0.00 0.00 0.00 0.00 0.00 0.00 0.00 0.00 0.00 0.00 0.00 0.00 0.00 0.00 0.00 0.00 0.00 0.00 0.00 0.00
0.00 0.00 0.00 0.00 0.00 0.00 0.00 0.00 0.00 0.00 0.00 0.00 0.00 0.00 0.00 0.00 0.00 0.00 0.00 0.00 0.00 0.00 0.00 0.00 0.00 0.00 0.00 0.00 0.00 0.00 0.00 0.00 0.00 0.00 0.00 0.00 0.00 0.00
0.00 0.00 0.00 0.00 0.00 0.00 0.00 0.00 0.00 0.00 0.00 0.00 0.00 0.00 0.00 0.00 0.00 0.00 0.00 0.00 0.00 0.00 0.00 0.00 0.00 0.00 0.00 0.00 0.00 0.00 0.00 0.00 0.00 0.00 0.00 0.00 0.00 0.00
0.00 0.00 0.00 0.00 0.00 0.00 0.00 0.00 0.00 0.00 0.00 0.00 0.00 0.00 0.00 0.00 0.00 0.00 0.00 0.00 0.00 0.00 0.00 0.00 0.00 0.00 0.00 0.00 0.00 0.00 0.00 0.00 0.00 0.00 0.00 0.00 0.00 0.00
0.00 0.00 0.00 0.00 0.00 0.00 0.00 0.00 0.00 0.00 0.00 0.00 0.00 0.00 0.00 0.00 0.00 0.00 0.00 0.00 0.00 0.00 0.00 0.00 0.00 0.00 0.00 0.00 0.00 0.00 0.00 0.00 0.00 0.00 0.00 0.00 0.00 0.00
0.00 0.00 0.00 0.00 0.00 0.00 0.00 0.00 0.00 0.00 0.00 0.00 0.00 0.00 0.00 0.00 0.00 0.00 0.00 0.00 0.00 0.00 0.00 0.00 0.00 0.00 0.00 0.00 0.00 0.00 0.00 0.00 0.00 0.00 0.00 0.00 0.00 0.00
0.00 0.00 0.00 0.00 0.00 0.00 0.00 0.00 0.00 0.00 0.00 0.00 0.00 0.00 0.00 0.00 0.00 0.00 0.00 0.00 0.00 0.00 0.00 0.00 0.00 0.00 0.00 0.00 0.00 0.00 0.00 0.00 0.00 0.00 0.00 0.00 0.00 0.01
0.00 0.00 0.00 0.00 0.00 0.00 0.00 0.00 0.00 0.00 0.00 0.00 0.00 0.00 0.00 0.00 0.00 0.00 0.00 0.00 0.00 0.00 0.00 0.00 0.00 0.00 0.00 0.00 0.00 0.00 0.00 0.00 0.00 0.00 0.00 0.00 0.01 0.01
0.00 0.00 0.00 0.00 0.00 0.00 0.00 0.00 0.00 0.00 0.00 0.00 0.00 0.00 0.00 0.00 0.00 0.00 0.00 0.00 0.00 0.00 0.00 0.00 0.00 0.00 0.00 0.00 0.00 0.00 0.00 0.00 0.00 0.00 0.00 0.00 0.01 0.00
0.00 0.00 0.00 0.00 0.00 0.00 0.00 0.00 0.00 0.00 0.00 0.00 0.00 0.00 0.00 0.00 0.00 0.00 0.00 0.00 0.00 0.00 0.00 0.00 0.00 0.00 0.00 0.00 0.00 0.00 0.00 0.00 0.00 0.00 0.00 0.00 0.00 0.00
0.00 0.00 0.00 0.00 0.00 0.00 0.00 0.00 0.00 0.00 0.00 0.00 0.00 0.00 0.00 0.00 0.00 0.00 0.00 0.00 0.00 0.00 0.00 0.00 0.00 0.00 0.00 0.00 0.00 0.00 0.00 0.00 0.00 0.00 0.00 0.00 0.00 0.00
0.00 0.00 0.00 0.00 0.00 0.00 0.00 0.00 0.00 0.00 0.00 0.00 0.00 0.00 0.00 0.00 0.00 0.00 0.00 0.00 0.00 0.00 0.00 0.00 0.00 0.00 0.00 0.00 0.00 0.00 0.00 0.00 0.00 0.00 0.00 0.00 0.00 0.00
0.00 0.00 0.00 0.00 0.00 0.00 0.00 0.00 0.00 0.00 0.00 0.00 0.00 0.00 0.00 0.00 0.00 0.00 0.00 0.00 0.00 0.00 0.00 0.00 0.00 0.00 0.00 0.00 0.01 0.00 0.00 0.00 0.00 0.00 0.00 0.00 0.00 0.00
0.00 0.00 0.00 0.00 0.00 0.00 0.00 0.00 0.00 0.00 0.00 0.00 0.00 0.01 0.01 0.02 0.02 0.03 0.03 0.03 0.01 0.00 0.00 0.00 0.00 0.00 0.00 0.00 0.00 0.00 0.00 0.00 0.00 0.00 0.00 0.00 0.00 0.00
0.01 0.00 0.00 0.00 0.00 0.01 0.01 0.01 0.01 0.01 0.00 0.01 0.02 0.04 0.05 0.07 0.09 0.10 0.08 0.06 0.03 0.02 0.02 0.01 0.02 0.03 0.01 0.00 0.00 0.01 0.02 0.00 0.00 0.00 0.00 0.01 0.00 0.01
0.05 0.02 0.01 0.02 0.03 0.05 0.06 0.07 0.06 0.05 0.10 0.10 0.08 0.08 0.10 0.14 0.19 0.14 0.10 0.11 0.08 0.06 0.06 0.05 0.05 0.06 0.08 0.03 0.01 0.01 0.02 0.01 0.00 0.00 0.00 0.00 0.00 0.00
0.07 0.05 0.05 0.08 0.11 0.13 0.15 0.17 0.19 0.19 0.18 0.14 0.12 0.12 0.16 0.20 0.25 0.18 0.16 0.16 0.15 0.14 0.14 0.10 0.07 0.07 0.11 0.07 0.05 0.02 0.03 0.03 0.01 0.01 0.00 0.00 0.00 0.00
0.01 0.03 0.05 0.11 0.16 0.20 0.23 0.24 0.24 0.21 0.17 0.17 0.16 0.16 0.18 0.26 0.25 0.18 0.20 0.23 0.23 0.18 0.13 0.07 0.06 0.16 0.15 0.08 0.07 0.04 0.02 0.00 0.00 0.00 0.00 0.03 0.01 0.00
0.00 0.01 0.02 0.05 0.11 0.19 0.26 0.30 0.30 0.27 0.22 0.20 0.19 0.23 0.25 0.28 0.25 0.20 0.20 0.22 0.19 0.12 0.15 0.16 0.16 0.16 0.08 0.09 0.06 0.04 0.01 0.00 0.00 0.00 0.00 0.01 0.05 0.06
0.00 0.01 0.01 0.03 0.08 0.17 0.27 0.31 0.27 0.20 0.18 0.21 0.24 0.23 0.24 0.24 0.21 0.20 0.20 0.21 0.19 0.16 0.19 0.17 0.14 0.11 0.09 0.09 0.07 0.02 0.01 0.00 0.00 0.00 0.00 0.00 0.00 0.00

GFSNE_prec_precacc24_177.txt.gz
Total_Precipitation_Accumulation
0.00 0.00 0.00 0.00 0.00 0.00 0.00 0.02 0.05 0.03 0.00 0.00 0.01 0.00 0.00 0.00 0.01 0.03 0.04 0.03 0.01 0.00 0.01 0.05 0.06 0.03 0.01 0.01 0.00 0.00 0.00 0.00 0.00 0.00 0.00 0.00 0.01 0.02
0.00 0.00 0.00 0.00 0.00 0.00 0.00 0.00 0.01 0.03 0.03 0.00 0.00 0.00 0.00 0.00 0.00 0.00 0.00 0.00 0.00 0.00 0.00 0.00 0.00 0.00 0.00 0.00 0.00 0.00 0.00 0.00 0.00 0.00 0.00 0.00 0.00 0.00
0.00 0.00 0.00 0.00 0.00 0.00 0.00 0.00 0.00 0.00 0.01 0.00 0.00 0.00 0.00 0.00 0.00 0.00 0.00 0.00 0.00 0.00 0.00 0.00 0.00 0.00 0.00 0.00 0.00 0.00 0.00 0.00 0.00 0.00 0.00 0.00 0.00 0.00
0.00 0.00 0.00 0.00 0.00 0.00 0.00 0.00 0.00 0.00 0.00 0.00 0.00 0.00 0.00 0.00 0.00 0.00 0.00 0.00 0.00 0.00 0.00 0.00 0.00 0.00 0.00 0.00 0.00 0.00 0.00 0.00 0.00 0.00 0.00 0.00 0.00 0.00
0.00 0.00 0.00 0.00 0.00 0.00 0.00 0.00 0.00 0.00 0.00 0.00 0.00 0.00 0.00 0.00 0.00 0.00 0.00 0.00 0.00 0.00 0.00 0.00 0.00 0.00 0.00 0.00 0.00 0.00 0.00 0.00 0.00 0.00 0.00 0.00 0.00 0.00
0.00 0.00 0.00 0.00 0.00 0.00 0.00 0.00 0.00 0.00 0.00 0.00 0.00 0.00 0.00 0.00 0.00 0.00 0.00 0.00 0.00 0.00 0.00 0.00 0.00 0.00 0.00 0.00 0.00 0.00 0.00 0.00 0.00 0.00 0.00 0.00 0.00 0.00
0.00 0.00 0.00 0.00 0.00 0.00 0.00 0.00 0.00 0.00 0.00 0.00 0.00 0.00 0.00 0.00 0.00 0.00 0.00 0.00 0.00 0.00 0.00 0.00 0.00 0.00 0.00 0.00 0.00 0.00 0.00 0.00 0.00 0.00 0.00 0.00 0.00 0.00
0.00 0.00 0.00 0.00 0.00 0.00 0.00 0.00 0.00 0.00 0.00 0.00 0.00 0.00 0.00 0.00 0.00 0.00 0.00 0.00 0.00 0.00 0.00 0.00 0.00 0.00 0.00 0.00 0.00 0.00 0.00 0.00 0.00 0.00 0.00 0.00 0.00 0.00
0.00 0.00 0.00 0.00 0.00 0.00 0.00 0.00 0.00 0.00 0.00 0.00 0.00 0.00 0.00 0.00 0.00 0.00 0.00 0.00 0.00 0.00 0.00 0.00 0.00 0.00 0.00 0.00 0.00 0.00 0.00 0.00 0.00 0.00 0.00 0.00 0.00 0.00
0.00 0.00 0.00 0.00 0.00 0.00 0.00 0.00 0.00 0.00 0.00 0.00 0.00 0.00 0.00 0.00 0.00 0.00 0.00 0.00 0.00 0.00 0.00 0.00 0.00 0.00 0.00 0.00 0.00 0.00 0.00 0.00 0.00 0.00 0.00 0.00 0.00 0.00
0.00 0.00 0.00 0.00 0.00 0.00 0.00 0.00 0.00 0.00 0.00 0.00 0.00 0.00 0.00 0.00 0.00 0.00 0.00 0.00 0.00 0.00 0.00 0.00 0.00 0.00 0.00 0.00 0.00 0.00 0.00 0.00 0.00 0.00 0.00 0.00 0.00 0.01
0.00 0.00 0.00 0.00 0.00 0.00 0.00 0.00 0.00 0.00 0.00 0.00 0.00 0.00 0.00 0.00 0.00 0.00 0.00 0.00 0.00 0.00 0.00 0.00 0.00 0.00 0.00 0.00 0.00 0.00 0.00 0.00 0.00 0.00 0.00 0.00 0.00 0.00
0.00 0.00 0.00 0.00 0.00 0.00 0.00 0.00 0.00 0.00 0.00 0.00 0.00 0.00 0.00 0.00 0.00 0.00 0.00 0.00 0.00 0.00 0.00 0.00 0.00 0.00 0.00 0.00 0.00 0.00 0.00 0.00 0.00 0.00 0.00 0.00 0.00 0.00
0.00 0.00 0.00 0.00 0.00 0.00 0.00 0.00 0.00 0.00 0.00 0.00 0.00 0.00 0.00 0.00 0.00 0.00 0.00 0.00 0.00 0.00 0.00 0.00 0.00 0.00 0.00 0.00 0.00 0.00 0.00 0.00 0.00 0.00 0.00 0.00 0.00 0.00
0.00 0.00 0.00 0.00 0.00 0.00 0.00 0.00 0.00 0.00 0.00 0.00 0.00 0.00 0.00 0.00 0.00 0.00 0.00 0.00 0.00 0.00 0.00 0.00 0.00 0.00 0.00 0.00 0.00 0.00 0.00 0.00 0.00 0.00 0.00 0.00 0.00 0.00
0.00 0.00 0.00 0.00 0.00 0.00 0.00 0.00 0.00 0.00 0.00 0.00 0.00 0.00 0.00 0.00 0.00 0.00 0.00 0.01 0.01 0.00 0.00 0.00 0.00 0.00 0.00 0.00 0.00 0.00 0.00 0.00 0.00 0.00 0.00 0.00 0.00 0.00
0.01 0.00 0.00 0.00 0.00 0.00 0.00 0.00 0.00 0.00 0.00 0.00 0.00 0.01 0.01 0.02 0.02 0.03 0.03 0.05 0.04 0.00 0.00 0.00 0.01 0.00 0.00 0.00 0.00 0.00 0.00 0.00 0.00 0.00 0.00 0.00 0.00 0.00
0.02 0.00 0.00 0.00 0.00 0.01 0.01 0.01 0.01 0.01 0.00 0.01 0.03 0.04 0.06 0.07 0.09 0.10 0.09 0.08 0.04 0.02 0.03 0.01 0.05 0.05 0.01 0.00 0.00 0.01 0.02 0.00 0.00 0.00 0.00 0.00 0.00 0.01
0.05 0.02 0.01 0.02 0.03 0.05 0.06 0.07 0.06 0.05 0.10 0.11 0.08 0.08 0.11 0.14 0.20 0.14 0.11 0.12 0.09 0.06 0.06 0.05 0.06 0.08 0.09 0.03 0.01 0.01 0.02 0.01 0.00 0.00 0.00 0.00 0.00 0.00
0.07 0.05 0.05 0.08 0.11 0.13 0.15 0.17 0.19 0.19 0.18 0.15 0.13 0.12 0.16 0.21 0.26 0.19 0.17 0.16 0.15 0.15 0.15 0.11 0.07 0.07 0.11 0.07 0.05 0.02 0.03 0.03 0.01 0.00 0.00 0.00 0.00 0.00
0.01 0.03 0.05 0.10 0.16 0.21 0.23 0.24 0.23 0.21 0.17 0.17 0.16 0.16 0.18 0.27 0.26 0.18 0.21 0.25 0.24 0.18 0.13 0.07 0.06 0.16 0.16 0.10 0.07 0.04 0.02 0.00 0.00 0.00 0.00 0.01 0.00 0.00
0.00 0.00 0.00 0.04 0.09 0.16 0.22 0.25 0.25 0.23 0.19 0.17 0.18 0.21 0.23 0.28 0.26 0.21 0.20 0.23 0.20 0.13 0.15 0.16 0.16 0.17 0.09 0.09 0.06 0.04 0.01 0.00 0.00 0.00 0.00 0.01 0.03 0.03
0.00 0.01 0.01 0.02 0.04 0.09 0.16 0.22 0.20 0.14 0.14 0.17 0.21 0.21 0.23 0.24 0.21 0.21 0.21 0.22 0.20 0.17 0.20 0.17 0.16 0.12 0.10 0.10 0.07 0.03 0.02 0.00 0.00 0.00 0.00 0.00 0.00 0.00

GFSNE_prec_precacc24_180.txt.gz
Total_Precipitation_Accumulation
0.00 0.00 0.00 0.00 0.00 0.00 0.00 0.02 0.04 0.02 0.00 0.00 0.00 0.00 0.00 0.00 0.00 0.00 0.00 0.02 0.00 0.00 0.01 0.05 0.06 0.03 0.01 0.01 0.00 0.00 0.00 0.00 0.00 0.00 0.00 0.01 0.01 0.04
0.00 0.00 0.00 0.00 0.00 0.00 0.00 0.01 0.01 0.02 0.02 0.00 0.00 0.00 0.00 0.00 0.00 0.00 0.00 0.00 0.00 0.00 0.00 0.00 0.00 0.00 0.00 0.00 0.00 0.00 0.00 0.00 0.00 0.00 0.00 0.00 0.00 0.00
0.00 0.00 0.00 0.00 0.00 0.00 0.00 0.00 0.00 0.00 0.01 0.00 0.00 0.00 0.00 0.00 0.00 0.00 0.00 0.00 0.00 0.00 0.00 0.00 0.00 0.00 0.00 0.00 0.00 0.00 0.00 0.00 0.00 0.00 0.00 0.00 0.00 0.00
0.00 0.00 0.00 0.00 0.00 0.00 0.00 0.00 0.00 0.00 0.00 0.00 0.00 0.00 0.00 0.00 0.00 0.00 0.00 0.00 0.00 0.00 0.00 0.00 0.00 0.00 0.00 0.00 0.00 0.00 0.00 0.00 0.00 0.00 0.00 0.00 0.00 0.00
0.00 0.00 0.00 0.00 0.00 0.00 0.00 0.00 0.00 0.00 0.00 0.00 0.00 0.00 0.00 0.00 0.00 0.00 0.00 0.00 0.00 0.00 0.00 0.00 0.00 0.00 0.00 0.00 0.00 0.00 0.00 0.00 0.00 0.00 0.00 0.00 0.00 0.00
0.00 0.00 0.00 0.00 0.00 0.00 0.00 0.00 0.00 0.00 0.00 0.00 0.00 0.00 0.00 0.00 0.00 0.00 0.00 0.00 0.00 0.00 0.00 0.00 0.00 0.00 0.00 0.00 0.00 0.00 0.00 0.00 0.00 0.00 0.00 0.00 0.00 0.00
0.00 0.00 0.00 0.00 0.00 0.00 0.00 0.00 0.00 0.00 0.00 0.00 0.00 0.00 0.00 0.00 0.00 0.00 0.00 0.00 0.00 0.00 0.00 0.00 0.00 0.00 0.00 0.00 0.00 0.00 0.00 0.00 0.00 0.00 0.00 0.00 0.00 0.00
0.00 0.00 0.00 0.00 0.00 0.00 0.00 0.00 0.00 0.00 0.00 0.00 0.00 0.00 0.00 0.00 0.00 0.00 0.00 0.00 0.00 0.00 0.00 0.00 0.00 0.00 0.00 0.00 0.00 0.00 0.00 0.00 0.00 0.00 0.00 0.00 0.00 0.00
0.00 0.00 0.00 0.00 0.00 0.00 0.00 0.00 0.00 0.00 0.00 0.00 0.00 0.00 0.00 0.00 0.00 0.00 0.00 0.00 0.00 0.00 0.00 0.00 0.00 0.00 0.00 0.00 0.00 0.00 0.00 0.00 0.00 0.00 0.00 0.00 0.00 0.00
0.00 0.00 0.00 0.00 0.00 0.00 0.00 0.00 0.00 0.00 0.00 0.00 0.00 0.00 0.00 0.00 0.00 0.00 0.00 0.00 0.00 0.00 0.00 0.00 0.00 0.00 0.00 0.00 0.00 0.00 0.00 0.00 0.00 0.00 0.00 0.00 0.00 0.00
0.00 0.00 0.00 0.00 0.00 0.00 0.00 0.00 0.00 0.00 0.00 0.00 0.00 0.00 0.00 0.00 0.00 0.00 0.00 0.00 0.00 0.00 0.00 0.00 0.00 0.00 0.00 0.00 0.00 0.00 0.00 0.00 0.00 0.00 0.00 0.00 0.00 0.00
0.00 0.00 0.00 0.00 0.00 0.00 0.00 0.00 0.00 0.00 0.00 0.00 0.00 0.00 0.00 0.00 0.00 0.00 0.00 0.00 0.00 0.00 0.00 0.00 0.00 0.00 0.00 0.00 0.00 0.00 0.00 0.00 0.00 0.00 0.00 0.00 0.00 0.00
0.00 0.00 0.00 0.00 0.00 0.00 0.00 0.00 0.00 0.00 0.00 0.00 0.00 0.00 0.00 0.00 0.00 0.00 0.00 0.00 0.00 0.00 0.00 0.00 0.00 0.00 0.00 0.00 0.00 0.00 0.00 0.00 0.00 0.00 0.00 0.00 0.00 0.00
0.00 0.00 0.00 0.00 0.00 0.00 0.00 0.00 0.00 0.00 0.00 0.00 0.00 0.00 0.00 0.00 0.00 0.00 0.00 0.00 0.00 0.00 0.00 0.00 0.00 0.00 0.00 0.00 0.00 0.00 0.00 0.00 0.00 0.00 0.00 0.00 0.00 0.00
0.00 0.00 0.00 0.00 0.00 0.00 0.01 0.00 0.00 0.00 0.00 0.00 0.00 0.00 0.00 0.00 0.00 0.00 0.00 0.00 0.00 0.00 0.00 0.00 0.00 0.00 0.00 0.00 0.00 0.00 0.00 0.00 0.00 0.00 0.00 0.00 0.00 0.00
0.00 0.00 0.00 0.00 0.00 0.00 0.00 0.00 0.00 0.00 0.00 0.00 0.00 0.00 0.00 0.00 0.00 0.00 0.00 0.01 0.01 0.00 0.00 0.00 0.00 0.00 0.00 0.00 0.00 0.00 0.00 0.00 0.00 0.00 0.00 0.00 0.00 0.00
0.01 0.00 0.00 0.00 0.00 0.00 0.00 0.00 0.00 0.00 0.00 0.00 0.00 0.01 0.01 0.02 0.02 0.03 0.03 0.05 0.05 0.01 0.01 0.02 0.03 0.03 0.01 0.00 0.00 0.00 0.00 0.00 0.00 0.00 0.00 0.00 0.00 0.00
0.02 0.00 0.00 0.00 0.00 0.01 0.01 0.01 0.01 0.02 0.01 0.01 0.03 0.04 0.06 0.07 0.09 0.10 0.09 0.08 0.05 0.03 0.03 0.03 0.09 0.07 0.02 0.01 0.00 0.01 0.02 0.00 0.00 0.00 0.00 0.00 0.00 0.01
0.05 0.02 0.01 0.02 0.03 0.05 0.07 0.07 0.06 0.05 0.10 0.10 0.08 0.09 0.11 0.14 0.21 0.15 0.11 0.13 0.09 0.07 0.06 0.08 0.08 0.10 0.10 0.03 0.01 0.01 0.02 0.01 0.00 0.00 0.00 0.00 0.00 0.00
0.04 0.04 0.04 0.06 0.10 0.13 0.14 0.17 0.18 0.19 0.18 0.15 0.13 0.12 0.16 0.21 0.26 0.19 0.17 0.17 0.16 0.16 0.16 0.13 0.09 0.09 0.13 0.07 0.04 0.02 0.03 0.03 0.00 0.00 0.00 0.00 0.00 0.00
0.00 0.02 0.02 0.04 0.06 0.11 0.15 0.17 0.19 0.18 0.16 0.17 0.16 0.16 0.17 0.25 0.24 0.18 0.22 0.27 0.26 0.20 0.14 0.07 0.07 0.16 0.16 0.12 0.08 0.03 0.02 0.00 0.00 0.00 0.00 0.01 0.00 0.00
0.00 0.00 0.00 0.01 0.02 0.06 0.10 0.14 0.16 0.16 0.12 0.13 0.15 0.18 0.20 0.25 0.24 0.19 0.21 0.24 0.22 0.15 0.16 0.17 0.18 0.19 0.11 0.10 0.06 0.04 0.02 0.00 0.00 0.00 0.00 0.00 0.01 0.01
0.01 0.01 0.01 0.01 0.01 0.03 0.07 0.11 0.12 0.09 0.09 0.13 0.16 0.16 0.18 0.21 0.19 0.20 0.22 0.23 0.22 0.19 0.22 0.19 0.18 0.15 0.11 0.11 0.08 0.03 0.02 0.00 0.00 0.00 0.00 0.00 0.00 0.00